[[{"header":{"parameterUnit":"m.s-1","parameterCategory":1,"la1":30.6,"la2":28.766,"lo1":-90.7593,"lo2":-88.6598,"dy":0.0162,"dx":0.0183,"nx":116,"ny":114,"refTime":"2023-04-24T06:00:00:Z","depth":0,"parameterNumber":2,"parameterNumberName":"U-component_of_WINDS"},"data":[0.0,0.0,0.0,0.0,0.0,0.0,0.0,0.0,0.0,0.0,0.0,0.0,0.0,0.0,0.0,0.0,0.0,0.0,0.0,0.0,0.0,0.0,0.0,0.0,0.0,0.0,0.0,0.0,0.0,0.0,0.0,0.0,0.0,0.0,0.0,0.0,0.0,0.0,0.0,0.0,0.0,0.0,0.0,0.0,0.0,0.0,0.0,0.0,0.0,0.0,0.0,0.0,0.0,0.0,0.0,0.0,0.0,0.0,0.0,0.0,0.0,0.0,0.0,0.0,0.0,0.0,0.0,0.0,0.0,0.0,0.0,0.0,0.0,0.0,0.0,0.0,0.0,0.0,0.0,0.0,0.0,0.0,0.0,0.0,0.0,0.0,0.0,0.0,0.0,0.0,0.0,0.0,0.0,0.0,0.0,0.0,0.0,0.0,0.0,0.0,0.0,0.0,0.0,0.0,0.0,0.0,0.0,0.0,0.0,0.0,0.0,0.0,0.0,0.0,0.0,0.0,0.0,0.0,0.0,0.0,0.0,0.0,0.0,0.0,0.0,0.0,0.0,0.0,0.0,0.0,0.0,0.0,0.0,0.0,0.0,0.0,0.0,0.0,0.0,0.0,0.0,0.0,0.0,0.0,0.0,0.0,0.0,0.0,0.0,0.0,0.0,0.0,0.0,0.0,0.0,0.0,0.0,0.0,0.0,0.0,0.0,0.0,0.0,0.0,0.0,0.0,0.0,0.0,0.0,0.0,0.0,0.0,0.0,0.0,0.0,0.0,0.0,0.0,0.0,0.0,0.0,0.0,0.0,0.0,0.0,0.0,0.0,0.0,0.0,0.0,0.0,0.0,0.0,0.0,0.0,0.0,0.0,0.0,0.0,0.0,0.0,0.0,0.0,0.0,0.0,0.0,0.0,0.0,0.0,0.0,0.0,0.0,0.0,0.0,0.0,0.0,0.0,0.0,0.0,0.0,0.0,0.0,0.0,0.0,0.0,0.0,0.0,0.0,0.0,0.0,0.0,0.0,0.0,0.0,0.0,0.0,0.0,0.0,0.0,0.0,0.0,0.0,0.0,0.0,0.0,0.0,0.0,0.0,0.0,0.0,0.0,0.0,0.0,0.0,0.0,0.0,0.0,0.0,0.0,0.0,0.0,0.0,0.0,0.0,0.0,0.0,0.0,0.0,0.0,0.0,0.0,0.0,0.0,0.0,0.0,0.0,0.0,0.0,0.0,0.0,0.0,0.0,0.0,0.0,0.0,0.0,0.0,0.0,0.0,0.0,0.0,0.0,0.0,0.0,0.0,0.0,0.0,0.0,0.0,0.0,0.0,0.0,0.0,0.0,0.0,0.0,0.0,0.0,0.0,0.0,0.0,0.0,0.0,0.0,0.0,0.0,0.0,0.0,0.0,0.0,0.0,0.0,0.0,0.0,0.0,0.0,0.0,0.0,0.0,0.0,0.0,0.0,0.0,0.0,0.0,0.0,0.0,0.0,0.0,0.0,0.0,0.0,0.0,0.0,0.0,0.0,0.0,0.0,0.0,0.0,0.0,0.0,0.0,0.0,0.0,0.0,0.0,0.0,0.0,0.0,0.0,0.0,0.0,0.0,0.0,0.0,0.0,0.0,0.0,0.0,0.0,0.0,0.0,0.0,0.0,0.0,0.0,0.0,0.0,0.0,0.0,0.0,0.0,0.0,0.0,0.0,0.0,0.0,0.0,0.0,0.0,0.0,0.0,0.0,0.0,0.0,0.0,0.0,0.0,0.0,0.0,0.0,0.0,0.0,0.0,0.0,0.0,0.0,0.0,0.0,0.0,0.0,0.0,0.0,0.0,0.0,0.0,0.0,0.0,0.0,0.0,0.0,0.0,0.0,0.0,0.0,0.0,0.0,0.0,0.0,0.0,0.0,0.0,0.0,0.0,0.0,0.0,0.0,0.0,0.0,0.0,0.0,0.0,0.0,0.0,0.0,0.0,0.0,0.0,0.0,0.0,0.0,0.0,0.0,0.0,0.0,0.0,0.0,0.0,0.0,0.0,0.0,0.0,0.0,0.0,0.0,0.0,0.0,0.0,0.0,0.0,0.0,0.0,0.0,0.0,0.0,0.0,0.0,0.0,0.0,0.0,0.0,0.0,0.0,0.0,0.0,0.0,0.0,0.0,0.0,0.0,0.0,0.0,0.0,0.0,0.0,0.0,0.0,0.0,0.0,0.0,0.0,0.0,0.0,0.0,0.0,0.0,0.0,0.0,0.0,0.0,0.0,0.0,0.0,0.0,0.0,0.0,0.0,0.0,0.0,0.0,0.0,0.0,0.0,0.0,0.0,0.0,0.0,0.0,0.0,0.0,0.0,0.0,0.0,0.0,0.0,0.0,0.0,0.0,0.0,0.0,0.0,0.0,0.0,0.0,0.0,0.0,0.0,0.0,0.0,0.0,0.0,0.0,0.0,0.0,0.0,0.0,0.0,0.0,0.0,0.0,0.0,0.0,0.0,0.0,0.0,0.0,0.0,0.0,0.0,0.0,0.0,0.0,0.0,0.0,0.0,0.0,0.0,0.0,0.0,0.0,0.0,0.0,0.0,0.0,0.0,0.0,0.0,0.0,0.0,0.0,0.0,0.0,0.0,0.0,0.0,0.0,0.0,0.0,0.0,0.0,0.0,0.0,0.0,0.0,0.0,0.0,0.0,0.0,0.0,0.0,0.0,0.0,0.0,0.0,0.0,0.0,0.0,0.0,0.0,0.0,0.0,0.0,0.0,0.0,0.0,0.0,0.0,0.0,0.0,0.0,0.0,0.0,0.0,0.0,0.0,0.0,0.0,0.0,0.0,0.0,0.0,0.0,0.0,0.0,0.0,0.0,0.0,0.0,0.0,0.0,0.0,0.0,0.0,0.0,0.0,0.0,0.0,0.0,0.0,0.0,0.0,0.0,0.0,0.0,0.0,0.0,0.0,0.0,0.0,0.0,0.0,0.0,0.0,0.0,0.0,0.0,0.0,0.0,0.0,0.0,0.0,0.0,0.0,0.0,0.0,0.0,0.0,0.0,0.0,0.0,0.0,0.0,0.0,0.0,0.0,0.0,0.0,0.0,0.0,0.0,0.0,0.0,0.0,0.0,0.0,0.0,0.0,0.0,0.0,0.0,0.0,0.0,0.0,0.0,0.0,0.0,0.0,0.0,0.0,0.0,0.0,0.0,0.0,0.0,0.0,0.0,0.0,0.0,0.0,0.0,0.0,0.0,0.0,0.0,0.0,0.0,0.0,0.0,0.0,0.0,0.0,0.0,0.0,0.0,0.0,0.0,0.0,0.0,0.0,0.0,0.0,0.0,0.0,0.0,0.0,0.0,0.0,0.0,0.0,0.0,0.0,0.0,0.0,0.0,0.0,0.0,0.0,0.0,0.0,0.0,0.0,0.0,0.0,0.0,0.0,0.0,0.0,0.0,0.0,0.0,0.0,0.0,0.0,0.0,0.0,0.0,0.0,0.0,0.0,0.0,0.0,0.0,0.0,0.0,0.0,0.0,0.0,0.0,0.0,0.0,0.0,0.0,0.0,0.0,0.0,0.0,0.0,0.0,0.0,0.0,0.0,0.0,0.0,0.0,0.0,0.0,0.0,0.0,0.0,0.0,0.0,0.0,0.0,0.0,0.0,0.0,0.0,0.0,0.0,0.0,0.0,0.0,0.0,0.0,0.0,0.0,0.0,0.0,0.0,0.0,0.0,0.0,0.0,0.0,0.0,0.0,0.0,0.0,0.0,0.0,0.0,0.0,0.0,0.0,0.0,0.0,0.0,0.0,0.0,0.0,0.0,0.0,0.0,0.0,0.0,0.0,0.0,0.0,0.0,0.0,0.0,0.0,0.0,0.0,0.0,0.0,0.0,0.0,0.0,0.0,0.0,0.0,0.0,0.0,0.0,0.0,0.0,0.0,0.0,0.0,0.0,0.0,0.0,0.0,0.0,0.0,0.0,0.0,0.0,0.0,0.0,0.0,0.0,0.0,0.0,0.0,0.0,0.0,0.0,0.0,0.0,0.0,0.0,0.0,0.0,0.0,0.0,0.0,0.0,0.0,0.0,0.0,0.0,0.0,0.0,0.0,0.0,0.0,0.0,0.0,0.0,0.0,0.0,0.0,0.0,0.0,0.0,0.0,0.0,0.0,0.0,0.0,0.0,0.0,0.0,0.0,0.0,0.0,0.0,0.0,0.0,0.0,0.0,0.0,0.0,0.0,0.0,0.0,0.0,0.0,0.0,0.0,0.0,0.0,0.0,0.0,0.0,0.0,0.0,0.0,0.0,0.0,0.0,0.0,0.0,0.0,0.0,0.0,0.0,0.0,0.0,0.0,0.0,0.0,0.0,0.0,0.0,0.0,0.0,0.0,0.0,0.0,0.0,0.0,0.0,0.0,0.0,0.0,0.0,0.0,0.0,0.0,0.0,0.0,0.0,0.0,0.0,0.0,0.0,0.0,0.0,0.0,0.0,0.0,0.0,0.0,0.0,0.0,0.0,0.0,0.0,0.0,0.0,0.0,0.0,0.0,0.0,0.0,0.0,0.0,0.0,0.0,0.0,0.0,0.0,0.0,0.0,0.0,0.0,0.0,0.0,0.0,0.0,0.0,0.0,0.0,0.0,0.0,0.0,0.0,0.0,0.0,0.0,0.0,0.0,0.0,0.0,0.0,0.0,0.0,0.0,0.0,0.0,0.0,0.0,0.0,0.0,0.0,0.0,0.0,0.0,0.0,0.0,0.0,0.0,0.0,0.0,0.0,0.0,0.0,0.0,0.0,0.0,0.0,0.0,0.0,0.0,0.0,0.0,0.0,0.0,0.0,0.0,0.0,0.0,0.0,0.0,0.0,0.0,0.0,0.0,0.0,0.0,0.0,0.0,0.0,0.0,0.0,0.0,0.0,0.0,0.0,0.0,0.0,0.0,0.0,0.0,0.0,0.0,0.0,0.0,0.0,0.0,0.0,0.0,0.0,0.0,0.0,0.0,0.0,0.0,0.0,0.0,0.0,0.0,0.0,0.0,0.0,0.0,0.0,0.0,0.0,0.0,0.0,0.0,0.0,0.0,0.0,0.0,0.0,0.0,0.0,0.0,0.0,0.0,0.0,0.0,0.0,0.0,0.0,0.0,0.0,0.0,0.0,0.0,0.0,0.0,0.0,0.0,0.0,0.0,0.0,0.0,0.0,0.0,0.0,0.0,0.0,0.0,0.0,0.0,0.0,0.0,0.0,0.0,0.0,0.0,0.0,0.0,0.0,0.0,0.0,0.0,0.0,0.0,0.0,0.0,0.0,0.0,0.0,0.0,0.0,0.0,0.0,0.0,0.0,0.0,0.0,0.0,0.0,0.0,0.0,0.0,0.0,0.0,0.0,0.0,0.0,0.0,0.0,0.0,0.0,0.0,0.0,0.0,0.0,0.0,0.0,0.0,0.0,0.0,0.0,0.0,0.0,0.0,0.0,0.0,0.0,0.0,0.0,0.0,0.0,0.0,0.0,0.0,0.0,0.0,0.0,0.0,0.0,0.0,0.0,0.0,0.0,0.0,0.0,0.0,0.0,0.0,0.0,0.0,0.0,0.0,0.0,0.0,0.0,0.0,0.0,0.0,0.0,0.0,0.0,0.0,0.0,0.0,0.0,0.0,0.0,0.0,0.0,0.0,0.0,0.0,0.0,0.0,0.0,0.0,0.0,0.0,0.0,0.0,0.0,0.0,0.0,0.0,0.0,0.0,0.0,0.0,0.0,0.0,0.0,0.0,0.0,0.0,0.0,0.0,0.0,0.0,0.0,0.0,0.0,0.0,0.0,0.0,0.0,0.0,0.0,0.0,0.0,0.0,0.0,0.0,0.0,0.0,0.0,0.0,0.0,0.0,0.0,0.0,0.0,0.0,0.0,0.0,0.0,0.0,0.0,0.0,0.0,0.0,0.0,0.0,0.0,0.0,0.0,0.0,0.0,0.0,0.0,0.0,0.0,0.0,0.0,0.0,0.0,0.0,0.0,0.0,0.0,0.0,0.0,0.0,0.0,0.0,0.0,0.0,0.0,0.0,0.0,0.0,0.0,0.0,0.0,0.0,0.0,0.0,0.0,0.0,-1.5548,0.0,0.0,0.0,0.0,0.0,0.0,0.0,0.0,0.0,0.0,0.0,0.0,0.0,0.0,0.0,0.0,0.0,0.0,0.0,0.0,0.0,0.0,0.0,0.0,0.0,0.0,0.0,0.0,0.0,0.0,0.0,0.0,0.0,0.0,0.0,0.0,0.0,0.0,0.0,-0.7464,-0.9515,-1.1622,-1.094,-0.9958,-0.8676,0.0,0.0,0.0,0.0,0.0,0.0,0.0,0.0,0.0,0.0,0.0,0.0,0.0,0.0,0.0,0.0,0.0,0.0,0.0,0.0,0.0,0.0,0.0,0.0,0.0,0.0,0.0,0.0,0.0,0.0,0.0,0.0,0.0,0.0,0.0,0.0,0.0,0.0,0.0,0.0,0.0,0.0,0.0,0.0,0.0,0.0,0.0,0.0,0.0,0.0,0.0,0.0,0.0,0.0,0.0,0.0,0.0,0.0,0.0,0.0,0.0,0.0,0.0,0.0,0.0,0.0,0.0,0.0,0.0,0.0,0.0,-1.6448,0.0,0.0,0.0,0.0,0.0,0.0,0.0,0.0,0.0,0.0,0.0,0.0,0.0,0.0,0.0,0.0,0.0,0.0,0.0,0.0,0.0,0.0,0.0,0.0,0.0,0.0,0.0,0.0,0.0,0.0,0.0,0.0,0.0,0.0,0.0,-0.5883,-0.6137,-0.6298,-0.8811,-1.1463,-1.4236,-1.4486,-1.3528,-1.1574,-1.0362,0.0,0.0,0.0,0.0,0.0,0.0,0.0,0.0,0.0,0.0,0.0,0.0,0.0,0.0,0.0,0.0,0.0,0.0,0.0,0.0,0.0,0.0,0.0,0.0,0.0,0.0,0.0,0.0,0.0,0.0,0.0,0.0,0.0,0.0,0.0,0.0,0.0,0.0,0.0,0.0,0.0,0.0,0.0,0.0,0.0,0.0,0.0,0.0,0.0,0.0,0.0,0.0,0.0,0.0,0.0,0.0,0.0,0.0,0.0,0.0,0.0,0.0,0.0,-1.7615,-1.7722,-1.7171,-1.7858,-1.7996,-1.7729,-1.8154,-1.8242,-1.8086,-1.7417,0.0,0.0,0.0,0.0,0.0,0.0,0.0,0.0,0.0,0.0,0.0,0.0,0.0,0.0,0.0,0.0,0.0,0.0,0.0,0.0,0.0,0.0,-0.1237,-0.2369,-0.317,-0.3732,0.0,0.0,0.0,0.0,0.0,0.0,-0.6689,-0.804,-0.885,-0.907,-1.3025,-1.5733,-1.7175,-1.8339,-1.8386,-1.7434,-1.475,-1.4134,-1.4989,0.0,0.0,0.0,0.0,0.0,0.0,0.0,0.0,0.0,0.0,0.0,0.0,0.0,0.0,0.0,0.0,0.0,0.0,0.0,0.0,0.0,0.0,0.0,0.0,0.0,0.0,0.0,0.0,0.0,0.0,0.0,0.0,0.0,0.0,0.0,0.0,0.0,0.0,0.0,0.0,0.0,-1.7908,-1.91,0.0,0.0,0.0,0.0,0.0,0.0,0.0,0.0,0.0,0.0,0.0,0.0,0.0,-1.6182,-1.6227,-1.6945,-1.7505,-1.792,-1.8635,-1.9193,-1.9491,-1.9686,-1.9758,-1.9778,-1.9829,0.0,-1.8564,-1.8344,0.0,0.0,0.0,0.0,0.0,0.0,0.0,0.0,0.0,0.0,0.0,0.0,0.0,0.0,0.0,0.0,0.0,0.0,0.0,0.0,0.0,-0.301,-0.3786,-0.5242,-0.6391,-0.6827,-0.6354,0.0,0.0,0.0,0.0,-0.7659,-0.865,-0.9346,-1.0912,-1.3442,-1.6455,-1.8632,-1.9981,-2.102,-2.1306,-2.0979,-1.9994,-1.8592,-1.6948,-1.6981,0.0,0.0,0.0,0.0,0.0,0.0,0.0,0.0,0.0,0.0,0.0,0.0,0.0,0.0,0.0,0.0,0.0,0.0,0.0,0.0,0.0,0.0,0.0,0.0,0.0,0.0,0.0,0.0,0.0,0.0,0.0,0.0,0.0,0.0,0.0,0.0,0.0,0.0,0.0,-1.7739,-1.8425,-1.9182,-1.8412,-1.7729,0.0,0.0,0.0,0.0,0.0,0.0,0.0,0.0,0.0,-1.707,-1.732,-1.7511,-1.7563,-1.8161,-1.8605,-1.8951,-1.9239,-1.9563,-1.9753,-1.9877,-1.9939,-1.9867,-2.0083,-2.0052,-1.9875,-1.9318,-1.9246,-1.9486,0.0,0.0,0.0,0.0,-1.9268,-1.934,0.0,0.0,0.0,0.0,0.0,0.0,0.0,0.0,0.0,0.0,0.0,0.0,-0.4787,-0.5342,-0.6294,-0.8077,-0.9247,-0.9609,-0.8967,-0.9643,0.0,0.0,-0.8796,-0.9128,-1.0631,-1.1779,-1.3917,-1.7238,-1.9333,-2.0827,-2.1812,-2.2784,-2.3252,-2.3179,-2.3774,-2.228,-1.9287,-1.9451,-1.9343,-1.8973,0.0,0.0,0.0,0.0,0.0,0.0,0.0,0.0,0.0,0.0,0.0,0.0,0.0,0.0,0.0,0.0,0.0,0.0,0.0,0.0,0.0,0.0,0.0,0.0,0.0,0.0,0.0,0.0,0.0,0.0,0.0,0.0,0.0,0.0,0.0,0.0,0.0,-1.8944,-1.9282,-1.9343,-1.9026,-1.8644,0.0,0.0,0.0,0.0,0.0,0.0,-1.837,-1.7977,-1.7877,-1.8103,-1.844,-1.8676,-1.8799,-1.9131,-1.9419,-1.9766,-1.9766,-1.9899,-2.0082,-2.0229,-2.0293,-2.0199,-2.0429,-2.078,-2.1056,-2.0293,-2.0088,-2.0262,-2.0042,-1.9905,-1.9905,-1.9895,-1.9979,-2.0126,0.0,0.0,0.0,0.0,0.0,0.0,0.0,0.0,0.0,0.0,0.0,-0.5194,-0.7007,-0.776,-0.8872,-1.0732,-1.1432,-1.183,-1.1974,-1.1133,-1.0705,-1.092,-0.9945,-1.0417,-1.253,-1.6396,-1.8766,-1.9526,-2.1357,-2.2209,-2.2131,-2.3534,-2.4213,-2.4253,-2.4741,-2.4315,-2.3357,-2.389,-2.3651,-2.2765,-2.1299,0.0,0.0,0.0,0.0,0.0,0.0,0.0,0.0,0.0,0.0,0.0,0.0,0.0,0.0,0.0,0.0,0.0,0.0,0.0,0.0,0.0,0.0,0.0,0.0,0.0,0.0,0.0,0.0,0.0,0.0,0.0,0.0,0.0,0.0,0.0,0.0,0.0,0.0,-2.0531,-2.1106,0.0,0.0,0.0,0.0,-1.9267,-1.8757,-1.8506,-1.8402,-1.836,-1.8605,-1.9209,-1.9238,-1.9258,-1.9248,-1.9277,-1.9556,-2.0173,-2.0173,-2.0627,-2.1364,-2.1441,-2.1517,-2.1659,-2.1517,-2.1527,-2.1735,-2.1195,-2.1192,-2.1441,-2.1364,-2.1288,-2.1135,-2.1288,-2.1364,-2.1441,0.0,0.0,0.0,0.0,0.0,0.0,0.0,0.0,0.0,-0.5534,-0.6257,-0.7405,-0.9188,-1.0261,-1.1569,-1.3521,-1.4157,-1.4338,-1.4223,-1.3987,-1.3563,-1.2845,-1.2373,-1.3249,-1.5641,-1.8648,-2.063,-2.1498,-2.3306,-2.4276,-2.4388,-2.5425,-2.5701,-2.537,-2.5934,-2.5756,-2.5077,-2.53,-2.5078,-2.452,-2.3932,-2.2833,0.0,0.0,0.0,0.0,0.0,0.0,0.0,0.0,0.0,0.0,0.0,0.0,0.0,0.0,0.0,0.0,0.0,0.0,0.0,0.0,0.0,0.0,0.0,0.0,0.0,0.0,0.0,0.0,0.0,0.0,0.0,0.0,0.0,0.0,0.0,0.0,0.0,-2.1101,-2.1577,0.0,-2.0655,-2.1305,-2.1095,-1.9458,-2.0002,-2.0056,-1.9196,-1.9687,-2.0103,-2.0471,-2.1182,-2.1618,-2.1618,-2.1418,-2.1426,-2.1593,-2.1095,-2.1253,-2.208,-2.222,-2.2596,-2.3095,-2.3169,-2.3169,-2.3243,-2.3128,-2.2519,-2.1655,-2.1655,-2.1655,-2.1578,-2.1655,-2.1655,-2.1731,0.0,0.0,0.0,0.0,0.0,0.0,0.0,0.0,0.0,-0.6859,-0.8023,-0.9413,-1.1174,-1.2346,-1.3714,-1.538,-1.5871,-1.5985,-1.5668,-1.5702,-1.5377,-1.4613,-1.5399,-1.6589,-1.8254,-2.0806,-2.2346,-2.2885,-2.448,-2.5314,-2.53,-2.619,-2.6433,-2.6042,-2.6553,-2.6568,-2.6233,-2.6233,-2.6068,-2.5781,-2.5479,-2.4565,-2.3321,0.0,0.0,0.0,0.0,0.0,0.0,0.0,0.0,0.0,0.0,0.0,0.0,0.0,0.0,0.0,0.0,0.0,0.0,0.0,0.0,0.0,0.0,0.0,0.0,0.0,0.0,0.0,0.0,0.0,0.0,0.0,0.0,0.0,0.0,0.0,-2.1624,-2.1545,-2.2025,-2.2084,-2.1464,-2.2421,-2.2422,-2.082,-2.1594,-2.1721,-2.0761,-2.1129,-2.1549,-2.1925,-2.2435,-2.2797,-2.2797,-2.2451,-2.2247,-2.232,-2.1829,-2.1829,-2.2466,-2.2776,-2.3134,-2.3652,-2.3967,-2.4108,-2.4108,-2.4108,-2.3463,-2.2606,-2.2606,-2.2241,-2.1873,-2.2381,-2.2241,-2.1807,0.0,0.0,0.0,0.0,0.0,0.0,0.0,0.0,-0.744,-0.8416,-0.9693,-1.1115,-1.2952,-1.4118,-1.5187,-1.6244,-1.6652,-1.6719,-1.6379,-1.6187,-1.6127,-1.6337,-1.8874,-2.0217,-2.0084,-2.2841,-2.4047,-2.3636,-2.4892,-2.5244,-2.4794,-2.5837,-2.6351,-2.6351,-2.6659,-2.6779,-2.6832,-2.6832,-2.6832,-2.6779,-2.5974,-2.5232,-2.4603,0.0,0.0,0.0,0.0,0.0,0.0,0.0,0.0,0.0,0.0,0.0,0.0,0.0,0.0,0.0,0.0,0.0,0.0,0.0,0.0,0.0,0.0,0.0,0.0,0.0,0.0,0.0,0.0,0.0,0.0,0.0,0.0,0.0,-2.1474,-2.1726,-2.1902,-2.1824,-2.2633,-2.3159,-2.3097,-2.3803,-2.4049,-2.3349,-2.3349,-2.3222,-2.2917,-2.2715,-2.2916,-2.3458,-2.2878,-2.2573,-2.2786,-2.2257,-2.2103,-2.2309,-2.224,-2.2377,-2.2605,-2.3097,-2.3385,-2.3408,-2.3973,-2.4192,-2.4192,-2.4192,-2.4192,-2.412,-2.4108,-2.318,-2.2014,-2.3537,-2.318,-2.1883,0.0,0.0,0.0,0.0,0.0,0.0,0.0,-0.6899,-0.7783,-0.9818,-1.0967,-1.2381,-1.4552,-1.58,-1.68,-1.7534,-1.749,-1.7545,-1.7726,-1.781,-1.8169,-1.9055,-2.0764,-2.1789,-2.1861,-2.3449,-2.4337,-2.4381,-2.5328,-2.5825,-2.5837,-2.6418,-2.6659,-2.6659,-2.6779,-2.6937,-2.7248,-2.7248,-2.7473,-2.7815,-2.7188,-2.6534,-2.5929,0.0,0.0,0.0,0.0,0.0,0.0,0.0,0.0,0.0,0.0,0.0,0.0,0.0,0.0,0.0,0.0,0.0,0.0,0.0,0.0,0.0,0.0,0.0,0.0,0.0,0.0,0.0,0.0,0.0,0.0,0.0,-2.2888,-2.3147,-2.2432,-2.279,-2.3262,-2.3733,-2.4079,-2.4205,-2.4132,-2.4578,-2.4597,-2.38,-2.3743,-2.3514,-2.2999,-2.3075,-2.3222,-2.3567,-2.435,-2.4742,-2.4822,-2.4515,-2.4366,-2.4436,-2.3849,-2.392,-2.4518,-2.4661,-2.5083,-2.5652,-2.5812,-2.5873,-2.5873,-2.5873,-2.5511,-2.4933,-2.4337,-2.3829,-2.3537,-2.3975,-2.3829,-2.3463,0.0,0.0,0.0,0.0,0.0,0.0,0.0,-0.7302,-0.823,-1.0761,-1.1835,-1.3234,-1.5563,-1.6743,-1.76,-1.8038,-1.8311,-1.8452,-1.8566,-1.9252,-1.9959,-2.0818,-2.2307,-2.317,-2.3289,-2.415,-2.4637,-2.4808,-2.5453,-2.5839,-2.6136,-2.6433,-2.6765,-2.7041,-2.7041,-2.7284,-2.761,-2.761,-2.783,-2.8094,-2.7745,-2.7479,-2.7217,-2.6997,-2.6553,-2.5994,-2.5941,-2.6048,-2.6126,-2.5384,0.0,0.0,0.0,0.0,0.0,0.0,0.0,0.0,0.0,0.0,0.0,0.0,0.0,0.0,0.0,0.0,0.0,0.0,0.0,0.0,0.0,0.0,0.0,0.0,-2.3725,-2.403,-2.3867,-2.3891,-2.4223,-2.4953,-2.4962,-2.5062,-2.5365,-2.5306,-2.5142,-2.4631,-2.4631,-2.4482,-2.4127,-2.4342,-2.459,-2.4792,-2.5215,-2.5532,-2.5598,-2.5296,-2.5074,-2.5074,-2.4638,-2.4638,-2.5086,-2.5294,-2.5667,-2.6113,-2.642,-2.6533,-2.6533,-2.6533,-2.6245,0.0,0.0,0.0,0.0,0.0,-2.4337,-2.4564,0.0,0.0,0.0,0.0,0.0,0.0,0.0,-0.7777,-0.8877,-1.147,-1.2517,-1.3901,-1.6167,-1.7268,-1.7941,-1.8201,-1.8931,-1.9394,-1.9295,-2.0534,-2.1545,-2.1959,-2.3528,-2.4408,-2.4408,-2.4765,-2.5005,-2.5118,-2.5425,-2.5743,-2.6042,-2.6336,-2.6826,-2.7437,-2.7437,-2.766,-2.7963,-2.7963,-2.7997,-2.8094,-2.8061,-2.8094,-2.824,-2.7997,-2.762,-2.7172,-2.7172,-2.7172,-2.7121,-2.6404,0.0,0.0,0.0,0.0,0.0,0.0,0.0,0.0,0.0,0.0,0.0,0.0,0.0,0.0,0.0,0.0,0.0,0.0,0.0,0.0,0.0,0.0,0.0,0.0,-2.4382,-2.4764,-2.5436,-2.5062,-2.4953,-2.5548,-2.5465,-2.5652,-2.6239,-2.5862,-2.5598,-2.5598,-2.5598,-2.5598,-2.5598,0.0,0.0,0.0,0.0,-2.5598,-2.5787,-2.5398,-2.5197,-2.5197,-2.5197,-2.5197,-2.5209,-2.5661,-2.5875,-2.59,-2.6352,-2.6622,-2.6622,-2.6546,-2.6533,-2.6521,-2.6533,-2.5652,-2.4409,-2.4409,-2.485,-2.537,0.0,0.0,0.0,0.0,0.0,0.0,0.0,-0.8522,-0.9603,-1.2048,-1.3433,-1.4936,-1.6845,-1.8038,-1.8774,-1.8827,-1.9371,-2.0197,-2.1378,-2.1935,-2.2655,-2.3735,-2.4469,-2.4892,-2.4892,-2.4948,-2.523,-2.5729,-2.6096,-2.6549,-2.7041,-2.7399,-2.7665,-2.7815,-2.7815,-2.8027,-2.8367,-2.8367,-2.8701,-2.9182,-2.8951,-2.8511,-2.7947,-2.7898,-2.8046,-2.8192,-2.8192,-2.84,-2.8606,-2.7883,-2.7735,-2.7735,-2.7049,-2.6462,0.0,0.0,0.0,0.0,0.0,0.0,0.0,0.0,0.0,0.0,0.0,0.0,0.0,0.0,0.0,0.0,0.0,0.0,0.0,-2.5907,-2.6101,-2.6108,-2.6276,-2.5812,-2.5419,-2.5586,-2.5598,-2.5485,-2.5172,-2.541,-2.5598,-2.5598,-2.5598,-2.5598,-2.5598,-2.5699,-2.5762,-2.5762,-2.654,-2.6954,-2.6954,-2.7293,-2.7469,-2.7469,0.0,0.0,-2.7482,-2.7582,-2.762,-2.7607,-2.7268,-2.713,-2.708,-2.671,-2.6589,-2.6658,-2.6521,-2.6371,-2.6208,-2.6208,-2.6427,-2.6658,0.0,0.0,0.0,0.0,0.0,0.0,0.0,-0.8792,-0.9748,-1.1721,-1.2901,-1.4255,-1.6213,-1.718,-1.7863,-1.8159,-1.9116,-2.0193,-2.1497,-2.2369,-2.3302,-2.4139,-2.473,-2.5005,-2.5005,-2.5286,-2.5619,-2.5893,-2.6457,-2.6901,-2.7297,-2.755,-2.7864,-2.8207,-2.8207,-2.8415,-2.8826,-2.8826,-2.9059,-2.9486,-2.9213,-2.8967,-2.8685,-2.8559,-2.8622,-2.8826,-2.8826,-2.892,-2.9029,-2.8716,-2.8574,-2.8527,-2.8207,-2.7735,-2.7108,0.0,0.0,0.0,0.0,0.0,0.0,0.0,0.0,0.0,0.0,0.0,0.0,0.0,0.0,-2.5465,-2.574,0.0,-2.6668,-2.7005,-2.7015,-2.7005,-2.7052,-2.6483,-2.5925,-2.5636,-2.5598,-2.5485,-2.5234,-2.5435,-2.5598,-2.5598,-2.5862,-2.6025,-2.6025,-2.6553,-2.6854,-2.6854,-2.7394,-2.7695,-2.7695,-2.7971,-2.8109,-2.8109,-2.8109,-2.8109,-2.8109,-2.8109,-2.8109,-2.8097,-2.7952,-2.7754,-2.767,-2.7536,-2.7551,-2.7704,-2.7634,-2.729,-2.6875,-2.6726,-2.6807,-2.7024,0.0,0.0,0.0,0.0,0.0,0.0,0.0,0.0,-0.9787,-1.1287,-1.2287,-1.3579,-1.5419,-1.6167,-1.6888,-1.7679,-1.8838,-1.9982,-2.1076,-2.2532,-2.3605,-2.4068,-2.4693,-2.5061,-2.5174,-2.5674,-2.6002,-2.6258,-2.6797,-2.7246,-2.76,-2.7765,-2.811,-2.8622,-2.8622,-2.8826,-2.9075,-2.9075,-2.9213,-2.938,-2.9167,-2.9213,-2.938,-2.9167,-2.9075,-2.9075,-2.9075,-2.9075,-2.9075,-2.9075,-2.9075,-2.9075,-2.9075,-2.8732,-2.8198,-2.7603,-2.6659,0.0,0.0,0.0,0.0,0.0,0.0,0.0,0.0,-2.618,-2.6322,-2.6492,-2.7131,-2.7538,-2.7219,-2.7762,-2.8182,-2.7934,-2.7802,-2.7643,-2.7578,-2.7118,-2.6506,-2.5902,-2.5665,-2.5548,-2.546,-2.5636,-2.5762,-2.5762,-2.6402,-2.6779,-2.6779,-2.772,-2.826,-2.826,-2.8373,-2.8436,-2.8436,-2.8436,-2.8436,-2.8436,-2.8436,-2.8436,-2.8436,-2.8436,-2.8436,-2.8497,-2.8591,-2.8489,-2.8255,-2.846,-2.8605,-2.8762,-2.8762,-2.8209,-2.7413,-2.725,-2.7263,-2.7413,0.0,0.0,0.0,0.0,0.0,0.0,0.0,0.0,0.0,-1.1294,-1.2948,-1.4464,-1.5661,-1.6348,-1.7309,-1.8792,-1.9317,-2.0207,-2.1712,-2.2683,-2.346,-2.4041,-2.4693,-2.523,-2.5784,-2.5893,-2.6404,-2.7479,-2.7715,-2.811,-2.8701,-2.8873,-2.8967,-2.9029,-2.9029,-2.9075,-2.9075,-2.9075,-2.9121,-2.9121,-2.9121,-2.9121,-2.9121,-2.9121,-2.9075,-2.9075,-2.9075,-2.9075,-2.9075,-2.9075,-2.9075,-2.9075,-2.9075,-2.9029,-2.8857,-2.8137,-2.7808,-2.7336,-2.5774,-2.5482,-2.599,-2.7061,-2.7801,-2.834,0.0,-2.8457,-2.8643,-2.8333,-2.8309,-2.8556,-2.9156,-2.8826,-2.8634,-2.9296,-2.8826,-2.8155,-2.7578,-2.7557,-2.7314,-2.6634,-2.5983,-2.541,-2.4958,-2.5787,-2.6433,-2.6433,-2.7331,-2.7921,-2.7921,-2.8499,-2.8837,-2.8837,-2.934,-2.9603,-2.9603,-2.9603,-2.9603,-2.9603,-2.9603,-2.9603,-2.9603,-2.9603,-2.968,-2.9859,-2.9502,-2.9078,-2.8618,-2.8821,-2.8964,-2.8964,-2.8964,-2.897,-2.9008,-2.8853,-2.8853,-2.9008,0.0,0.0,0.0,0.0,0.0,0.0,0.0,0.0,0.0,0.0,-1.2297,-1.3545,-1.4737,-1.5738,-1.6736,-1.779,-1.8744,-1.9775,-2.0932,-2.2512,-2.3605,-2.4096,-2.4693,-2.5286,-2.5893,-2.619,-2.6745,-2.7565,-2.8155,-2.8558,-2.8858,-2.9045,-2.9075,-2.9075,-2.9075,-2.9075,-2.9075,-2.9075,-2.9213,-2.9305,-2.9167,-2.9213,-2.9305,-2.9167,-2.9075,-2.9138,-2.9296,-2.934,0.0,-2.934,-2.9425,-2.9524,-2.9368,-2.9425,-2.9404,-2.8521,-2.7983,-2.7569,-2.6972,-2.7417,-2.8188,-2.8862,-2.9256,-2.9515,-2.9454,-2.9605,-2.9713,-2.9732,-2.9732,-2.967,-2.9623,-2.967,-2.967,-2.9608,-2.9359,-2.9032,-2.8747,-2.8387,-2.8067,-2.7865,-2.7407,-2.6938,-2.6451,-2.6739,-2.7067,-2.7394,-2.8147,-2.8586,-2.8586,-2.9126,-2.9428,-2.9428,-2.9666,-2.9792,-2.9792,-2.9792,-2.9792,-2.9792,-2.9792,-2.9869,-2.9934,-2.9934,-3.0164,-3.0444,-3.0125,-3.0031,-3.0047,-2.9973,-3.0047,-3.0181,-3.0181,-3.0194,-3.0189,-2.9353,-2.9119,-2.9274,0.0,0.0,0.0,0.0,0.0,0.0,0.0,0.0,0.0,0.0,0.0,-1.2728,-1.4145,-1.54,-1.64,-1.6955,-1.812,-1.9275,-2.0223,-2.2217,-2.3502,-2.3959,-2.4655,-2.5329,-2.5893,-2.6496,-2.7041,-2.7565,-2.8365,-2.8794,-2.8826,-2.8998,-2.9075,-2.9075,-2.9075,-2.9075,-2.9075,-2.9075,-2.9213,-2.938,-2.9167,-2.9213,-2.9396,-2.9167,-2.9155,-2.9249,-2.9443,-2.935,-2.92,-2.948,-2.9553,-2.9537,-2.9608,-2.9568,-2.9391,-2.8604,-2.7931,-2.7469,-2.8023,-2.874,-2.9526,-3.0097,-3.0233,-3.0233,-3.0233,-3.0233,-3.028,-3.0582,-3.0568,-3.0447,-2.9993,-3.0251,-3.0447,-2.9931,-2.987,-2.9836,-2.9633,-2.9313,-2.9053,-2.8881,-2.8906,-2.8826,-2.8572,-2.8283,-2.8257,-2.8591,-2.9124,-2.9365,-2.9164,-2.9566,-2.9792,-2.9792,-2.9792,-2.9792,-2.9792,-2.9792,-2.9792,-2.9792,-2.9792,-2.9869,-3.0011,-3.0152,-3.0381,-3.0698,-3.0596,-3.0748,-3.0986,-3.0849,-3.0836,-3.0986,-3.0986,-3.0986,-3.0882,-2.9887,-2.966,-2.9745,0.0,0.0,0.0,0.0,0.0,0.0,0.0,0.0,0.0,0.0,0.0,0.0,0.0,-1.5662,-1.6534,-1.6955,-1.7929,-1.8927,-1.9876,-2.169,-2.3009,-2.3592,-2.4695,-2.5459,-2.5879,-2.6654,-2.7276,-2.768,-2.8429,-2.8811,-2.8904,-2.9029,-2.9075,-2.9075,-2.9075,-2.9075,-2.9075,-2.9075,-2.9121,-2.9121,-2.9075,-2.9121,-2.9121,-2.9075,-2.9264,-2.95,-2.9481,-2.8936,-2.8383,-2.9531,-2.9282,-2.8715,-2.9597,-2.9282,-2.8537,-2.8398,-2.7722,-2.7245,-2.8441,-2.8789,-2.9121,-3.0312,-3.0568,-3.0568,-3.0568,-3.0568,-3.0568,-3.0568,-3.0568,-3.0568,-3.0568,-3.0568,-3.0568,-3.0568,-3.0568,-3.0372,-2.9656,-3.0115,-3.0312,-2.9656,-3.008,-3.0634,0.0,-3.0449,-3.0045,-3.0059,-3.0555,-3.0519,-2.9844,-2.9779,-2.9792,-2.9792,-2.9792,-2.9792,-2.9792,-2.9792,-2.9792,-2.9792,-2.9792,-2.9792,-2.9792,-3.0228,-3.052,-3.0698,-3.0911,-3.0986,-3.0986,-3.0986,-3.0986,-3.0986,-3.0986,-3.0986,-3.0986,-3.0947,-3.0934,-3.0934,0.0,0.0,0.0,0.0,0.0,0.0,0.0,0.0,0.0,0.0,0.0,0.0,0.0,0.0,0.0,0.0,-1.7786,-1.8584,-1.949,-2.1169,-2.2559,-2.364,-2.4368,-2.5286,-2.6428,-2.6692,-2.7108,-2.7565,-2.8317,-2.8732,-2.8826,-2.8936,-2.9013,-2.9075,-2.9075,-2.9075,-2.9075,-2.9075,-2.9075,-2.9075,-2.9075,-2.9075,-2.9075,-2.8826,-2.8666,-2.8583,0.0,-2.8589,-2.8684,-2.8567,-2.8372,-2.8209,-2.8485,-2.8386,-2.8146,-2.7857,-2.7578,-2.755,-2.8532,-2.9198,-2.9837,-3.0447,-3.0568,-3.0568,-3.0568,-3.0401,-3.0341,-3.0582,-3.028,-2.9974,-3.0233,-3.0294,-3.0294,-3.0294,-3.0462,-3.0507,-3.0312,-3.0447,-3.0667,-3.0826,-3.097,-3.1462,0.0,0.0,0.0,-3.1401,-3.1088,-3.0833,-3.0545,-3.0545,-3.0279,-2.9792,-3.0266,-3.0266,-2.9792,-2.9792,-2.9792,-2.9792,-2.9934,-3.0075,-3.0228,-3.0457,-3.0685,-3.0911,-3.0986,-3.0986,-3.0986,-3.0986,-3.0986,-3.0986,-3.0986,-3.0986,-3.0986,-3.0986,-3.0986,-3.0986,0.0,0.0,0.0,0.0,0.0,0.0,0.0,0.0,0.0,0.0,0.0,0.0,0.0,0.0,0.0,0.0,0.0,-1.8197,-1.9438,-2.0553,-2.1739,-2.2988,-2.376,-2.4512,-2.5364,-2.6019,-2.6505,-2.6805,-2.7879,-2.8462,-2.8684,-2.8889,-2.9013,-2.9075,-2.9075,-2.9075,-2.9075,-2.9075,-2.9075,-2.9075,-2.892,-2.8873,-2.8811,-2.8128,-2.7821,0.0,-2.7032,-2.7134,-2.7618,-2.7871,-2.7846,-2.7657,-2.8017,-2.7975,-2.7855,-2.7736,-2.7749,-2.7947,-2.8789,-2.9526,-3.0172,-3.0522,-3.0568,-3.0568,-3.0568,-3.0462,-3.0341,-3.0582,-3.0158,-2.9803,-2.9789,-2.9974,-3.005,-2.9851,-3.0266,-3.0568,-3.0568,-3.0568,-3.08,-3.1438,-3.1632,-3.2197,-3.3398,-3.2812,0.0,-3.2478,-3.1988,-3.1623,-3.1328,-3.1341,-3.1132,-3.0659,-3.0833,-3.0833,-3.0659,-3.0075,-2.9792,-2.9792,-3.0011,-3.0228,-3.0444,-3.0609,-3.0849,-3.0986,-3.0986,-3.0986,-3.0986,-3.0986,-3.0986,-3.0986,-3.0986,-3.0986,-3.0986,-3.0986,-3.0986,-3.0986,0.0,0.0,0.0,0.0,0.0,0.0,0.0,0.0,0.0,0.0,0.0,0.0,0.0,0.0,0.0,0.0,0.0,0.0,-1.9453,-1.9902,-2.0628,-2.1821,-2.2858,-2.3284,-2.2989,-2.4792,-2.563,-2.5521,-2.7034,-2.7963,-2.8301,-2.8779,-2.9029,-2.9029,-2.9029,-2.9029,-2.9029,-2.9029,-2.9029,-2.9029,-2.8559,-2.8415,-2.8304,-2.7172,-2.6876,-2.689,-2.5242,-2.4877,-2.5384,-2.7417,-2.7564,-2.7124,-2.8168,-2.8117,-2.7736,-2.7986,-2.8208,-2.8481,-2.917,-2.9699,-3.0172,-3.0522,-3.0568,-3.0568,-3.0568,-3.0582,-3.0568,-3.0568,-3.028,-2.9851,-2.9373,-2.9713,-2.9851,-2.9373,-3.0068,-3.0568,-3.0568,-3.0568,-3.0829,-3.1496,-3.2135,-3.2788,-3.3456,-3.4051,0.0,-3.3297,0.0,-3.2861,-3.2218,-3.2146,-3.2146,-3.2074,-3.1415,-3.1341,-3.2074,-3.0646,-2.9934,-2.9934,-3.0075,-3.0292,-3.0432,-3.0609,-3.0773,-3.0986,-3.0986,-3.0986,-3.0986,-3.0986,-3.0986,-3.0986,-3.0986,-3.0986,-3.0986,-3.0986,-3.0986,-3.0986,0.0,0.0,0.0,0.0,0.0,0.0,0.0,0.0,0.0,0.0,0.0,0.0,0.0,0.0,0.0,0.0,0.0,0.0,-1.7829,-1.9077,-2.0258,-2.1251,-2.194,-2.2587,-2.3204,-2.4001,-2.4354,-2.4354,-2.5528,-2.6448,-2.7049,-2.7333,-2.7715,-2.8207,-2.8207,-2.8207,-2.8207,-2.8207,-2.8207,-2.8158,-2.7505,-2.7455,-2.76,-2.6115,-2.5618,-2.5661,-2.4614,-2.461,-2.524,-2.631,-2.7157,-2.792,-2.8051,-2.8051,-2.7986,-2.8454,-2.8789,-2.9184,-2.9713,-3.0158,-3.0522,-3.0582,-3.0568,-3.0568,-3.0568,-3.0401,-3.0233,-3.0233,-2.9449,-2.8817,-2.9085,-2.9135,-2.9198,-2.9463,-3.0144,-3.0568,-3.0568,-3.0568,-3.0988,-3.2135,-3.2425,-3.2948,-3.4066,-3.4312,0.0,0.0,-3.352,-3.3143,-3.2932,-3.2932,-3.2648,-3.2146,-3.242,-3.242,-3.2074,-3.1842,-3.1623,-3.1516,-3.1132,-3.0983,-3.122,-3.0735,-3.0672,-3.0986,-3.0986,-3.0986,-3.0986,-3.0986,-3.0986,-3.0986,-3.0986,-3.0986,-3.0986,-3.0986,-3.0986,-3.0986,0.0,0.0,0.0,0.0,0.0,0.0,0.0,0.0,0.0,0.0,0.0,0.0,0.0,0.0,0.0,0.0,0.0,0.0,0.0,-1.8703,-1.9626,-2.0188,-2.0964,-2.1577,-2.2023,-2.2722,-2.3067,-2.3163,-2.4382,-2.5252,-2.5783,-2.628,-2.6776,-2.7121,-2.7121,-2.7121,-2.7121,-2.7405,-2.752,0.0,0.0,-2.7027,-2.6791,-2.537,-2.4644,-2.4297,-2.3548,-2.4131,-2.5289,-2.5752,-2.6844,-2.7934,-2.8112,-2.8302,-2.8597,-2.9373,-2.9637,-2.9775,-3.0219,-3.0462,-3.0568,-3.0568,-3.0568,-3.0582,-3.0401,-3.0021,-2.9713,-2.9588,-2.8675,-2.8026,-2.8352,-2.861,-2.8931,-2.9198,-3.0021,-3.0568,-3.0568,-3.0568,-3.1061,-3.2367,-3.2513,-3.3021,-3.4298,-3.4414,-3.4414,0.0,-3.3962,-3.3742,-3.3742,-3.3742,-3.3534,-3.3101,-3.3157,-3.2861,-3.2074,-3.2492,-3.2492,-3.2074,-3.1942,-3.1942,-3.2028,-3.1723,-3.1736,-3.1969,0.0,-3.175,-3.1468,-3.1468,-3.1259,-3.0986,-3.0986,-3.0986,-3.0986,-3.0986,-3.0986,-3.0986,0.0,0.0,0.0,0.0,0.0,0.0,0.0,0.0,0.0,0.0,0.0,0.0,0.0,0.0,0.0,0.0,0.0,0.0,0.0,0.0,-1.8881,-1.8881,-1.9916,-2.0378,-2.0217,-2.1255,-2.1809,-2.1825,-2.3245,-2.4054,-2.4346,-2.525,-2.5745,-2.5813,-2.5884,-2.5926,-2.5926,-2.6471,-2.6695,-2.6709,-2.6967,-2.6573,-2.5807,0.0,-2.3891,-2.3148,-2.2592,-2.3583,-2.5333,-2.5594,-2.6598,-2.7852,-2.8335,-2.8814,-2.9366,-3.0297,-3.0401,-3.0233,-3.0507,-3.0568,-3.0568,-3.0568,-3.0568,-3.0522,-3.0172,-2.9713,-2.917,-2.8803,-2.7999,-2.7404,-2.7417,-2.8078,-2.8661,-2.8803,-2.9747,-3.0582,-3.0568,-3.0568,-3.1061,-3.2367,-3.2513,-3.3021,-3.4298,-3.4414,-3.4414,-3.4414,-3.4414,-3.4414,-3.4414,-3.4414,-3.4414,-3.4414,-3.3742,-3.3087,-3.2448,-3.3087,-3.3087,-3.2448,-3.269,-3.2832,-3.2903,-3.3087,-3.3143,-3.3213,-3.3213,-3.2861,-3.2218,-3.2218,-3.1882,-3.1259,-3.1259,-3.1259,-3.1272,-3.1198,-3.1123,-3.1123,0.0,0.0,0.0,0.0,0.0,0.0,0.0,0.0,0.0,0.0,-1.3407,-1.4417,0.0,0.0,0.0,0.0,0.0,0.0,0.0,0.0,0.0,-1.8267,-1.8899,-1.9291,-1.9238,-2.018,-2.0464,-2.0036,-2.1231,-2.2027,-2.2426,-2.3292,-2.3834,-2.4123,-2.4721,-2.4883,-2.4784,-2.5009,-2.512,-2.512,-2.5134,-2.498,-2.4553,-2.3774,0.0,0.0,-2.31,-2.378,-2.4731,-2.5382,-2.6905,-2.8627,-2.9203,-2.9448,-2.9649,-3.0422,-3.0582,-3.0522,-3.0568,-3.0568,-3.0568,-3.0568,-3.0568,-3.0522,-3.0172,-2.9713,-2.9107,-2.8481,-2.7524,-2.6841,-2.7027,-2.7417,-2.7934,-2.8661,-2.9588,-3.028,-3.0582,-3.0568,-3.1061,-3.2367,-3.2513,-3.3021,-3.4298,-3.4414,0.0,0.0,-3.4414,-3.4414,-3.4414,-3.4414,-3.4414,-3.4414,-3.4264,-3.4113,-3.3977,-3.4264,-3.4414,-3.4264,-3.3811,-3.3728,-3.3865,-3.3199,-3.3045,-3.3213,-3.3213,0.0,-3.3003,-3.3003,-3.2932,-3.2804,-3.2804,-3.2804,-3.272,-3.216,-3.1869,-3.1809,0.0,0.0,0.0,0.0,0.0,0.0,0.0,-1.1909,-1.2138,-1.2667,-1.3691,-1.4563,-1.5029,-1.5662,-1.6115,0.0,0.0,0.0,0.0,0.0,0.0,0.0,0.0,0.0,-1.8987,-1.9707,-1.9949,-1.9682,0.0,-2.1108,-2.1301,-2.1941,-2.2309,-2.2489,-2.3,-2.3199,-2.3212,-2.389,-2.4239,-2.4239,-2.4711,-2.4483,-2.3872,0.0,0.0,0.0,-2.2763,-2.3267,-2.3995,-2.4867,-2.6009,-2.727,-2.8322,-2.9087,-2.9682,-2.9987,-3.0321,-3.0568,-3.0568,-3.0568,-3.0568,-3.0568,-3.0568,-3.0462,-2.9988,-2.9184,-2.8454,-2.7762,-2.6947,-2.6402,-2.6564,-2.7284,-2.8078,-2.8468,-2.9401,-3.0172,-3.0355,-3.0736,-3.1424,-3.2396,-3.2817,-3.3383,-3.4327,-3.4414,-3.4549,-3.4802,-3.4534,-3.4414,-3.4414,-3.4414,-3.4414,-3.4414,-3.4414,-3.4414,-3.4414,-3.4481,-3.4549,-3.4549,-3.4332,-3.4385,-3.4505,-3.4206,-3.4206,-3.4438,-3.4438,0.0,-3.3768,-3.3768,-3.3561,-3.3213,-3.3213,-3.3213,-3.3143,-3.2791,-3.2648,-3.2577,0.0,0.0,0.0,0.0,0.0,0.0,0.0,-1.2325,-1.2609,-1.3112,-1.3882,-1.4545,-1.5017,-1.5466,-1.5877,0.0,0.0,0.0,0.0,0.0,0.0,0.0,0.0,0.0,0.0,0.0,0.0,-1.9436,-2.0157,0.0,0.0,0.0,0.0,0.0,-2.1461,-2.1636,-2.1731,-2.2888,-2.3398,0.0,0.0,-2.4208,0.0,0.0,0.0,0.0,0.0,-2.275,-2.342,-2.4168,-2.4811,-2.5536,-2.6663,-2.7995,-2.9276,-2.9552,-2.9972,-3.0393,-3.0539,-3.0568,-3.0568,-3.0568,-3.0582,-3.0341,-2.9727,-2.8725,-2.7736,-2.7095,-2.6496,-2.6025,-2.6164,-2.7229,-2.8091,-2.8287,-2.9261,-2.9988,-3.0111,-3.0888,-3.1772,-3.244,-3.3079,-3.3717,-3.4356,-3.4467,0.0,-3.5169,-3.492,-3.4601,-3.4414,-3.4534,-3.4534,-3.4534,-3.4534,-3.4534,-3.4534,-3.4481,-3.4414,-3.4481,-3.4683,-3.4817,-3.5001,-3.5148,-3.5294,-3.5439,-3.5439,0.0,0.0,-3.4528,-3.4192,-3.3713,-3.3713,-3.3713,-3.3644,-3.3492,-3.3422,-3.3353,0.0,0.0,0.0,0.0,0.0,0.0,0.0,-1.2735,-1.3112,-1.3208,-1.3604,-1.4062,-1.4534,-1.5216,-1.5877,0.0,0.0,0.0,0.0,0.0,0.0,0.0,0.0,0.0,0.0,0.0,0.0,-1.8255,-1.9223,0.0,0.0,0.0,0.0,0.0,0.0,-2.09,-2.0937,-2.1707,0.0,0.0,0.0,0.0,0.0,0.0,0.0,0.0,0.0,-2.2702,-2.3314,-2.342,-2.3936,-2.4641,-2.4751,-2.6218,-2.8074,-2.929,-2.9668,-2.9842,-3.0422,-3.0568,-3.0568,-3.0568,-3.0341,-3.005,-2.9665,-2.8532,-2.7417,-2.7095,-2.6139,-2.5523,-2.6094,-2.6701,-2.7364,-2.8157,-2.9085,-2.9741,-3.005,-3.0888,-3.1772,-3.244,-3.3079,-3.3717,-3.4356,-3.4854,-3.5169,-3.5169,-3.5544,-3.535,-3.4481,-3.4854,-3.5103,-3.5103,-3.5103,-3.5103,-3.5103,-3.4668,-3.4534,-3.4854,-3.4868,-3.5001,-3.5148,-3.5213,-3.5213,-3.5213,-3.5213,0.0,0.0,-3.5359,-3.5359,-3.5294,-3.5294,-3.5294,-3.5213,-3.4461,-3.4177,-3.4095,0.0,0.0,0.0,0.0,0.0,0.0,-1.2977,-1.3122,-1.3314,-1.3621,-1.3763,-1.3999,-1.4471,-1.4997,-1.5463,-1.5918,0.0,0.0,0.0,0.0,0.0,0.0,0.0,0.0,0.0,0.0,-1.8881,-1.8655,-1.9291,0.0,0.0,0.0,0.0,0.0,0.0,-2.0217,-2.0378,-2.1084,0.0,0.0,0.0,0.0,0.0,0.0,0.0,0.0,0.0,0.0,-2.2689,-2.3148,-2.3539,-2.3878,-2.4355,-2.5086,-2.6035,-2.7428,-2.8641,-2.9682,-2.9929,-3.0277,-3.0568,-3.0568,-3.0341,-2.9927,-2.9261,-2.8274,-2.7417,-2.7095,-2.6346,-2.6013,-2.6564,-2.7108,-2.7577,-2.7973,-2.8702,-2.9477,-2.9981,-3.1295,-3.2514,-3.3185,-3.4253,-3.5066,-3.5255,0.0,-3.5608,-3.5608,-3.6117,-3.607,-3.535,-3.5479,-3.5608,-3.5608,-3.5608,-3.5608,-3.5608,-3.5415,-3.5234,-3.5118,-3.5118,-3.5001,-3.4898,-3.5016,-3.5082,-3.5213,-3.5359,0.0,0.0,-3.5504,-3.5504,-3.5504,-3.5504,-3.5504,-3.5439,-3.5133,-3.5052,-3.4905,0.0,0.0,0.0,0.0,0.0,-1.2809,-1.3289,-1.3309,-1.3455,-1.3952,-1.3915,-1.3947,-1.4272,-1.4572,-1.4976,-1.5442,-1.639,0.0,0.0,0.0,0.0,0.0,0.0,0.0,0.0,0.0,-1.8429,-1.8441,-1.9028,-1.9186,0.0,0.0,-1.9117,-1.9023,0.0,0.0,0.0,0.0,0.0,0.0,0.0,0.0,0.0,0.0,0.0,0.0,0.0,0.0,0.0,0.0,0.0,-2.3088,-2.3669,-2.3949,-2.4461,-2.6002,-2.7512,-2.8828,-2.9333,-2.9885,-3.0335,-3.0524,-3.028,-2.9727,-2.8994,-2.8078,-2.7284,-2.704,-2.6564,-2.6427,-2.7108,-2.7577,-2.7842,-2.7987,-2.8638,-2.9301,-2.9909,-3.1539,-3.2932,-3.3608,-3.497,-3.5864,-3.5913,-3.6054,-3.618,-3.6368,-3.6708,-3.6769,-3.6368,-3.6368,-3.6305,-3.6117,-3.6117,-3.6117,-3.6117,-3.5976,-3.5785,-3.5494,-3.5494,-3.5379,-3.5133,-3.5299,-3.5479,-3.5623,-3.5668,0.0,0.0,-3.5554,-3.5504,-3.5504,-3.5504,-3.5504,-3.5504,-3.5504,-3.5504,-3.5424,0.0,0.0,0.0,0.0,0.0,0.0,-1.282,-1.3218,-1.3635,-1.3956,-1.402,-1.3973,-1.3821,-1.4094,-1.45,-1.4966,-1.5846,0.0,0.0,0.0,0.0,0.0,0.0,0.0,0.0,0.0,-1.7157,-1.7011,-1.8116,-1.8278,-1.7722,-1.8732,-1.9011,-1.8614,0.0,0.0,0.0,0.0,0.0,0.0,0.0,0.0,0.0,0.0,0.0,0.0,0.0,0.0,0.0,0.0,0.0,0.0,0.0,-2.2689,-2.3713,-2.554,-2.6367,-2.7002,-2.8724,-2.939,-2.9784,-3.0422,-3.0097,-2.9477,-2.8931,-2.7881,-2.6973,-2.6973,-2.6564,-2.6496,-2.7577,-2.7776,-2.7987,-2.8522,-2.8908,-2.9338,-2.9903,-3.1454,-3.2786,-3.3592,-3.4874,-3.5737,-3.5913,-3.6383,-3.6907,-3.7421,-3.748,0.0,-3.748,-3.748,-3.7225,-3.6723,-3.6723,-3.6723,-3.6723,-3.618,-3.5991,-3.6196,-3.6196,-3.6211,-3.6196,-3.6446,-3.66,-3.6554,0.0,0.0,0.0,-3.5733,-3.5504,-3.5504,-3.5504,-3.5504,-3.5504,-3.5504,-3.5504,-3.5504,0.0,0.0,0.0,0.0,0.0,0.0,0.0,-1.2872,-1.2882,-1.2889,-1.3075,-1.3162,-1.3108,-1.3779,-1.4275,-1.4424,-1.5342,0.0,0.0,0.0,0.0,0.0,0.0,0.0,0.0,0.0,-1.7202,-1.7157,-1.7722,-1.7941,-1.7843,-1.8333,-1.8614,-1.8614,-1.9158,-1.942,0.0,0.0,0.0,0.0,0.0,0.0,0.0,0.0,0.0,0.0,0.0,0.0,0.0,0.0,0.0,0.0,0.0,0.0,0.0,-2.3628,-2.4807,-2.5887,-2.6458,-2.7543,-2.8493,-2.8291,-2.8488,-2.8546,-2.7999,-2.7149,-2.6633,-2.7377,-2.6837,-2.6633,-2.8052,-2.8052,-2.7987,-2.8522,-2.8716,-2.9096,-3.0108,-3.1387,-3.2729,-3.4317,-3.5968,-3.6968,0.0,0.0,-3.7285,-3.748,-3.748,-3.748,-3.748,-3.748,-3.7421,-3.7225,-3.7225,-3.7225,-3.7225,-3.7089,-3.6831,-3.6523,-3.6523,-3.6321,-3.5991,-3.6243,-3.6399,0.0,0.0,0.0,0.0,-3.6196,-3.5846,-3.5504,-3.5504,-3.5504,-3.5504,-3.5504,-3.5504,-3.5504,0.0,0.0,0.0,0.0,0.0,0.0,0.0,-1.2412,-1.2351,-1.2436,-1.2595,-1.2669,-1.2669,-1.316,-1.3605,-1.3956,-1.4558,0.0,0.0,0.0,0.0,0.0,0.0,0.0,0.0,-1.674,-1.6832,-1.6765,-1.7213,-1.7335,-1.7224,-1.7843,-1.8116,-1.8104,-1.859,-1.8804,0.0,0.0,0.0,0.0,0.0,0.0,-2.0459,0.0,0.0,0.0,0.0,0.0,0.0,0.0,0.0,0.0,0.0,0.0,0.0,0.0,-2.3364,-2.4356,-2.5044,-2.6122,-2.7054,-2.7202,-2.7477,-2.7616,-2.7219,-2.6812,-2.6701,-2.7377,-2.7108,-2.7175,-2.8392,-2.8327,-2.8183,-2.8522,-2.8766,-2.9309,-3.0353,-3.1538,-3.3036,-3.514,-3.6667,0.0,0.0,-3.748,-3.748,-3.748,-3.748,-3.7583,-3.7786,-3.7786,-3.7786,-3.7786,-3.7583,-3.748,-3.748,-3.748,-3.7345,-3.6968,-3.6968,-3.6831,-3.6492,-3.6738,-3.6906,0.0,0.0,0.0,0.0,-3.6845,-3.6554,-3.6211,-3.591,-3.5861,-3.5797,-3.5554,-3.5504,-3.5504,0.0,0.0,0.0,0.0,0.0,0.0,0.0,-1.1879,-1.1999,-1.2446,-1.2468,-1.2425,-1.2425,-1.2373,-1.2652,-1.3481,0.0,0.0,0.0,0.0,0.0,0.0,0.0,0.0,-1.6384,-1.6384,-1.6306,-1.6114,-1.6673,-1.6673,-1.6171,-1.729,-1.7611,-1.7202,-1.7688,-1.7907,0.0,0.0,0.0,0.0,0.0,0.0,0.0,0.0,0.0,0.0,0.0,0.0,0.0,0.0,0.0,0.0,0.0,0.0,0.0,0.0,0.0,0.0,0.0,-2.5011,-2.5542,-2.6645,-2.6749,-2.6557,-2.6527,-2.6773,0.0,-2.704,-2.7443,-2.7987,-2.8522,-2.8651,-2.8651,-2.8587,-2.917,-2.9813,-3.06,-3.1989,-3.3689,-3.5969,-3.7006,0.0,-3.7642,-3.7642,-3.7642,-3.7642,-3.7642,-3.7844,-3.8351,-3.8334,-3.8334,-3.8334,-3.7886,-3.7583,-3.748,-3.748,-3.748,-3.748,-3.748,-3.748,-3.7539,-3.7727,-3.7886,0.0,0.0,0.0,0.0,-3.7546,-3.7429,-3.737,-3.6723,-3.643,-3.6305,-3.5797,-3.5569,-3.5504,0.0,0.0,0.0,0.0,0.0,0.0,0.0,0.0,0.0,0.0,-1.1647,-1.1779,-1.1943,-1.2117,-1.2451,0.0,0.0,0.0,0.0,0.0,0.0,0.0,0.0,0.0,-1.6384,-1.6384,-1.6374,-1.6316,-1.6353,-1.6353,-1.6363,-1.6909,-1.7168,-1.7056,-1.7644,-1.8027,0.0,0.0,0.0,0.0,0.0,0.0,0.0,0.0,0.0,0.0,-2.061,-2.1055,0.0,0.0,0.0,0.0,0.0,0.0,0.0,0.0,-2.2197,-2.2283,-2.2751,0.0,-2.4129,-2.4027,-2.4841,-2.5703,0.0,-2.6058,-2.6633,-2.7443,-2.7709,-2.7987,-2.8522,-2.8994,-2.917,-2.8651,-2.9546,-3.0375,-3.0659,-3.2996,-3.4996,-3.6059,-3.7311,-3.8311,-3.8772,-3.8827,-3.8827,-3.8827,-3.8827,-3.8882,-3.8974,-3.8974,-3.8974,-3.8974,-3.8882,-3.8399,-3.7539,-3.748,-3.748,-3.748,-3.748,-3.748,-3.748,-3.7583,-3.7685,0.0,0.0,0.0,-3.7943,-3.801,-3.7822,-3.737,-3.7251,-3.6845,-3.6368,-3.6258,-3.591,-3.5504,0.0,0.0,0.0,0.0,0.0,0.0,0.0,0.0,0.0,0.0,0.0,-1.1314,-1.1389,-1.1501,0.0,0.0,0.0,0.0,0.0,0.0,0.0,0.0,0.0,-1.6384,-1.6384,-1.6384,-1.6384,-1.6384,-1.6306,-1.6249,-1.6249,-1.6513,-1.656,-1.6524,-1.6775,-1.7268,-1.7886,0.0,0.0,0.0,-1.9275,0.0,0.0,0.0,0.0,0.0,-2.0101,-2.0418,0.0,-2.0935,-2.138,-2.1825,0.0,0.0,0.0,0.0,-2.2197,-2.2197,-2.2197,-2.2639,-2.3044,-2.2983,-2.366,-2.4472,-2.5232,-2.5635,-2.6194,-2.7524,-2.7776,-2.7987,-2.8522,-2.9184,-2.947,-2.9044,-3.0194,-3.1261,-3.1637,-3.3973,-3.5758,-3.6104,-3.7639,-3.8849,0.0,-3.9206,-3.9206,-3.9206,-3.9206,-3.9295,-3.9542,-3.9558,-3.9558,-3.9558,-3.9558,-3.9011,-3.7886,-3.7886,-3.7727,-3.748,-3.748,-3.748,-3.748,-3.748,-3.7626,0.0,0.0,0.0,-3.8343,-3.8623,-3.8551,-3.8254,-3.7953,-3.7589,-3.7175,-3.66,-3.6196,-3.5846,0.0,0.0,0.0,0.0,0.0,0.0,0.0,0.0,0.0,0.0,0.0,0.0,0.0,0.0,0.0,0.0,0.0,0.0,0.0,0.0,0.0,0.0,0.0,-1.6384,-1.6384,-1.6384,-1.6384,-1.6384,-1.6384,-1.6306,-1.6114,-1.6114,-1.6009,-1.5914,-1.574,-1.6343,-1.7435,-1.7435,-1.8159,-1.942,-1.9368,0.0,0.0,0.0,0.0,0.0,0.0,0.0,0.0,-2.0298,-2.0815,-2.1296,-2.1368,0.0,0.0,0.0,0.0,0.0,-2.2197,-2.2309,-2.2468,-2.2865,-2.311,-2.3594,-2.495,-2.5419,-2.6003,-2.7341,-2.7789,-2.8118,-2.8716,-2.9387,-2.9856,-2.969,-3.0925,-3.2145,-3.2827,-3.4675,-3.5974,-3.6141,-3.7863,0.0,-3.9454,-3.947,-3.947,-3.947,-3.947,-3.9662,-4.012,-4.012,-4.012,-4.012,-4.012,-3.9629,-3.8557,-3.8446,-3.8141,-3.7642,-3.7642,-3.7583,-3.748,-3.748,-3.7626,-3.7943,0.0,0.0,-3.8805,-3.9148,-3.9272,-3.9255,-3.8645,-3.8407,-3.8165,-3.7071,-3.6538,-3.6305,0.0,0.0,0.0,0.0,0.0,0.0,0.0,0.0,0.0,0.0,0.0,0.0,0.0,0.0,0.0,0.0,0.0,0.0,0.0,0.0,0.0,-1.5773,-1.6177,-1.6384,-1.6384,-1.6384,-1.6384,-1.6384,-1.6384,-1.6306,-1.6114,-1.6114,-1.6009,-1.5914,-1.574,-1.6457,-1.7667,-1.749,-1.8159,-1.9368,-1.9275,0.0,0.0,0.0,0.0,0.0,0.0,0.0,0.0,-1.9877,-2.0261,-2.0779,-2.126,0.0,0.0,0.0,0.0,0.0,-2.2197,-2.2641,-2.3113,-2.2947,-2.3566,-2.4265,-2.4493,-2.5639,-2.6751,-2.6972,-2.7784,-2.8702,-2.9512,-3.004,-3.045,-3.048,-3.1289,-3.2185,0.0,0.0,-3.5177,-3.6717,0.0,-3.8891,-4.0497,-4.0614,-4.0614,-4.0614,-4.0614,-4.0662,-4.0776,-4.0758,-4.0758,-4.0758,-4.0758,-4.0434,-3.9732,-3.9279,-3.8739,-3.8181,-3.8181,-3.7927,-3.748,-3.748,-3.7626,-3.7943,0.0,-3.8544,-3.8805,-3.9148,-3.9272,-3.9272,-3.9202,-3.8772,-3.8278,-3.8108,-3.7354,-3.6305,0.0,0.0,0.0,0.0,0.0,0.0,0.0,0.0,0.0,0.0,0.0,0.0,0.0,0.0,0.0,0.0,0.0,0.0,0.0,0.0,0.0,-1.5308,-1.6001,-1.6384,-1.6384,-1.6384,-1.6384,-1.6384,-1.6384,-1.6306,-1.6114,-1.6009,-1.5961,-1.5914,-1.5856,-1.656,-1.7809,-1.76,-1.8321,-1.946,0.0,0.0,0.0,0.0,0.0,0.0,0.0,0.0,0.0,0.0,-1.9763,-2.0314,-2.0511,0.0,0.0,0.0,0.0,0.0,-2.2197,-2.2932,-2.3669,-2.3518,-2.4007,-2.4636,-2.519,-2.5835,-2.658,-2.739,-2.7917,-2.8581,-2.9614,-3.0315,-3.1013,-3.1946,-3.2367,-3.2672,-3.3043,-3.4091,-3.5094,0.0,0.0,-3.894,-3.9802,-4.0487,-4.0888,-4.0888,-4.0888,-4.0888,-4.0888,-4.0888,-4.0888,-4.0888,-4.0888,-4.0776,-4.05,-4.0237,-3.9662,-3.8794,-3.8463,-3.8181,-3.7927,-3.7626,-3.7759,-3.8205,0.0,-3.8655,-3.9094,-3.9218,-3.9272,-3.9272,-3.9272,-3.9077,-3.8772,-3.8067,-3.7175,-3.6305,0.0,0.0,0.0,0.0,0.0,0.0,0.0,0.0,0.0,0.0,0.0,0.0,0.0,0.0,0.0,0.0,0.0,0.0,0.0,0.0,-1.4997,-1.4997,-1.5887,-1.6384,-1.6384,-1.6384,-1.6384,-1.6384,-1.6384,-1.6306,-1.6114,-1.5961,-1.5914,-1.5961,-1.5961,-1.6616,-1.7754,-1.76,-1.8201,-1.9186,0.0,0.0,0.0,0.0,0.0,0.0,0.0,0.0,0.0,0.0,0.0,0.0,0.0,0.0,0.0,-2.1391,-2.1692,-2.2029,-2.2211,-2.31,-2.4021,-2.4021,-2.4368,-2.4959,-2.5878,-2.61,-2.6503,-2.769,-2.82,-2.875,-2.9892,-3.0852,-3.1819,-3.3027,-3.315,-3.3096,-3.315,-3.4053,-3.4856,-3.5001,-3.6869,-3.8336,-3.8935,-3.9901,-4.0586,-4.0871,-4.0888,-4.0888,-4.0888,-4.0888,-4.0888,-4.0888,-4.0888,-4.0888,-4.0888,-4.0888,-4.0402,-3.9401,-3.8941,-3.8557,-3.8294,-3.7886,-3.7918,-3.8391,-3.8391,-3.8727,-3.9272,-3.9272,-3.9272,-3.9272,-3.9272,-3.9272,-3.9148,-3.801,-3.7191,-3.6554,0.0,0.0,0.0,0.0,0.0,0.0,0.0,0.0,0.0,0.0,0.0,0.0,0.0,0.0,0.0,0.0,0.0,0.0,0.0,0.0,-1.4997,-1.4997,-1.5887,-1.6384,-1.6384,-1.6384,-1.6384,-1.6384,-1.6384,-1.6306,-1.6114,-1.5961,-1.5961,-1.6114,-1.6114,-1.6492,-1.7257,-1.7112,-1.7457,-1.8061,-1.8278,0.0,0.0,0.0,0.0,0.0,0.0,0.0,0.0,0.0,0.0,0.0,0.0,0.0,-2.0149,-2.1267,-2.1535,-2.156,-2.2225,-2.316,-2.4021,-2.4021,-2.4694,-2.5494,-2.584,-2.6398,-2.6975,-2.7381,-2.8695,-3.0024,-3.0855,-3.2075,-3.2935,-3.2951,-3.3005,-3.315,-3.3256,0.0,-3.3857,-3.5056,-3.5373,-3.6421,-3.8753,-3.9103,-3.962,-4.0819,-4.0888,-4.0888,-4.0888,-4.0888,-4.0888,-4.0888,-4.0888,-4.0888,-4.0888,-4.0888,-4.0566,-3.9952,-3.9902,-3.9299,-3.8278,-3.8238,-3.827,-3.8391,-3.8391,-3.8727,-3.9272,-3.9272,-3.9272,-3.9272,-3.9272,-3.9272,-3.9202,-3.8479,-3.7822,-3.7251,0.0,0.0,0.0,0.0,0.0,0.0,0.0,0.0,0.0,0.0,0.0,0.0,0.0,0.0,0.0,0.0,0.0,0.0,0.0,-1.448,-1.4997,-1.4997,-1.5887,-1.6384,-1.6384,-1.6384,-1.6384,-1.6384,-1.6384,-1.6374,-1.6306,-1.6259,-1.6259,-1.6306,-1.6306,-1.6616,-1.7202,-1.7056,-1.7279,-1.7776,-1.7776,-1.771,0.0,0.0,0.0,0.0,0.0,0.0,0.0,0.0,-1.917,-1.9153,-1.9281,-1.9516,-1.998,-2.0855,-2.1257,-2.1632,-2.2855,-2.3741,-2.4355,-2.4654,-2.5356,-2.6042,-2.615,-2.6722,-2.7354,-2.7617,-2.8853,-3.0316,-3.1509,-3.254,-3.3203,-3.315,-3.3203,-3.3256,-3.3309,-3.3309,-3.3493,-3.3958,-3.4723,-3.5605,-3.6554,-3.8086,-3.9202,-3.9668,-4.0453,-4.0888,-4.0888,-4.0888,-4.0888,-4.0888,-4.0888,-4.0888,-4.0888,-4.0888,-4.0776,-4.0549,-4.017,-3.9783,-3.9368,-3.9011,-3.8882,-3.8898,-3.8898,-3.9023,-3.9272,-3.9272,-3.9272,-3.9272,-3.9272,-3.9272,-3.9218,-3.8535,-3.8165,-3.7822,0.0,0.0,0.0,0.0,0.0,0.0,0.0,0.0,0.0,0.0,0.0,0.0,0.0,0.0,0.0,0.0,0.0,0.0,-1.3589,-1.448,-1.4997,-1.4997,-1.5887,-1.6384,-1.6384,-1.6384,-1.6384,-1.6384,-1.6384,-1.6384,-1.6384,-1.6384,-1.6384,-1.6384,-1.6384,-1.6581,-1.6877,-1.6775,-1.6899,-1.7123,-1.7112,-1.7112,0.0,0.0,0.0,0.0,0.0,0.0,0.0,0.0,-1.8999,-1.9117,-1.9052,-1.9239,-1.9691,-2.0402,-2.1064,-2.1753,-2.3038,-2.405,-2.4811,-2.5119,-2.5687,-2.619,-2.6283,-2.6901,-2.7548,-2.7645,-2.8869,-3.0293,-3.1821,-3.2545,-3.304,0.0,-3.3256,-3.3309,-3.3309,-3.3309,-3.3309,-3.3309,-3.4074,-3.4739,-3.5156,-3.6787,-3.8019,-3.8563,-3.9426,-4.0092,-4.0491,-4.0509,-4.0629,-4.0871,-4.0888,-4.0888,-4.0888,-4.071,-4.071,-4.0871,-4.0269,-4.0003,-4.0003,-3.961,-3.9454,-3.9401,-3.9259,-3.9329,-3.9484,-3.9325,-3.9272,-3.9272,-3.9272,-3.9272,-3.9255,-3.8772,-3.8351,-3.7879,0.0,0.0,0.0,0.0,0.0,0.0,0.0,0.0,0.0,0.0,0.0,0.0,0.0,0.0,0.0,0.0,0.0,0.0,-1.3589,-1.448,-1.4997,-1.4997,-1.5887,-1.6384,-1.6384,-1.6384,-1.6384,-1.6384,-1.6384,-1.6384,-1.6384,-1.6384,-1.6384,-1.6384,-1.6384,-1.6306,-1.6114,-1.6114,-1.6009,-1.5914,-1.641,-1.6694,-1.6807,0.0,0.0,0.0,0.0,0.0,0.0,0.0,-1.8602,-1.8987,-1.8987,-1.8987,-1.9148,-1.9951,-2.0919,-2.1878,-2.2734,-2.4099,-2.5175,-2.5175,-2.5536,-2.6002,-2.6244,-2.6901,-2.7479,-2.7452,-2.8571,-3.0099,-3.171,-3.2147,-3.2451,-3.2986,-3.3203,-3.3309,-3.3309,-3.3309,-3.3309,-3.3309,-3.3309,-3.3825,-3.5056,-3.5172,-3.5908,-3.7638,-3.7784,-3.8329,-3.96,-3.9681,-4.0043,-4.0836,-4.0871,-4.0871,-4.0871,-4.0269,-4.0269,-4.0888,-4.0286,-4.0003,-4.0003,-4.0003,-3.9952,-3.9783,-3.9401,-3.9487,-3.9849,-3.9484,-3.9272,-3.9272,-3.9272,-3.9272,-3.9272,-3.9272,-3.8495,-3.7429,0.0,0.0,0.0,0.0,0.0,0.0,0.0,0.0,0.0,0.0,0.0,0.0,0.0,0.0,0.0,0.0,0.0,0.0,-1.361,-1.448,-1.4997,-1.4997,-1.5887,-1.6384,-1.6384,-1.6384,-1.6384,-1.6384,-1.6384,-1.6384,-1.6384,-1.6384,-1.6384,-1.6374,-1.6249,-1.6249,-1.6306,-1.6181,-1.6056,-1.6066,-1.6171,-1.6239,-1.6249,0.0,0.0,0.0,0.0,0.0,0.0,0.0,0.0,0.0,-1.8375,-1.8655,-1.9148,-1.9951,-2.06,-2.1368,-2.2734,-2.3973,-2.4924,-2.5287,-2.592,-2.65,-2.6351,-2.6692,-2.7343,-2.8312,-2.8875,-2.9679,-3.1482,-3.1836,-3.2175,-3.3077,-3.3256,-3.3309,-3.3309,-3.3309,-3.3309,-3.3309,-3.3309,-3.3425,-3.3841,-3.4691,-3.5407,-3.5908,-3.6804,-3.7484,-3.7866,-3.7883,-3.7984,-3.8219,-3.869,-3.8908,-3.8908,-3.9291,-3.9506,-3.9731,-3.9506,-3.9868,-4.0614,-4.0614,-4.0566,-4.0419,-4.002,-3.9867,-3.9849,-3.9484,-3.9272,-3.9272,-3.9272,-3.9272,-3.9272,-3.9272,-3.904,-3.8623,0.0,0.0,0.0,0.0,0.0,0.0,0.0,0.0,0.0,0.0,0.0,0.0,0.0,0.0,0.0,0.0,0.0,0.0,0.0,-1.4631,-1.5154,-1.506,-1.5988,-1.6431,-1.6384,-1.6384,-1.6384,-1.6384,-1.6384,-1.6384,-1.6384,-1.6384,-1.6384,-1.6374,-1.6249,-1.6239,-1.6249,-1.6171,-1.6056,-1.6009,-1.6009,-1.5961,-1.5914,0.0,0.0,0.0,0.0,0.0,0.0,0.0,0.0,0.0,-1.8038,-1.8375,-1.8923,-1.9897,-2.0766,-2.1637,-2.2847,-2.4142,-2.5217,-2.5522,-2.6218,-2.6727,-2.6525,-2.6683,-2.7189,-2.8308,-2.8465,-2.8873,-3.0683,-3.1155,0.0,-3.2855,-3.3187,-3.3309,-3.3309,-3.3309,-3.3309,-3.3309,-3.3309,-3.3309,-3.3309,-3.3973,-3.4526,-3.4732,-3.5462,-3.6141,-3.6638,-3.6638,-3.6771,-3.7103,-3.7468,-3.7683,-3.7683,-3.8183,-3.8546,-3.8742,-3.8826,-3.9385,-4.0402,-4.0549,-4.0645,-4.071,-4.0238,-3.9884,-3.9642,-3.9379,-3.9272,-3.9272,-3.9272,-3.9272,-3.9272,-3.9272,-3.9148,-3.8788,0.0,0.0,0.0,0.0,0.0,0.0,0.0,0.0,0.0,0.0,-1.1948,0.0,0.0,0.0,0.0,0.0,0.0,0.0,0.0,0.0,-1.5351,-1.5216,-1.6087,-1.6534,-1.6384,-1.6384,-1.6384,-1.6384,-1.6384,-1.6384,-1.6384,-1.6384,-1.6384,-1.6384,-1.6374,-1.6306,-1.6114,-1.6114,-1.6009,-1.5914,-1.5914,-1.5914,-1.5914,-1.5914,0.0,0.0,0.0,0.0,0.0,0.0,0.0,0.0,-1.782,-1.8104,-1.8534,-1.9728,-2.1046,-2.2221,-2.2838,-2.4351,-2.5729,-2.5784,-2.6326,-2.6779,-2.6727,-2.6779,-2.6974,-2.768,-2.756,-2.7876,-2.9554,-3.0179,-3.0954,-3.2369,-3.2942,-3.324,-3.3309,-3.3309,-3.3309,-3.3309,-3.3309,-3.3309,-3.3309,-3.3309,-3.3503,-3.4,-3.405,-3.4527,-3.5663,-3.5745,-3.6042,-3.6754,-3.682,-3.6853,-3.6853,-3.702,-3.7362,-3.7859,-3.8062,-3.857,-3.9441,-3.9952,-4.0351,-4.0659,-4.0121,-3.9694,-3.9272,-3.9272,-3.9272,-3.9272,-3.9272,-3.9272,-3.9272,-3.9272,-3.8898,-3.8407,0.0,0.0,0.0,0.0,0.0,0.0,0.0,0.0,0.0,0.0,0.0,0.0,0.0,0.0,0.0,0.0,0.0,0.0,0.0,0.0,-1.5216,-1.5216,-1.5998,-1.6431,-1.6384,-1.6384,-1.6384,-1.6384,-1.6384,-1.6384,-1.6384,-1.6384,-1.6384,-1.6374,-1.6249,-1.6249,-1.6316,-1.6181,-1.6181,-1.6259,-1.6124,-1.6134,-1.6259,-1.6124,-1.6056,0.0,0.0,0.0,0.0,0.0,0.0,0.0,-1.6641,-1.7368,-1.8224,-1.872,-2.0037,-2.1406,-2.18,-2.3163,-2.458,-2.5077,-2.5988,-2.6674,-2.6233,-2.6447,-2.6832,-2.7011,-2.6974,-2.7489,-2.9188,-2.9589,-3.028,-3.2261,-3.2711,-3.2888,-3.324,-3.3309,-3.3309,-3.3309,-3.3309,-3.3309,-3.3309,-3.3309,-3.3361,-3.345,-3.345,-3.3618,-3.3866,-3.3866,-3.393,-3.409,-3.4654,-3.4926,-3.4926,-3.5498,-3.5864,0.0,-3.6565,-3.7318,-3.8292,-3.9274,-3.9817,-3.9969,-3.9884,-3.9694,-3.9272,-3.9272,-3.9272,-3.9272,-3.9272,-3.9272,-3.9272,-3.9272,-3.9202,-3.9023,0.0,0.0,0.0,0.0,0.0,0.0,0.0,0.0,0.0,0.0,0.0,0.0,0.0,0.0,0.0,0.0,0.0,0.0,0.0,0.0,-1.5511,-1.5846,-1.6227,-1.6384,-1.6384,-1.6384,-1.6384,-1.6384,-1.6384,-1.6384,-1.6384,-1.6384,-1.6384,-1.6384,-1.6306,-1.6306,-1.6374,-1.6306,-1.6306,-1.6374,-1.6306,-1.6249,-1.6249,-1.6077,-1.6019,-1.6019,-1.5951,0.0,0.0,0.0,0.0,0.0,0.0,0.0,-1.7745,-1.8554,-1.9767,-2.097,-2.1541,-2.285,-2.4234,-2.4851,-2.5467,-2.5934,-2.5893,-2.6111,-2.6447,-2.6727,-2.6779,-2.7278,-2.8767,-2.9237,-2.9983,-3.1667,-3.216,-3.2437,-3.2888,-3.2942,-3.3065,-3.324,-3.3309,-3.3309,-3.3309,-3.3309,-3.3309,-3.3309,-3.3309,-3.3309,-3.3309,-3.3309,-3.3309,-3.3309,-3.364,-3.3814,-3.3814,-3.451,-3.4857,-3.4873,-3.5584,-3.6526,-3.7654,-3.9085,-3.9764,-3.9781,-3.9694,-3.9484,-3.9272,-3.9272,-3.9272,-3.9272,-3.9272,-3.9272,-3.9272,-3.9272,-3.9272,-3.9272,0.0,0.0,0.0,0.0,0.0,0.0,0.0,0.0,0.0,0.0,0.0,0.0,0.0,0.0,0.0,0.0,0.0,0.0,0.0,0.0,0.0,-1.6539,-1.6488,-1.6384,-1.6384,-1.6384,-1.6384,-1.6384,-1.6384,-1.6384,-1.6384,-1.6384,-1.6384,-1.6384,-1.6384,-1.6425,-1.6498,-1.6498,-1.6539,-1.6612,-1.6612,-1.6485,-1.6348,-1.6194,-1.6145,-1.6087,-1.6018,-1.6087,-1.6087,-1.6018,0.0,0.0,0.0,0.0,-1.7456,-1.8581,-1.976,-2.0792,-2.157,-2.2892,-2.4176,-2.4567,-2.4838,-2.5133,-2.566,-2.5839,-2.6056,-2.6674,-2.6779,-2.7171,-2.8448,-2.9016,-2.9707,-3.107,-3.1552,-3.1936,-3.2422,-3.2492,-3.2602,-3.3011,-3.3081,-3.3081,-3.3081,-3.3081,-3.3081,-3.3081,-3.3081,-3.3081,-3.3081,-3.3081,-3.3081,-3.3081,-3.3081,-3.3081,-3.3081,-3.3614,-3.3936,-3.4006,-3.4912,-3.5943,-3.7167,-3.883,-3.9612,-3.9798,-3.9432,-3.9272,-3.9272,-3.9272,-3.9272,-3.9272,-3.9272,-3.9272,-3.9272,-3.9272,-3.9272,-3.9272,0.0,0.0,0.0,0.0,0.0,0.0,0.0,0.0,0.0,0.0,0.0,0.0,0.0,0.0,0.0,0.0,0.0,0.0,0.0,0.0,0.0,-1.641,-1.6431,-1.6384,-1.6384,-1.6384,-1.6384,-1.6384,-1.6384,-1.6384,-1.6384,-1.6384,-1.6384,-1.6384,-1.6384,-1.6591,-1.6894,-1.6894,-1.7121,-1.7492,-1.7421,-1.7359,-1.7298,-1.7298,-1.7174,-1.7061,-1.7174,-1.7174,-1.6999,-1.6999,-1.7051,0.0,0.0,0.0,-1.808,-1.8187,-1.9486,-2.0913,-2.108,-2.2593,-2.3956,-2.3484,-2.415,-2.5007,-2.5077,-2.5536,-2.6056,-2.6674,-2.6779,-2.7171,-2.8448,-2.8737,-2.9315,-3.1012,-3.1336,-3.1495,-3.1936,-3.1992,-3.2048,-3.2104,-3.2104,-3.2104,-3.2104,-3.2104,-3.2104,-3.2104,-3.2104,-3.2104,-3.2104,-3.2104,-3.2104,-3.2104,-3.2104,-3.2104,-3.2104,-3.2196,-3.245,-3.2851,-3.4222,-3.5423,-3.6367,-3.7527,-3.8553,-3.9379,-3.9325,-3.9272,-3.9272,-3.9272,-3.9272,-3.9272,-3.9272,-3.9272,-3.9272,-3.9272,-3.9272,-3.9272,0.0,0.0,0.0,0.0,0.0,0.0,0.0,0.0,0.0,0.0,0.0,0.0,0.0,0.0,0.0,0.0,0.0,0.0,0.0,0.0,0.0,-1.6513,-1.6534,-1.6477,-1.6384,-1.6384,-1.6384,-1.6384,-1.6384,-1.6384,-1.6384,-1.6632,-1.6757,-1.6757,-1.6757,-1.7005,-1.7368,-1.7368,-1.7482,-1.7668,-1.7668,-1.7832,-1.8118,-1.7647,-1.7657,-1.7894,-1.7533,-1.7346,-1.7284,-1.7284,-1.7346,-1.7409,-1.7409,0.0,0.0,0.0,-1.891,-2.0115,-2.1193,-2.2492,-2.3484,-2.3185,-2.3531,-2.4047,-2.4394,-2.4694,-2.5147,-2.6111,-2.6543,-2.7167,-2.845,-2.8681,-2.9201,-3.0661,-3.0925,-3.1043,-3.1495,-3.1552,-3.1667,-3.1879,-3.1879,-3.1879,-3.1879,-3.1879,-3.1879,-3.1879,-3.1879,-3.1879,-3.1879,-3.1879,-3.1879,-3.1879,-3.1879,-3.1879,-3.1879,-3.1879,-3.1992,-3.2216,-3.2857,-3.3889,-3.5257,-3.5739,-3.6959,-3.8709,-3.9106,-3.9272,-3.9272,-3.9272,-3.9272,-3.9272,-3.9272,-3.9272,-3.9272,-3.9272,-3.9272,-3.9272,0.0,0.0,0.0,0.0,0.0,0.0,0.0,0.0,0.0,0.0,0.0,0.0,0.0,0.0,0.0,0.0,0.0,0.0,0.0,0.0,0.0,-1.6616,-1.6581,-1.6477,-1.6384,-1.6384,-1.6384,-1.6384,-1.6384,-1.6436,-1.656,-1.6891,-1.71,-1.7378,-1.7203,-1.741,-1.7895,-1.7895,-1.7968,-1.8071,-1.8071,-1.8302,-1.8706,-1.8302,-1.8416,-1.8728,-1.8113,-1.7924,-1.7924,-1.7744,-1.7808,-1.7945,-1.7945,-1.8008,0.0,0.0,0.0,-1.9563,-2.1323,-2.2322,-2.2823,-2.3078,-2.3078,-2.3245,-2.3956,-2.4131,-2.4505,0.0,-2.6511,-2.7244,-2.8654,-2.8927,-2.929,-3.0393,-3.0568,-3.0687,-3.1043,-3.1102,-3.1204,-3.1537,-3.1595,-3.1595,-3.1595,-3.1595,-3.1595,-3.1595,-3.1595,-3.1595,-3.1595,-3.1595,-3.1595,-3.1595,-3.1595,-3.1595,-3.1595,-3.1709,-3.1766,-3.1766,-3.1823,-3.2613,-3.4042,-3.4361,-3.5582,-3.7475,-3.854,-3.9007,-3.9023,-3.9206,-3.9272,-3.9272,-3.9272,-3.9272,-3.9272,-3.9272,-3.9272,-3.9272,0.0,0.0,0.0,0.0,0.0,0.0,0.0,0.0,0.0,0.0,0.0,0.0,-1.5787,-1.5738,-1.5762,-1.5749,-1.5742,-1.5908,-1.6299,-1.6464,-1.6606,-1.657,-1.6477,0.0,-1.6384,-1.6384,-1.6384,-1.6384,-1.6384,-1.6601,-1.6946,-1.6966,-1.7491,-1.8288,-1.7885,-1.7936,-1.835,-1.835,-1.8599,-1.9003,-1.9003,-1.8936,-1.887,-1.964,-1.976,-1.9564,-1.9629,-1.9705,-1.9575,-1.8936,-1.887,-1.9003,-1.9003,-1.9003,-1.8936,0.0,0.0,0.0,-2.1164,-2.1815,-2.2137,-2.2884,-2.3078,-2.3245,-2.3956,-2.4131,-2.4611,-2.6371,-2.6793,-2.7357,-2.9218,-2.9566,-2.9798,-3.0466,-3.0568,-3.0628,-3.0628,-3.0642,-3.0628,-3.0687,-3.0687,-3.0687,-3.0687,-3.0687,-3.0687,-3.0687,-3.0687,-3.0687,-3.0687,-3.0687,-3.0687,-3.0687,-3.0687,-3.0687,-3.0687,-3.1102,-3.1336,-3.1336,-3.1709,-3.216,-3.2718,-3.3941,-3.4771,-3.5351,-3.7409,-3.8278,-3.8328,-3.899,-3.9272,-3.9272,-3.9272,-3.9272,-3.9272,-3.9272,-3.9272,-3.9272,0.0,0.0,0.0,0.0,0.0,0.0,0.0,0.0,0.0,0.0,0.0,0.0,0.0,-1.5803,-1.5902,-1.623,-1.6568,-1.683,-1.695,-1.7002,-1.6931,-1.6751,-1.6705,-1.6591,-1.6524,-1.6431,-1.6431,-1.6524,-1.6711,-1.6891,-1.6997,-1.7626,-1.8071,-1.8371,-1.8216,-1.8402,-1.8827,-1.8827,-1.892,-1.9131,-1.9584,-1.9977,-2.0291,-2.0613,-2.0921,-2.1152,-2.0794,-2.0355,-1.9977,-1.9715,-1.9396,-1.9075,-1.8942,-1.8942,-1.8808,-1.8472,-1.911,-2.0074,-2.0782,-2.169,-2.2531,-2.3017,-2.3017,-2.3078,-2.3365,-2.3484,-2.3875,-2.5314,-2.5907,-2.672,-2.8598,-2.9317,-2.9842,-3.0466,-3.0568,-3.0568,-3.0568,-3.0568,-3.0568,-3.0568,-3.0568,-3.0568,-3.0568,-3.0568,-3.0568,-3.0568,-3.0568,-3.0568,-3.0568,-3.0568,-3.0568,-3.0568,-3.019,-2.9931,-2.9931,-3.0553,-3.0866,-3.0866,-3.1102,-3.1537,-3.2185,-3.2693,-3.3524,-3.4505,-3.5701,-3.6992,-3.8228,-3.8493,-3.8858,-3.9272,-3.9272,-3.9272,-3.9272,-3.9272,-3.9272,-3.9272,0.0,0.0,0.0,0.0,0.0,0.0,0.0,0.0,0.0,-1.5395,0.0,0.0,0.0,0.0,-1.6252,-1.6732,-1.7082,-1.7278,-1.7278,-1.7211,-1.7088,-1.6864,-1.6807,-1.6751,-1.6694,-1.6534,-1.6608,-1.6812,-1.695,-1.7131,-1.7502,-1.8102,-1.8464,-1.8609,-1.8609,-1.8785,-1.9075,-1.9075,-1.9075,-1.9131,-1.9846,-2.0226,-2.0484,-2.0933,-2.125,-2.1416,-2.1187,-2.0805,-2.042,-2.042,-2.0161,-1.9715,-1.933,-1.9008,-1.8674,-1.8741,-1.9309,-2.0074,-2.0719,-2.1565,-2.2408,-2.2848,-2.2909,-2.2909,-2.3017,-2.3228,-2.3761,-2.4971,-2.5654,-2.6671,-2.8586,-2.932,-2.9837,-3.051,-3.0568,-3.0568,-3.0568,-3.0568,-3.0568,-3.0568,-3.0568,-3.0568,-3.0568,-3.0568,-3.0568,-3.0568,0.0,0.0,-3.0251,-3.0251,-3.0129,-2.9917,-2.947,-2.9219,-2.9219,-2.9931,-3.0312,-3.0326,-3.0702,-3.1146,-3.1679,-3.1962,-3.2625,-3.3591,-3.4178,-3.56,-3.75,-3.8013,-3.8493,-3.8941,-3.9172,-3.9272,-3.9272,-3.9272,-3.9272,-3.9272,0.0,0.0,0.0,0.0,0.0,0.0,0.0,0.0,-1.6154,-1.5847,0.0,0.0,0.0,0.0,0.0,-1.7234,-1.7278,-1.7278,-1.7278,-1.7134,-1.7011,-1.7011,-1.6853,-1.6818,-1.6828,-1.6715,-1.6822,-1.7294,-1.7137,-1.7522,-1.8382,-1.8392,-1.864,-1.9075,-1.9075,-1.9075,-1.9075,-1.9075,-1.9075,-1.9131,-1.9846,-1.9715,-1.933,-2.0613,-2.0741,-2.0291,-2.0933,-2.1123,0.0,-2.1123,0.0,-2.0996,-2.0355,-1.9386,-1.8684,-1.9407,-1.9518,-1.9694,0.0,0.0,0.0,-2.2543,-2.28,-2.2909,-2.2934,0.0,-2.433,-2.5556,-2.6242,-2.7243,-2.9185,-2.956,-2.9808,-3.0447,-3.0568,-3.0568,-3.0568,-3.0568,-3.0568,-3.0568,-3.0568,-3.0568,-3.0568,-3.0568,-3.0568,-3.0568,-3.0568,-3.0251,-2.9608,-2.956,-2.9219,-2.8492,-2.8492,-2.8492,-2.8492,-2.9345,-2.9808,-2.9808,-3.0702,-3.119,-3.1336,-3.1807,-3.2201,-3.2453,-3.2933,-3.422,-3.6026,-3.7481,-3.811,-3.8278,-3.8974,-3.9255,-3.9272,-3.9272,-3.9272,-3.9272,0.0,0.0,0.0,0.0,0.0,0.0,-1.6971,-1.7198,-1.7163,0.0,0.0,0.0,-1.7115,-1.7071,-1.7125,-1.7267,-1.7278,-1.7278,-1.7278,-1.7267,-1.7145,-1.7011,-1.6955,-1.707,-1.7318,-1.7143,-1.7305,-1.7706,-1.7916,-1.8133,-1.8382,-1.8723,-1.9017,-1.9075,-1.9075,-1.9075,-1.9075,-1.9075,-1.9075,-1.9131,-1.9846,-2.0291,-2.0613,-2.1491,-2.199,-2.231,0.0,-2.2249,-2.1803,0.0,-2.1491,-2.106,-2.0707,-2.0333,-2.0085,-2.0279,-2.0655,-2.1037,-2.1439,0.0,0.0,0.0,0.0,0.0,-2.3344,0.0,-2.4116,-2.5432,-2.5815,-2.6465,-2.8461,-2.8826,-2.9016,-2.9747,-3.0251,-3.0568,-3.0568,-3.0568,-3.0568,-3.0568,-3.0568,-3.0568,-3.0568,-3.0568,-3.0387,0.0,-2.987,-2.9546,-2.8826,-2.8826,-2.8505,-2.7802,-2.8247,-2.8233,-2.7802,-2.903,-2.9685,-2.9685,-3.0642,-3.1132,-3.119,-3.1509,-3.1951,-3.2398,-3.2547,-3.3112,-3.4085,-3.5383,-3.6842,-3.8228,-3.8427,-3.8825,-3.9272,-3.9272,-3.9272,-3.9272,0.0,0.0,0.0,0.0,0.0,-1.7621,-1.7694,-1.7821,-1.7744,0.0,0.0,0.0,-1.749,-1.749,-1.749,-1.749,-1.739,-1.7278,-1.7278,-1.7278,-1.7355,-1.7427,-1.7437,-1.7608,-1.7975,-1.7867,-1.798,-1.8436,-1.8522,-1.8624,-1.8812,-1.9017,-1.9075,-1.9075,-1.9075,-1.9075,-1.9075,-1.9075,-1.9075,-1.9198,-2.0096,-2.0549,-2.0805,-2.1741,-2.2175,0.0,0.0,0.0,-2.2163,-2.2421,-2.2063,0.0,-2.1037,-2.0835,-2.0643,-2.0602,-2.1049,-2.1628,-2.1827,-2.2099,-2.2481,-2.2774,0.0,0.0,-2.3749,-2.4174,-2.4573,0.0,-2.5787,-2.6442,-2.7788,-2.8298,-2.862,-2.9093,-2.9732,-3.0054,-2.9794,-2.9993,-3.019,-3.019,-3.0447,-3.0507,-3.019,-3.019,-2.987,-2.9219,-2.9156,-2.8826,-2.8117,-2.7802,-2.7484,-2.7095,-2.7484,-2.7484,-2.7095,-2.826,-2.8839,-2.8839,-3.004,-3.0673,-3.0807,-3.1234,-3.164,-3.2007,-3.2007,-3.2327,-3.2926,-3.3656,-3.5016,-3.6662,-3.7494,-3.8093,-3.8541,-3.9086,-3.9272,-3.9272,0.0,0.0,-1.7664,-1.8193,-1.8084,-1.8083,-1.8543,-1.841,-1.8084,0.0,-1.7767,-1.7767,-1.7767,-1.7711,-1.7711,-1.7711,-1.749,-1.7355,-1.7355,-1.7409,-1.7628,-1.8065,-1.8086,-1.8305,-1.8763,-1.8674,-1.879,-1.9264,-1.8945,-1.8952,-1.9285,-1.9142,-1.9075,-1.9075,-1.9075,-1.9075,-1.9075,-1.9127,-1.9214,-1.9404,-2.0506,-2.0677,0.0,0.0,-2.1898,-2.1533,-2.2145,-2.2418,-2.248,-2.307,-2.2874,0.0,0.0,-2.14,-2.1186,-2.1039,-2.1487,-2.1993,-2.2291,-2.2478,-2.265,-2.3007,-2.3192,0.0,-2.4198,-2.4809,-2.5301,0.0,-2.6033,-2.6645,-2.7284,-2.792,-2.8298,-2.8298,-2.8889,-2.9156,-2.8556,-2.9093,-2.9484,-2.9484,-2.9993,-3.0129,-2.9546,-2.9484,-2.9156,-2.8427,-2.8298,-2.8051,-2.7417,-2.685,-2.6533,-2.6533,-2.6533,-2.6533,-2.6533,-2.7297,-2.767,-2.767,-2.9192,-2.995,-3.0208,-3.0896,-3.1278,-3.1409,-3.1467,-3.1796,-3.2287,-3.2287,-3.3099,-3.4476,-3.6265,-3.708,-3.7361,-3.8553,-3.9028,-3.9094,0.0,-1.8049,-1.8217,-1.8746,-1.879,-1.8814,-1.8922,-1.8881,-1.8721,-1.8452,-1.8193,-1.803,-1.803,-1.7822,-1.7711,-1.7711,-1.7809,-1.7868,-1.7868,-1.8206,-1.8458,-1.8556,-1.8556,-1.8725,-1.91,-1.9059,-1.9211,-1.9543,-1.928,-1.9191,-1.9285,-1.9142,-1.9075,-1.9075,-1.9075,-1.9075,-1.9096,-1.9536,-2.0022,-2.0508,-2.038,-2.0549,-2.1042,-2.2353,-2.3103,-2.3504,-2.4064,-2.429,-2.429,-2.443,-2.4354,-2.4226,0.0,0.0,0.0,-2.3814,-2.3814,-2.3879,-2.3697,-2.3644,-2.3668,-2.3658,-2.3682,0.0,-2.4536,-2.481,-2.5074,0.0,-2.5975,-2.6233,-2.6867,-2.7124,-2.7191,-2.7191,-2.7471,-2.7868,-2.8427,-2.862,-2.8684,-2.8684,-2.8826,-2.8889,-2.8762,-2.8684,-2.8441,-2.7736,-2.7229,-2.685,-2.6714,-2.6589,-2.6533,-2.6533,-2.6533,-2.6533,-2.6533,-2.7162,-2.7537,-2.7537,-2.8583,-2.9093,-2.9254,-3.0133,-3.0584,-3.0718,-3.1278,-3.1582,-3.1697,-3.1697,-3.2726,-3.4327,-3.4705,-3.5554,-3.6628,-3.6885,-3.7301,-3.778,-1.8657,-1.8654,-1.8674,-1.8939,-1.8987,-1.8987,-1.8987,-1.8987,-1.8881,-1.8614,-1.8302,-1.8187,-1.8483,-1.8227,-1.8159,-1.836,-1.8383,-1.8348,-1.8348,-1.8556,-1.8796,-1.9037,-1.9058,-1.9225,-1.9662,-1.9673,-1.9717,-1.9878,-1.9615,-1.9473,-1.9407,-1.9208,-1.9264,-1.9594,-1.9504,-1.9609,-1.9967,-2.0031,-2.0567,-2.1224,-2.1297,0.0,-2.2557,-2.3555,-2.4139,-2.4443,-2.472,-2.482,-2.482,-2.482,-2.482,0.0,-2.4406,-2.4549,-2.4691,0.0,-2.4144,-2.4353,0.0,0.0,0.0,-2.4085,0.0,0.0,0.0,-2.5204,-2.5359,-2.5779,-2.591,-2.5968,-2.6358,-2.6676,-2.6799,-2.6483,-2.6824,-2.7229,-2.7351,-2.7736,-2.7986,-2.7986,-2.8298,-2.8363,-2.8051,-2.7986,-2.7736,-2.704,-2.6714,-2.6533,-2.6533,-2.6533,-2.6533,-2.6533,-2.6533,-2.6533,-2.6533,-2.685,-2.6973,-2.704,-2.7815,-2.8195,-2.8363,-2.9254,-2.995,-3.0389,-3.0837,-3.1219,-3.1482,-3.1482,-3.2034,-3.2962,-3.3637,-3.431,-3.5055,-3.6017,-3.6606,-3.6954,-1.9235,-1.9105,-1.8987,-1.8987,-1.8987,-1.8987,-1.8987,-1.8987,-1.897,-1.8863,-1.855,-1.8539,-1.909,-1.8793,-1.872,-1.9063,-1.8945,-1.8829,-1.8829,-1.8916,-1.9146,-1.9539,-1.9561,-1.9746,-2.0074,-2.0085,-2.0085,-2.0085,-1.9813,-1.9671,-1.9671,-1.9274,-1.9505,-2.0074,-2.0058,-2.0339,-2.0934,-2.0983,0.0,-2.2237,0.0,-2.34,-2.3869,-2.466,-2.4971,-2.4983,-2.5096,-2.5146,-2.5146,-2.5146,-2.5146,-2.5003,-2.4504,-2.4715,0.0,0.0,0.0,0.0,0.0,0.0,0.0,0.0,0.0,-2.4783,0.0,0.0,0.0,-2.5758,0.0,0.0,-2.5758,0.0,0.0,0.0,0.0,0.0,0.0,-2.6705,0.0,-2.7284,-2.7802,-2.792,-2.7351,-2.7284,-2.7095,-2.6521,-2.6533,-2.6533,-2.6533,-2.6533,-2.6533,-2.6533,-2.6533,-2.6533,-2.6533,-2.6533,-2.6533,-2.6533,-2.704,-2.7417,-2.7617,-2.8441,-2.9254,-2.995,-3.0329,-3.0837,-3.1351,-3.1467,-3.1482,-3.1584,-3.2673,-3.3192,-3.3495,-3.5221,-3.5927,-3.6146,-1.9223,-1.9105,-1.8987,-1.8987,-1.8987,-1.8987,-1.8987,-1.8987,-1.9155,-1.9624,-1.9365,-1.9397,-1.9912,-1.9433,-1.9041,-1.9097,-1.9265,-1.9342,-1.9342,-1.9746,-1.9944,-1.9998,-1.9998,-2.002,-2.0085,-2.0085,-2.0085,-2.0085,-1.9933,-1.9868,-1.9868,-1.9473,-1.9572,-2.0028,-2.0536,-2.1057,-2.1563,-2.2646,-2.3491,0.0,-2.4788,-2.4486,0.0,-2.5046,-2.5511,-2.5573,-2.6088,-2.6345,-2.6345,0.0,-2.6345,-2.6264,0.0,-2.6276,-2.6276,-2.5946,0.0,0.0,0.0,0.0,0.0,0.0,-2.5216,0.0,0.0,0.0,-2.5312,-2.5382,0.0,-2.5382,-2.5382,0.0,0.0,0.0,0.0,0.0,-2.5042,-2.5741,-2.6396,-2.6589,-2.6658,-2.6714,-2.6589,-2.6589,-2.6589,-2.6533,-2.6533,-2.6533,-2.6533,-2.6533,-2.6533,-2.6533,-2.6533,-2.6533,-2.6533,-2.6533,-2.6533,-2.6533,-2.6589,-2.6794,-2.7066,-2.7815,-2.8312,-2.8789,-2.9964,-3.0524,-3.0644,-3.1219,-3.1482,-3.1539,-3.1672,-3.2105,-3.2706,-3.3502,-3.4211,-3.4813,-1.9328,-1.9158,-1.8987,-1.8987,-1.8987,-1.8987,-1.8987,-1.9251,-1.9648,-2.0189,-1.9782,-1.9738,-2.0499,-1.9776,-1.9594,-2.0245,-2.0147,-2.0079,0.0,-2.0278,-2.0335,-2.0074,-2.0085,-2.0085,-2.0085,-2.0085,-2.0085,-2.0085,-1.9944,-1.9868,-1.9878,-1.9758,-2.0048,-2.0579,-2.1337,-2.2048,-2.2669,0.0,-2.4237,0.0,0.0,0.0,0.0,-2.5945,-2.6101,-2.6138,-2.6445,-2.6533,-2.6533,0.0,-2.6533,0.0,0.0,0.0,0.0,-2.6119,0.0,0.0,0.0,0.0,0.0,0.0,0.0,0.0,-2.5312,0.0,-2.5312,0.0,0.0,0.0,0.0,0.0,0.0,0.0,-2.5308,0.0,0.0,0.0,-2.605,0.0,0.0,0.0,-2.6533,0.0,0.0,-2.6533,-2.6533,-2.6533,-2.6533,-2.6533,-2.6533,-2.6533,-2.6533,-2.6533,-2.6533,-2.6533,-2.6533,-2.6533,-2.6533,-2.6589,-2.6863,-2.7255,-2.7762,-2.8417,-2.903,-2.9594,-2.995,-3.0644,-3.0896,-3.097,-3.1351,-3.1646,-3.2018,-3.2677,-3.3335,-3.4008,-1.942,-1.9198,-1.8987,-1.8987,-1.8987,-1.9035,-1.9191,-1.966,-2.0201,-2.0754,-2.0323,-2.0261,-2.104,-2.0359,-2.0254,-2.1135,-2.0903,-2.0764,0.0,0.0,-2.0518,-2.027,-2.014,-2.0085,-2.0085,-2.0085,-2.0085,-2.0085,-2.0139,-2.0204,-2.0215,-2.0228,-2.07,-2.1574,-2.2295,-2.3112,-2.3886,0.0,-2.5075,-2.5594,-2.5594,-2.5955,-2.6533,-2.6533,-2.6533,-2.6533,-2.6533,-2.6533,-2.6533,-2.6533,-2.6533,0.0,-2.6533,0.0,-2.6465,0.0,0.0,0.0,-2.5535,0.0,0.0,0.0,0.0,0.0,0.0,0.0,0.0,0.0,0.0,0.0,0.0,0.0,-2.5264,-2.5119,0.0,-2.5487,0.0,-2.5591,0.0,0.0,0.0,0.0,0.0,-2.6533,-2.6533,-2.6533,-2.6533,-2.6533,-2.6533,-2.6533,-2.6533,-2.6533,-2.6533,-2.6533,-2.6533,-2.6533,-2.6533,-2.6533,-2.6533,-2.6589,-2.6794,-2.6943,-2.7403,-2.8105,-2.8352,-2.8789,-2.9268,-2.995,-3.0208,-3.0269,-3.097,-3.1219,-3.1308,-3.2213,-3.2826,-3.335,-1.942,-1.9198,-1.8987,-1.8987,-1.8987,-1.9167,-1.9672,-2.0225,-2.0779,-2.1308,0.0,0.0,0.0,0.0,0.0,0.0,0.0,-2.1158,-2.1158,0.0,-2.0571,-2.0571,-2.027,-2.0085,-2.0085,-2.0085,-2.0085,-2.0085,-2.0609,-2.0839,-2.085,-2.0925,-2.1659,-2.288,-2.3303,-2.4085,-2.5288,-2.6094,-2.6452,-2.6452,-2.6452,-2.6465,-2.6533,0.0,-2.6533,-2.6533,-2.6533,0.0,0.0,-2.6533,-2.6533,0.0,0.0,0.0,0.0,0.0,0.0,0.0,0.0,0.0,0.0,-2.5382,0.0,0.0,0.0,0.0,-2.5312,0.0,0.0,0.0,0.0,-2.5312,-2.5143,-2.4626,-2.4975,0.0,0.0,0.0,0.0,0.0,0.0,0.0,0.0,-2.6533,-2.6533,-2.6533,-2.6533,-2.6533,-2.6533,-2.6533,-2.6533,-2.6533,-2.6533,-2.6533,-2.6533,-2.6533,-2.6533,-2.6533,-2.6533,-2.6671,-2.7024,-2.7024,-2.7214,-2.759,-2.8222,-2.8481,-2.8597,-2.9268,-2.9504,-2.9566,-3.0269,-3.0524,-3.0717,-3.2005,-3.2527,-3.2736,-1.9726,-1.9625,-1.9516,-1.9516,-1.9516,-1.9817,0.0,-2.1019,0.0,0.0,-2.1663,0.0,0.0,-2.1549,-2.1348,0.0,0.0,-2.1537,-2.1537,-2.1221,0.0,-2.0635,-2.027,-2.0293,0.0,-2.062,-2.0773,-2.1101,-2.1265,-2.1594,-2.206,-2.2232,-2.2745,-2.3677,-2.4378,-2.492,0.0,0.0,0.0,0.0,0.0,-2.6533,-2.6533,0.0,-2.6533,-2.6533,-2.6533,-2.6533,0.0,-2.6533,-2.6533,-2.6533,-2.6533,-2.6533,-2.6465,-2.6339,-2.627,0.0,0.0,0.0,-2.591,-2.5606,0.0,0.0,0.0,0.0,0.0,0.0,0.0,0.0,0.0,-2.5312,-2.5252,-2.5071,-2.5192,-2.5252,0.0,-2.5344,0.0,0.0,0.0,0.0,0.0,0.0,0.0,-2.6533,-2.6533,-2.6533,-2.6533,-2.6533,-2.6533,-2.6533,-2.6533,-2.6533,-2.6533,-2.6533,-2.6533,-2.6533,-2.6533,-2.6602,-2.6794,-2.6943,-2.7146,-2.7403,-2.7723,-2.7842,-2.7908,-2.8597,-2.8839,-2.8903,-2.958,-3.0133,-3.0613,-3.153,-3.2138,-3.2706,-2.0373,-2.0416,-2.0292,0.0,0.0,0.0,0.0,0.0,0.0,0.0,-2.1987,0.0,-2.2185,0.0,-2.1737,0.0,-2.1987,-2.1851,-2.1714,-2.1474,0.0,-2.0635,-2.0635,-2.0871,0.0,0.0,-2.1475,-2.1976,-2.2154,-2.2511,-2.2983,-2.342,-2.4073,-2.4783,-2.5214,-2.5581,-2.5804,-2.6314,-2.6533,0.0,0.0,-2.6533,0.0,0.0,-2.6533,-2.6533,0.0,-2.6533,-2.6533,-2.6533,-2.6533,-2.6533,-2.6533,-2.6533,-2.6465,-2.6339,-2.6339,-2.627,-2.6062,-2.6131,0.0,-2.5758,-2.5828,0.0,-2.5465,0.0,-2.5382,0.0,0.0,0.0,0.0,-2.5382,-2.5312,-2.5382,-2.5382,-2.5312,0.0,-2.5535,0.0,0.0,0.0,-2.6062,0.0,-2.6396,-2.6533,-2.6533,-2.6533,-2.6533,0.0,0.0,-2.6533,-2.6533,-2.6533,-2.6533,-2.6533,-2.6533,-2.6533,-2.6533,-2.6533,-2.6589,-2.6714,-2.6794,-2.7011,-2.7214,-2.7268,-2.7335,-2.7469,-2.7908,-2.8105,-2.8222,-2.8903,-2.9393,-2.9903,-3.0777,-3.1693,-3.2677,-2.1263,-2.1343,0.0,0.0,-2.115,0.0,0.0,0.0,-2.2197,0.0,-2.2197,-2.2197,-2.2197,-2.2197,-2.2197,-2.2197,-2.2197,-2.2049,-2.1726,-2.1714,0.0,0.0,-2.1285,-2.1783,-2.2059,0.0,0.0,0.0,0.0,-2.3501,-2.3513,-2.4531,-2.5463,-2.6114,-2.5849,0.0,-2.6714,-2.6589,-2.6533,-2.6533,-2.6533,-2.6533,-2.6533,-2.6533,-2.6533,-2.6533,-2.6533,-2.6533,-2.6533,-2.6533,-2.6533,-2.6533,-2.6533,-2.6533,-2.6533,-2.6533,-2.6533,-2.6465,-2.627,-2.6213,-2.6131,-2.598,0.0,0.0,0.0,0.0,-2.5606,0.0,0.0,0.0,0.0,0.0,-2.5382,-2.5535,-2.5382,-2.5382,-2.5535,-2.5606,-2.5688,0.0,0.0,-2.627,-2.6465,-2.6465,-2.6533,-2.6533,-2.6533,-2.6533,0.0,0.0,-2.6533,-2.6533,-2.6533,-2.6533,-2.6533,-2.6533,-2.6533,-2.6533,-2.6533,-2.6589,-2.6714,-2.6714,-2.6794,-2.7024,-2.7024,-2.7079,-2.7268,-2.7268,-2.7403,-2.7523,-2.8157,-2.8481,-2.8661,-2.9964,-3.1307,-3.2542,-2.1778,-2.2167,-2.232,0.0,-2.2128,-2.2104,0.0,0.0,0.0,0.0,-2.2197,-2.2197,-2.2197,-2.2197,-2.2197,-2.2197,-2.2197,0.0,0.0,0.0,0.0,-2.1981,-2.2163,-2.2627,-2.3452,-2.3748,-2.3859,-2.3729,0.0,-2.4814,-2.4826,-2.5496,-2.6264,-2.6985,0.0,-2.6508,-2.6714,-2.6589,-2.6533,-2.6533,-2.6533,-2.6533,-2.6533,0.0,-2.6533,-2.6533,-2.6533,-2.6533,-2.6533,-2.6533,-2.6533,-2.6533,-2.6533,-2.6533,-2.6533,-2.6533,-2.6533,-2.6465,-2.6465,-2.6396,-2.6396,-2.6201,-2.6131,-2.6062,0.0,0.0,0.0,0.0,0.0,0.0,0.0,0.0,0.0,-2.5382,-2.5312,-2.5382,-2.5535,-2.5758,0.0,-2.6131,-2.6339,-2.6396,-2.627,-2.6396,-2.6533,-2.6533,-2.6533,-2.6533,-2.6533,0.0,0.0,-2.6533,-2.6533,-2.6533,-2.6533,-2.6533,-2.6533,-2.6533,-2.6533,-2.6521,-2.6521,-2.6658,-2.6726,-2.6794,-2.6943,-2.7024,-2.7079,-2.7079,-2.7214,-2.7403,-2.7523,-2.7973,-2.8597,-2.9456,-3.061,-3.1816,-2.2455,-2.2698,0.0,-2.2739,0.0,0.0,-2.2309,-2.2247,0.0,-2.2197,-2.2197,0.0,-2.2197,-2.2197,-2.2197,-2.2197,-2.2197,0.0,-2.2345,0.0,0.0,-2.2834,-2.3292,-2.3916,-2.4742,-2.4902,0.0,-2.5122,0.0,-2.5791,-2.5791,-2.6414,-2.6973,-2.7403,0.0,-2.693,-2.6807,-2.6589,-2.6533,-2.6533,-2.6533,-2.6533,0.0,-2.6533,-2.6533,-2.6533,-2.6533,-2.6533,-2.6533,-2.6533,-2.6533,-2.6533,-2.6533,-2.6533,-2.6533,-2.6533,-2.6533,-2.6533,-2.6533,-2.6533,-2.6465,-2.6339,-2.6339,-2.627,-2.6062,-2.605,-2.605,0.0,0.0,0.0,0.0,0.0,0.0,-2.5453,-2.5523,-2.5606,-2.5688,0.0,0.0,0.0,-2.6396,-2.6465,-2.6339,-2.6396,-2.6533,-2.6533,-2.6533,-2.6533,0.0,0.0,0.0,-2.6533,-2.6533,-2.6533,-2.6533,-2.6533,-2.6533,-2.6533,-2.6533,-2.6533,-2.6533,-2.6589,-2.6589,-2.6589,-2.6739,-2.6807,-2.6875,-2.6875,-2.7011,-2.7214,-2.7268,-2.759,-2.8039,-2.8454,-2.968,-3.1116,-2.2977,0.0,0.0,0.0,0.0,0.0,0.0,-2.2309,0.0,-2.2197,0.0,-2.2197,-2.2197,-2.2197,-2.2221,-2.2294,0.0,-2.2396,-2.2663,-2.2958,-2.3239,-2.3542,-2.4415,-2.5199,-2.5886,-2.5807,-2.598,0.0,0.0,-2.6483,-2.6427,-2.7175,-2.7523,-2.7456,0.0,0.0,0.0,-2.6671,-2.6533,-2.6521,-2.6533,-2.6533,-2.6533,-2.6533,-2.6533,-2.6533,-2.6533,-2.6533,-2.6533,-2.6533,-2.6533,-2.6533,-2.6533,-2.6533,-2.6533,-2.6533,-2.6533,-2.6533,-2.6533,-2.6533,-2.6533,-2.6533,-2.6533,-2.6465,-2.627,-2.627,-2.627,-2.627,-2.6119,-2.605,0.0,0.0,0.0,-2.5676,-2.5758,0.0,0.0,0.0,0.0,0.0,0.0,0.0,-2.6533,-2.6533,-2.6533,-2.6533,-2.6533,0.0,0.0,0.0,0.0,-2.6533,-2.6533,-2.6533,-2.6533,0.0,-2.6533,-2.6533,-2.6533,-2.6533,-2.6533,-2.6533,-2.6533,-2.6533,-2.6533,-2.6589,-2.6658,-2.6658,-2.6794,-2.7011,-2.7214,-2.7335,-2.7335,-2.7469,-2.8648,-3.0319,-2.3053,0.0,0.0,0.0,0.0,-2.2616,-2.242,-2.2309,-2.2197,-2.2197,-2.2197,-2.2197,-2.2197,-2.2197,-2.2366,-2.2811,-2.2847,0.0,0.0,0.0,0.0,-2.4969,-2.5328,-2.5978,-2.6966,-2.71,-2.687,0.0,0.0,-2.6973,-2.6427,-2.7175,-2.7523,-2.7456,0.0,0.0,-2.6956,-2.6671,0.0,-2.6658,-2.6521,-2.6533,-2.6533,-2.6533,-2.6533,-2.6533,-2.6533,-2.6533,-2.6533,-2.6533,-2.6533,-2.6533,-2.6533,-2.6533,-2.6533,-2.6533,-2.6533,-2.6533,-2.6533,-2.6533,-2.6533,-2.6533,-2.6533,-2.6465,-2.6465,-2.6465,-2.6465,-2.6465,-2.6396,-2.6396,-2.627,0.0,0.0,0.0,0.0,0.0,0.0,0.0,0.0,0.0,0.0,-2.6533,-2.6533,-2.6533,-2.6533,-2.6533,0.0,0.0,0.0,0.0,0.0,0.0,-2.6533,0.0,0.0,0.0,-2.6533,-2.6533,-2.6533,-2.6533,-2.6533,-2.6533,-2.6533,-2.6533,-2.6533,-2.6533,-2.6521,-2.6521,-2.6589,-2.6794,-2.7268,-2.7403,-2.7335,-2.7469,-2.8091,-2.8949,-2.3078,0.0,0.0,0.0,0.0,0.0,0.0,-2.2309,-2.2309,-2.2197,-2.2197,-2.2197,-2.2197,-2.2438,-2.2702,-2.2955,-2.3232,-2.3604,-2.4121,-2.4157,-2.4725,-2.6025,-2.6038,-2.6489,-2.7523,-2.7523,-2.7323,-2.6973,0.0,-2.7323,-2.6973,-2.7323,-2.7523,-2.7456,0.0,-2.7268,0.0,0.0,0.0,-2.6875,-2.6658,-2.6589,-2.6589,-2.6589,-2.6589,-2.6533,-2.6533,-2.6533,-2.6533,-2.6533,-2.6533,-2.6533,-2.6533,-2.6533,-2.6533,-2.6533,-2.6533,-2.6533,-2.6533,-2.6533,-2.6533,-2.6533,-2.6533,-2.6533,-2.6533,-2.6533,-2.6533,-2.6533,-2.6533,-2.6465,-2.6396,-2.6258,0.0,0.0,0.0,0.0,0.0,0.0,-2.6396,0.0,0.0,0.0,0.0,0.0,0.0,0.0,0.0,0.0,0.0,0.0,0.0,0.0,0.0,0.0,0.0,0.0,0.0,-2.6533,-2.6533,-2.6533,-2.6533,-2.6533,-2.6533,-2.6533,-2.6533,-2.6533,-2.6533,-2.6533,-2.6589,-2.6726,-2.6985,-2.7201,-2.7335,-2.7403,-2.7656,-2.8053,0.0,-2.3078,0.0,0.0,-2.286,0.0,-2.2371,-2.2371,-2.2359,-2.2185,-2.2197,-2.2234,-2.2354,-2.2727,-2.3063,-2.3292,-2.3688,-2.4145,-2.465,-2.4687,-2.5294,-2.6633,-2.6496,-2.6824,-2.7776,-2.759,-2.7523,0.0,0.0,0.0,0.0,-2.7523,0.0,0.0,0.0,0.0,0.0,0.0,-2.6863,-2.7011,-2.6863,-2.6794,-2.6794,-2.6726,-2.6658,-2.6521,-2.6533,-2.6533,-2.6533,-2.6533,-2.6533,-2.6521,-2.6658,-2.6714,-2.6714,-2.6714,-2.6714,-2.6658,-2.6521,-2.6533,-2.6533,-2.6533,-2.6533,-2.6533,-2.6533,-2.6533,-2.6533,-2.6533,-2.6533,-2.6533,-2.6533,-2.6533,0.0,0.0,0.0,0.0,0.0,0.0,0.0,0.0,0.0,0.0,-2.6533,0.0,0.0,0.0,0.0,0.0,-2.6533,0.0,0.0,0.0,0.0,-2.6533,-2.6533,0.0,-2.6533,-2.6533,-2.6533,-2.6533,-2.6533,-2.6533,-2.6533,-2.6533,-2.6533,-2.6533,-2.6533,-2.6521,-2.6589,-2.6658,-2.6726,-2.693,-2.7201,-2.7201,-2.7268,-2.7468,0.0,0.0,0.0,0.0,0.0,0.0,-2.2678,-2.2494,-2.2359,-2.2185,-2.2197,-2.2378,-2.2859,-2.2955,-2.3364,-2.4302,-2.4422,-2.4675,-2.5204,-2.524,-2.5685,-2.6645,-2.6496,-2.6824,-2.7776,-2.759,-2.7523,0.0,0.0,-2.7523,0.0,0.0,0.0,0.0,0.0,0.0,0.0,-2.7146,-2.7079,-2.7268,-2.7079,-2.6943,-2.6943,-2.6794,-2.6714,-2.6658,-2.6521,-2.6533,-2.6533,-2.6533,-2.6533,-2.6589,-2.7229,-2.7417,-2.7417,-2.7417,-2.7417,-2.7297,-2.6658,-2.6533,-2.6533,-2.6533,-2.6533,-2.6533,-2.6533,-2.6533,-2.6533,-2.6533,-2.6533,-2.6533,-2.6533,-2.6533,-2.6465,0.0,0.0,0.0,0.0,0.0,-2.6533,-2.6533,0.0,0.0,-2.6533,-2.6533,0.0,0.0,-2.6533,0.0,0.0,0.0,0.0,-2.6533,0.0,-2.6533,-2.6533,-2.6533,-2.6533,-2.6533,-2.6533,-2.6533,-2.6533,-2.6533,-2.6533,-2.6533,-2.6533,-2.6533,-2.6533,-2.6658,-2.6589,-2.6533,-2.6875,-2.6863,-2.6794,-2.6943,-2.7011,-2.7024,0.0,0.0,0.0,0.0,0.0,0.0,0.0,-2.2824,-2.3095,-2.3157,-2.2844,-2.2871,-2.34,-2.3725,-2.4207,-2.4958,-2.5301,-2.5778,-2.6264,-2.6346,-2.662,-2.731,-2.7188,-2.7323,-2.8,-2.7789,-2.759,0.0,0.0,0.0,0.0,0.0,0.0,0.0,0.0,-2.7469,-2.7456,-2.7268,-2.7268,-2.7403,-2.7214,-2.7214,-2.7146,-2.7066,-2.6918,-2.6714,-2.6658,-2.6589,-2.6589,-2.6973,-2.685,-2.6521,-2.685,-2.6905,-2.6973,-2.7351,-2.7484,-2.7417,-2.7162,-2.7095,-2.6973,-2.6589,-2.6533,-2.6533,-2.6533,-2.6533,-2.6533,-2.6533,-2.6533,-2.6533,-2.6533,-2.6533,-2.6533,0.0,0.0,0.0,0.0,0.0,0.0,-2.6533,0.0,-2.6533,-2.6533,-2.6533,0.0,0.0,0.0,0.0,0.0,0.0,0.0,-2.6533,0.0,-2.6533,-2.6533,-2.6533,-2.6533,-2.6533,-2.6533,-2.6533,-2.6533,-2.6533,-2.6533,-2.6533,-2.6533,-2.6533,-2.6533,-2.6589,-2.6589,-2.6658,-2.6671,-2.6807,-2.6875,-2.6794,-2.6875,-2.6943,-2.3078,0.0,-2.3078,0.0,-2.3017,-2.3067,-2.2874,-2.3356,-2.3903,-2.4355,-2.4137,-2.4026,-2.422,-2.4584,-2.5,-2.5567,-2.6145,-2.6633,-2.6973,-2.6973,-2.7242,-2.7723,-2.759,0.0,-2.8,-2.7855,-2.7723,-2.7523,-2.7523,0.0,0.0,0.0,0.0,0.0,-2.7523,-2.7523,-2.7456,-2.7403,-2.7403,-2.7456,-2.7403,-2.7335,-2.7335,-2.7335,-2.7134,-2.6863,-2.6714,-2.6658,-2.6658,-2.7284,-2.7162,-2.685,-2.704,-2.7095,-2.7162,-2.767,-2.7934,-2.8065,-2.7855,-2.7802,-2.7604,-2.6973,-2.6782,-2.6714,-2.6521,-2.6533,-2.6533,-2.6533,-2.6533,-2.6533,-2.6533,-2.6533,-2.6533,-2.6533,0.0,0.0,0.0,-2.6533,0.0,-2.6533,-2.6533,-2.6533,-2.6533,-2.6533,0.0,0.0,0.0,0.0,0.0,0.0,0.0,0.0,0.0,0.0,0.0,-2.6533,-2.6533,-2.6533,-2.6533,-2.6533,-2.6533,-2.6533,-2.6533,-2.6533,-2.6533,-2.6533,-2.6533,-2.6533,-2.6589,-2.6658,-2.6521,-2.6671,-2.6807,-2.6658,-2.6726,-2.6807,-2.3078,-2.3078,-2.3078,-2.3078,-2.3078,-2.3326,-2.3904,-2.4165,-2.4683,-2.5724,-2.6049,-2.5983,-2.5465,-2.5411,-2.5635,-2.6171,-2.6701,-2.6973,-2.6973,-2.6973,-2.7175,0.0,0.0,-2.759,-2.7776,-2.7776,-2.7723,-2.7523,0.0,0.0,-2.7523,0.0,-2.7523,-2.7523,-2.7523,-2.7523,-2.7523,-2.7523,-2.7523,-2.7523,-2.7523,-2.7523,-2.7469,-2.7335,-2.7268,-2.7268,-2.685,-2.6714,-2.6782,-2.7284,-2.7484,-2.7604,-2.8233,-2.8492,-2.8492,-2.8492,-2.9016,-2.9421,-2.8698,-2.8492,-2.8298,-2.767,-2.7484,-2.7284,-2.6658,-2.6533,-2.6533,-2.6533,-2.6533,-2.6533,-2.6533,-2.6533,-2.6533,-2.6533,0.0,0.0,0.0,0.0,0.0,-2.6533,-2.6533,-2.6533,-2.6533,-2.6533,0.0,0.0,0.0,0.0,0.0,0.0,0.0,-2.6533,-2.6533,0.0,-2.6533,-2.6533,-2.6533,-2.6533,-2.6533,-2.6533,-2.6533,-2.6533,-2.6533,-2.6533,-2.6533,-2.6533,-2.6533,-2.6533,-2.6533,-2.6533,-2.6533,-2.6533,-2.6533,-2.6533,-2.6533,-2.6533,-2.378,-2.378,-2.378,-2.378,-2.3755,-2.3901,-2.4436,-2.5228,-2.6102,-2.7157,-2.717,-2.7157,-2.7354,-2.6489,-2.6307,0.0,-2.7108,-2.731,0.0,-2.8118,-2.8118,-2.8262,-2.8262,-2.8249,-2.8157,-2.8052,-2.7934,-2.7723,0.0,0.0,0.0,-2.7523,-2.7523,-2.7523,-2.7523,-2.7523,-2.7523,-2.7523,-2.7523,-2.7523,-2.7523,-2.7523,-2.7523,-2.7469,-2.7403,-2.7268,-2.7134,-2.6998,-2.7066,-2.8026,-2.8078,-2.7894,-2.8903,-2.8583,-2.7802,-2.7802,-2.7986,-2.813,-2.7855,-2.8182,-2.8363,-2.767,-2.7868,-2.8117,-2.792,-2.7484,-2.704,-2.6589,-2.6533,-2.6533,-2.6533,-2.6533,-2.6533,-2.6533,-2.6533,0.0,0.0,0.0,-2.6533,-2.6533,-2.6533,-2.6533,-2.6533,-2.6533,0.0,0.0,0.0,0.0,0.0,0.0,0.0,0.0,-2.6533,0.0,-2.6533,-2.6533,-2.6533,-2.6533,-2.6533,-2.6533,-2.6533,-2.6533,-2.6533,-2.6533,-2.6533,-2.6533,-2.6533,-2.6533,-2.6533,-2.6533,-2.6533,-2.6533,-2.6533,-2.6533,-2.6533,-2.6533,-2.4452,-2.4452,-2.4532,-2.4744,-2.4507,-2.4664,-2.573,-2.6354,-2.7099,-2.8291,-2.8251,-2.8222,-2.856,-2.7497,0.0,-2.7709,-2.7643,-2.7921,-2.8522,-2.8587,-2.8587,-2.8587,-2.8587,-2.8509,-2.8287,-2.8197,0.0,-2.7776,-2.759,-2.7523,-2.7523,-2.7523,-2.7523,-2.7523,-2.7523,-2.7523,-2.7523,-2.7523,-2.7523,-2.7523,-2.7523,-2.7523,-2.7523,-2.7523,-2.7469,-2.7403,-2.7335,-2.7214,-2.7268,-2.8468,-2.8532,-2.8352,-2.9373,-2.903,-2.826,-2.7934,-2.8065,-2.826,-2.7934,-2.8182,-2.8427,-2.7986,-2.8182,-2.8492,-2.8492,-2.8182,-2.767,-2.704,-2.6905,-2.6782,-2.6521,-2.6533,-2.6533,-2.6533,-2.6533,-2.6533,-2.6533,0.0,-2.6533,0.0,0.0,0.0,0.0,-2.6533,-2.6533,0.0,0.0,0.0,0.0,0.0,0.0,-2.6533,-2.6533,0.0,-2.6533,-2.6533,-2.6533,-2.6533,-2.6533,-2.6533,-2.6533,-2.6533,-2.6533,-2.6533,-2.6533,-2.6533,-2.6533,-2.6533,-2.6533,-2.6533,-2.6533,-2.6533,-2.6533,-2.6533,-2.6533,-2.6533,-2.5063,-2.5104,-2.5308,0.0,-2.5501,0.0,-2.7509,-2.7552,-2.7809,-2.9016,-2.9162,-2.9162,-2.9162,-2.8365,-2.7855,-2.7855,0.0,0.0,0.0,-2.8587,-2.8587,-2.8587,-2.8587,-2.8509,-2.8287,-2.8197,-2.8,-2.7776,-2.759,-2.7523,-2.7523,-2.7523,-2.7523,-2.7523,-2.7523,-2.7523,-2.7523,-2.7523,-2.7523,-2.7523,-2.7523,-2.7523,-2.7523,-2.7523,-2.7523,-2.7523,-2.7403,-2.739,-2.7577,-2.8698,-2.8967,-2.898,-2.9623,-2.9747,-2.9546,-2.8762,-2.8967,-2.9359,-2.8698,-2.8492,-2.8492,-2.8492,-2.8492,-2.8492,-2.8427,-2.8427,-2.8247,-2.7537,-2.7417,-2.7229,-2.6589,-2.6533,-2.6533,-2.6533,-2.6533,-2.6533,-2.6533,0.0,0.0,0.0,0.0,0.0,0.0,-2.6533,-2.6533,0.0,0.0,0.0,0.0,0.0,-2.6533,-2.6533,-2.6533,-2.6533,-2.6533,-2.6533,-2.6533,-2.6533,-2.6533,-2.6533,-2.6533,-2.6533,-2.6533,-2.6533,-2.6533,-2.6533,-2.6533,-2.6533,-2.6533,-2.6533,-2.6533,-2.6533,-2.6533,-2.6533,-2.6533,-2.6533,0.0,0.0,-2.6413,-2.6567,-2.6832,-2.7359,-2.8335,-2.8781,-2.933,-3.0129,-3.0036,-2.9803,-2.9477,-2.9099,-2.8716,-2.8457,-2.8118,-2.8183,-2.8587,-2.8587,-2.8587,-2.8587,-2.8587,-2.8587,-2.8522,-2.8379,-2.8105,-2.7776,-2.759,-2.7523,-2.7523,-2.7523,-2.7523,-2.7523,-2.7523,-2.7523,-2.7523,-2.7523,-2.7523,-2.7523,-2.7523,-2.7523,-2.7523,-2.7523,-2.7842,-2.8287,-2.8222,-2.8519,-2.9016,-2.9156,-2.9546,-2.9931,-2.9808,-3.0129,-3.0251,-2.8889,-2.862,-2.8698,-2.8556,-2.8492,-2.8492,-2.8492,-2.8492,-2.8363,-2.7855,-2.7736,-2.7537,-2.6837,-2.6714,-2.6714,-2.6521,-2.6533,-2.6533,-2.6533,-2.6533,-2.6533,-2.6533,-2.6533,0.0,0.0,-2.6533,-2.6533,-2.6533,-2.6533,-2.6533,0.0,0.0,0.0,0.0,-2.6533,-2.6533,-2.6533,-2.6533,-2.6533,-2.6533,-2.6533,-2.6533,-2.6533,-2.6533,-2.6533,-2.6533,-2.6533,-2.6533,-2.6533,-2.6533,-2.6533,-2.6533,-2.6533,-2.6533,-2.6533,-2.6533,-2.6533,-2.6533,-2.6533,-2.6533,-2.6533,-2.6737,-2.7011,-2.7426,-2.7997,-2.811,-2.846,-2.9451,-2.9596,-2.9808,-3.0507,-3.028,-3.005,-2.9865,-2.9415,-2.9035,-2.8844,-2.8444,-2.8314,-2.8587,-2.8587,-2.8587,-2.8587,-2.8587,-2.8587,-2.8587,-2.843,-2.8157,-2.7776,-2.7723,-2.759,-2.7523,-2.7523,-2.7523,-2.7523,-2.7523,-2.7523,-2.7523,-2.7523,-2.7523,-2.7523,-2.7523,-2.7523,-2.7523,-2.7842,-2.8157,-2.8546,-2.8839,-2.9205,-2.9518,-2.978,-2.9993,-3.0251,-3.0433,-3.0568,-3.0568,-2.9917,-2.9331,-2.8953,-2.8556,-2.8492,-2.8556,-2.8889,-2.9205,-2.9268,-2.8634,-2.8454,-2.8195,-2.7162,-2.6973,-2.685,-2.6589,-2.6533,-2.6533,-2.6533,-2.6533,-2.6533,-2.6533,-2.6533,0.0,-2.6533,-2.6533,-2.6533,-2.6533,-2.6533,-2.6533,-2.6533,-2.6533,0.0,-2.6533,-2.6533,-2.6533,-2.6533,-2.6533,-2.6533,-2.6533,-2.6533,-2.6533,-2.6533,-2.6533,-2.6533,-2.6533,-2.6533,-2.6533,-2.6533,-2.6533,-2.6533,-2.6533,-2.6533,-2.6533,-2.6533,-2.6533,-2.6533,-2.6533,-2.6533,-2.6533,-2.6533,-2.7808,-2.7977,-2.8361,-2.9435,-2.9211,-2.9274,-3.0435,-3.0129,-2.9931,-3.0507,-3.0341,-3.0172,-3.0111,-2.9602,-2.9226,-2.9162,-2.8844,-2.8651,-2.8587,-2.8587,-2.8587,-2.8587,-2.8587,-2.8587,-2.8587,-2.843,-2.8157,-2.7908,-2.7842,-2.7723,-2.7523,-2.7523,-2.7523,-2.7523,-2.7523,-2.7523,-2.7523,-2.759,-2.7656,-2.7656,-2.7776,-2.7776,-2.7829,-2.8352,-2.861,-2.8839,-2.9331,-2.9628,-2.9889,-3.0329,-3.0418,-3.0433,-3.0984,-3.0925,-3.0762,-3.1014,-3.0447,-2.9608,-2.9016,-2.8762,-2.8762,-2.9296,-2.987,-3.0115,-2.9546,-2.9421,-2.9093,-2.7934,-2.7537,-2.7351,-2.6782,-2.6589,-2.6533,-2.6533,-2.6533,-2.6533,-2.6533,0.0,-2.6533,-2.6533,-2.6533,-2.6533,-2.6533,-2.6533,-2.6533,-2.6533,-2.6533,-2.6533,-2.6533,-2.6533,-2.6533,-2.6533,-2.6533,-2.6533,-2.6533,-2.6533,-2.6533,-2.6533,-2.6533,-2.6533,-2.6533,-2.6533,-2.6533,-2.6533,-2.6533,-2.6533,-2.6533,-2.6533,-2.6533,-2.6533,-2.6533,-2.6533,-2.6533,-2.6533,-2.6533,-2.6533,-2.7896,-2.8803,-2.9579,-2.9595,-3.0,-3.0332,-3.0553,-3.0507,-3.0507,-3.0568,-3.0568,-3.0401,-3.0111,-2.9988,-2.9803,-2.954,-2.9226,-2.8908,-2.8587,-2.8587,-2.8587,-2.8587,-2.8587,-2.8587,-2.8587,-2.843,-2.8287,-2.8222,-2.7908,-2.7776,-2.7789,-2.759,-2.7523,-2.7523,-2.7523,-2.7523,-2.7523,-2.8105,-2.8352,-2.8417,-2.8953,-2.9205,-2.9142,-2.8661,-2.9219,-3.0147,-2.9704,-3.0208,-3.1087,-3.0644,-3.0837,-3.1176,-3.0493,-3.0673,-3.1176,-3.0881,-3.0762,-3.0568,-3.0493,-2.9931,-2.9296,-2.8826,-2.8762,-2.8826,-2.8684,-2.8684,-2.862,-2.8363,-2.7855,-2.7484,-2.7351,-2.6905,-2.6533,-2.6533,-2.6533,-2.6533,-2.6533,0.0,-2.6533,-2.6533,-2.6533,-2.6533,-2.6533,-2.6533,-2.6533,-2.6533,-2.6533,-2.6533,-2.6533,-2.6533,-2.6533,-2.6533,-2.6533,-2.6533,-2.6533,-2.6533,-2.6533,-2.6533,-2.6533,-2.6533,-2.6533,-2.6533,-2.6533,-2.6533,-2.6533,-2.6533,-2.6533,-2.6533,-2.6533,-2.6533,-2.6533,-2.6533,-2.6533,-2.6533,-2.6533,-2.6533,-2.9094,-2.956,-2.9973,-3.0207,-3.0438,-3.0568,-3.0568,-3.0568,-3.0568,-3.0568,-3.0568,-3.0522,-3.0401,-3.0233,-3.005,-2.9865,-2.954,-2.9226,-2.8908,-2.8716,-2.8587,-2.8587,-2.8587,-2.8587,-2.8587,-2.8509,-2.843,-2.8287,-2.8157,-2.8039,-2.7934,-2.7789,-2.7656,-2.7656,-2.7523,-2.7723,-2.8039,-2.8352,-2.8725,-2.9093,-2.9393,-2.9504,-2.9518,-2.9594,-2.9964,-3.0524,-3.0584,-3.097,-3.1467,-3.1161,-3.1219,-3.1351,-3.0984,-3.0999,-3.119,-3.1117,-3.0999,-3.0955,-3.0821,-3.0628,-3.0312,-2.9856,-2.9732,-2.9594,-2.9219,-2.9093,-2.8953,-2.8556,-2.8247,-2.8051,-2.8051,-2.7484,-2.704,-2.704,-2.6714,0.0,0.0,-2.6533,-2.6533,-2.6533,-2.6533,-2.6533,-2.6533,-2.6533,-2.6533,-2.6533,-2.6533,-2.6533,-2.6533,-2.6533,-2.6533,-2.6533,-2.6533,-2.6533,-2.6533,-2.6533,-2.6533,-2.6533,-2.6533,-2.6533,-2.6533,-2.6533,-2.6533,-2.6533,-2.6533,-2.6533,-2.6533,-2.6533,-2.6533,-2.6533,-2.6533,-2.6533,-2.6533,-2.6533,-2.6533,-2.6533,-3.0119,-3.0374,-3.0526,-3.0807,-3.0866,-3.0807,-3.0687,-3.0642,-3.0568,-3.0568,-3.0568,-3.0568,-3.0568,-3.0341,-3.0233,-3.0233,-2.9927,-2.954,-2.9226,-2.8908,-2.8651,-2.8587,-2.8587,-2.8587,-2.8587,-2.8766,-2.8688,-2.8365,-2.8481,-2.843,-2.8131,-2.7921,-2.7908,-2.8039,-2.7842,-2.8039,-2.8546,-2.8853,-2.9156,-2.9504,-2.9827,-2.995,-3.0011,-3.0329,-3.0584,-3.0777,-3.1161,-3.1351,-3.1482,-3.1482,-3.1409,-3.1351,-3.1409,-3.1307,-3.119,-3.1292,-3.1234,-3.1073,-3.0821,-3.0895,-3.1014,-3.0821,-3.0762,-3.0642,-3.0007,-2.9808,-2.967,-2.9079,-2.8889,-2.8762,-2.8762,-2.8182,-2.767,-2.755,0.0,0.0,0.0,-2.6533,-2.6533,-2.6533,-2.6533,-2.6533,-2.6533,-2.6533,-2.6533,-2.6533,-2.6533,-2.6533,-2.6533,-2.6533,-2.6533,-2.6533,-2.6533,-2.6533,-2.6533,-2.6533,-2.6533,-2.6533,-2.6533,-2.6533,-2.6533,-2.6533,-2.6533,-2.6533,-2.6533,-2.6533,-2.6533,-2.6533,-2.6533,-2.6533,-2.6533,-2.6533,-2.6533,-2.6533,-2.6533,-2.6533,-3.0297,-3.1155,-3.1762,-3.1176,-3.1379,-3.1407,-3.0881,-3.0702,-3.0568,-3.0568,-3.0568,-3.0568,-3.0568,-3.0582,-3.0568,-3.0568,-3.0294,-2.9927,-2.9602,-2.9226,-2.8908,-2.8587,-2.8587,-2.8587,-2.8587,-2.917,-2.9156,-2.8587,-2.9008,-2.8917,-2.83,-2.7973,-2.8091,-2.8739,-2.8546,-2.8481,-2.8597,-2.9842,-3.0011,-2.9628,-3.0837,-3.1351,-3.1278,-3.0718,-3.0896,-3.1351,-3.0777,-3.097,-3.1482,-3.1482,-3.1482,-3.1467,-3.1351,-3.1409,-3.1482,-3.1351,-3.1278,-3.1161,-3.0762,-3.0821,-3.1014,-3.0702,-3.0702,-3.0762,-3.0568,-3.0507,-3.0507,-3.0447,-2.9931,-2.9484,-2.9484,-2.8889,-2.8247,-2.7604,0.0,0.0,-2.6589,-2.6533,-2.6533,-2.6533,-2.6533,-2.6533,-2.6533,-2.6533,-2.6533,-2.6533,-2.6533,-2.6533,-2.6533,-2.6533,-2.6533,-2.6533,-2.6533,-2.6533,-2.6533,-2.6533,-2.6533,-2.6533,-2.6533,-2.6533,-2.6533,-2.6533,-2.6533,-2.6533,-2.6533,-2.6533,-2.6533,-2.6533,-2.6533,-2.6533,-2.6533,-2.6533,-2.6533,-2.6533,-2.6533,-2.6533,-3.1551,-3.16,-3.161,-3.1709,-3.1652,-3.1537,-3.1364,-3.1146,-3.0925,-3.0642,-3.0568,-3.0687,-3.0984,-3.1043,-3.1146,-3.1364,-3.1029,-3.0687,-3.0372,-3.0115,-2.956,-2.8651,-2.8587,-2.8587,-2.8587,-2.8817,-2.8994,-2.917,-2.9345,-2.9532,-2.9656,-2.938,-2.9428,-2.969,-2.938,-2.9532,-2.9964,-3.0329,-3.0584,-3.0777,-3.1278,-3.1482,-3.1467,-3.1219,-3.1278,-3.1467,-3.1219,-3.1278,-3.1482,-3.1482,-3.1482,-3.1482,-3.1409,-3.1467,-3.1467,-3.1351,-3.1278,-3.1219,-3.0999,-3.1058,-3.1117,-3.0821,-3.0895,-3.0895,-3.0642,-3.0568,-3.0568,-3.0568,-3.0387,-3.0068,-2.9685,-2.903,-2.8298,-2.7604,0.0,-2.6782,-2.6521,-2.6533,-2.6533,-2.6533,-2.6533,-2.6533,-2.6533,-2.6533,-2.6533,-2.6533,-2.6533,-2.6533,-2.6533,-2.6533,-2.6533,-2.6533,-2.6533,-2.6533,-2.6533,-2.6533,-2.6533,-2.6533,-2.6533,-2.6533,-2.6533,-2.6533,-2.6533,-2.6533,-2.6533,-2.6533,-2.6533,-2.6533,-2.6533,-2.6533,-2.6533,-2.6533,-2.6533,-2.6533,-2.6533,-2.6533,-3.2548,-3.2256,-3.2018,-3.2391,-3.213,-3.1864,-3.1977,-3.1709,-3.1379,-3.1029,-3.1029,-3.1146,-3.1437,-3.1509,-3.161,-3.1879,-3.1667,-3.1321,-3.0955,-3.0644,-3.0101,-2.9261,-2.9198,-2.9198,-2.9198,-2.9373,-2.9608,-2.9827,-2.9997,-3.0254,-3.0524,-3.0286,-3.0346,-3.0526,-3.03,-3.0389,-3.0777,-3.0896,-3.1029,-3.1219,-3.1409,-3.1482,-3.1482,-3.1482,-3.1482,-3.1482,-3.1482,-3.1482,-3.1482,-3.1482,-3.1482,-3.1482,-3.1482,-3.1482,-3.1467,-3.1409,-3.1351,-3.1292,-3.119,-3.1234,-3.1219,-3.094,-3.1014,-3.1073,-3.0762,-3.0642,-3.0642,-3.0628,-3.0568,-3.0447,-3.0007,-2.947,-2.8889,-2.7986,-2.7417,-2.6973,-2.6589,-2.6533,-2.6533,-2.6533,-2.6533,-2.6533,-2.6533,-2.6533,-2.6533,-2.6533,-2.6533,-2.6533,-2.6533,-2.6533,-2.6533,-2.6533,-2.6533,-2.6533,-2.6533,-2.6533,-2.6533,-2.6533,-2.6533,-2.6533,-2.6533,-2.6533,-2.6533,-2.6533,-2.6533,-2.6533,-2.6533,-2.6533,-2.6533,-2.6533,-2.6533,-2.6533,-2.6533,-2.6533,-2.6533,-2.6533,-3.3198,-3.3182,-3.3182,-3.3198,-3.2895,-3.2602,-3.2602,-3.2201,-3.1936,-3.1879,-3.1879,-3.1879,-3.1936,-3.1936,-3.1936,-3.1936,-3.1936,-3.1694,-3.1233,-3.0748,-3.051,-3.051,-3.0524,-3.0524,-3.0524,-3.1175,-3.1175,-3.0524,-3.1175,-3.1175,-3.0524,-3.03,-3.0585,-3.1218,-3.1102,-3.0925,-3.0837,-3.1539,-3.1278,-3.0584,-3.1219,-3.1482,-3.1482,-3.1482,-3.1482,-3.1482,-3.1482,-3.1482,-3.1482,-3.1482,-3.1482,-3.1482,-3.1482,-3.1482,-3.1482,-3.1482,-3.1409,-3.1278,-3.1278,-3.1278,-3.1292,-3.1132,-3.119,-3.1219,-3.0881,-3.0821,-3.0762,-3.0642,-3.0568,-3.0568,-3.0568,-3.0568,-3.0115,-2.8748,-2.8492,-2.8051,-2.6714,-2.6533,-2.6533,-2.6533,-2.6533,-2.6533,-2.6533,-2.6533,-2.6533,-2.6533,-2.6533,-2.6533,-2.6533,-2.6533,-2.6533,-2.6533,-2.6533,-2.6533,-2.6533,-2.6533,-2.6533,-2.6533,-2.6533,-2.6533,-2.6533,-2.6533,-2.6533,-2.6533,-2.6533,-2.6533,-2.6533,-2.6533,-2.6533,-2.6533,-2.6533,-2.6533,-2.6533,-2.6533,-2.6533,-2.6533,-3.3815,-3.3475,-3.3303,-3.3764,-3.3575,-3.3298,-3.3198,-3.2879,-3.2461,-3.1992,-3.1879,-3.2048,-3.2367,-3.2367,-3.2547,-3.285,-3.2602,-3.2272,-3.1951,-3.1781,-3.1709,-3.1807,-3.0984,-3.0524,-3.0524,-3.0703,-3.094,-3.119,-3.1422,-3.1595,-3.1807,-3.1792,-3.1849,-3.2048,-3.1879,-3.1838,-3.1781,-3.1868,-3.1769,-3.1409,-3.1597,-3.1597,-3.1482,-3.1482,-3.1482,-3.1482,-3.1482,-3.1482,-3.1482,-3.1482,-3.1482,-3.1482,-3.1482,-3.1482,-3.1482,-3.1482,-3.1467,-3.1409,-3.1409,-3.1409,-3.1424,-3.1146,-3.119,-3.1234,-3.1073,-3.1014,-3.1014,-3.0955,-3.0821,-3.0568,-3.0129,-2.9931,-2.9608,-2.862,-2.8492,-2.8182,-2.7284,-2.7229,-2.704,-2.6589,-2.6533,-2.6533,-2.6533,-2.6533,-2.6533,-2.6533,-2.6533,-2.6533,-2.6533,-2.6533,-2.6533,-2.6533,-2.6533,-2.6533,-2.6533,-2.6533,-2.6533,-2.6533,-2.6533,-2.6533,-2.6533,-2.6533,-2.6533,-2.6533,-2.6533,-2.6533,-2.6533,-2.6533,-2.6533,-2.6533,-2.6533,-2.6533,-2.6533,-2.6533,-2.6533,-2.6533,-3.4448,-3.4036,-3.3953,-3.4513,-3.435,-3.407,-3.3903,-3.3665,-3.3198,-3.2547,-3.2453,-3.2563,-3.2834,-3.2888,-3.2996,-3.3309,-3.3011,-3.2742,-3.2594,-3.2484,-3.2484,-3.2578,-3.1751,-3.1291,-3.1276,-3.1276,-3.1465,-3.1879,-3.1879,-3.2048,-3.2398,-3.2398,-3.2398,-3.2398,-3.2302,-3.2247,-3.2191,-3.2094,-3.1996,-3.1898,-3.1898,-3.1769,-3.1597,-3.1597,-3.1597,-3.1482,-3.1482,-3.1482,-3.1482,-3.1482,-3.1482,-3.1482,-3.1482,-3.1482,-3.1482,-3.1482,-3.1482,-3.1482,-3.1482,-3.1482,-3.1482,-3.1307,-3.1307,-3.1351,-3.119,-3.119,-3.119,-3.1132,-3.1014,-3.0702,-3.0068,-2.987,-2.9546,-2.8812,-2.8684,-2.8556,-2.8065,-2.7736,-2.7417,-2.6973,-2.6658,-2.6533,-2.6533,-2.6533,-2.6533,-2.6533,-2.6533,-2.6533,-2.6533,-2.6533,-2.6533,-2.6533,-2.6533,-2.6533,-2.6533,-2.6533,-2.6533,-2.6533,-2.6533,-2.6533,-2.6533,-2.6533,-2.6533,-2.6533,-2.6533,-2.6533,-2.6533,-2.6533,-2.6533,-2.6533,-2.6533,-2.6533,-2.6533,-2.6533,-2.6533,-2.6533,-3.5071,-3.4833,-3.483,-3.5362,-3.5065,-3.4733,-3.4704,-3.4464,-3.4086,-3.3539,-3.3398,-3.3398,-3.3346,-3.3361,-3.3309,-3.3309,-3.3203,-3.3096,-3.3096,-3.3005,-3.2897,-3.2897,-3.2718,-3.2578,-3.2398,-3.2398,-3.2398,-3.2398,-3.2398,-3.2398,-3.2398,-3.2398,-3.2398,-3.2398,-3.2398,-3.2342,-3.2247,-3.2247,-3.215,-3.2053,-3.2053,-3.194,-3.1799,-3.1784,-3.167,-3.1539,-3.1539,-3.1482,-3.1482,-3.1482,-3.1482,-3.1482,-3.1482,-3.1482,-3.1482,-3.1482,-3.1482,-3.1482,-3.1482,-3.1482,-3.1482,-3.1482,-3.1482,-3.1467,-3.1351,-3.1351,-3.1292,-3.1132,-3.1132,-3.0955,-3.0312,-3.019,-2.9993,-2.9331,-2.9192,-2.9079,-2.8853,-2.826,-2.7736,-2.7484,-2.6918,-2.6533,-2.6521,-2.6533,-2.6533,-2.6533,-2.6533,-2.6533,-2.6533,-2.6533,-2.6533,-2.6533,-2.6533,-2.6533,-2.6533,-2.6533,-2.6533,-2.6533,-2.6533,-2.6533,-2.6533,-2.6533,-2.6533,-2.6533,-2.6533,-2.6533,-2.6533,-2.6533,-2.6533,-2.6533,-2.6533,-2.6533,-2.6533,-2.6533,-2.6533,-2.6533,-3.5688,-3.5436,-3.5345,-3.5749,-3.5464,-3.5283,-3.5295,-3.5278,-3.5094,-3.4704,-3.4284,-3.3951,-3.3949,-3.3555,-3.3309,-3.3309,-3.3256,-3.3203,-3.3112,-3.3043,-3.3005,-3.2897,-3.2843,-3.2773,-3.2578,-3.2453,-3.2398,-3.2398,-3.2398,-3.2398,-3.2398,-3.2398,-3.2398,-3.2398,-3.2398,-3.2398,-3.2342,-3.2342,-3.2302,-3.215,-3.215,-3.2094,-3.194,-3.1841,-3.1784,-3.1727,-3.1539,-3.1482,-3.1482,-3.1482,-3.1482,-3.1482,-3.1482,-3.1482,-3.1482,-3.1482,-3.1482,-3.1482,-3.1482,-3.1482,-3.1482,-3.1482,-3.1482,-3.1482,-3.1467,-3.1467,-3.1482,-3.1424,-3.1351,-3.1234,-3.1043,-3.094,-3.0821,-3.0687,-3.0628,-3.0237,-2.9142,-2.8812,-2.8312,-2.7268,-2.7011,-2.6807,-2.6658,-2.6589,-2.6533,-2.6533,-2.6533,-2.6533,-2.6533,-2.6533,-2.6533,-2.6533,-2.6533,-2.6533,-2.6533,-2.6533,-2.6533,-2.6533,-2.6533,-2.6533,-2.6533,-2.6533,-2.6533,-2.6533,-2.6533,-2.6533,-2.6533,-2.6533,-2.6533,-2.6533,-2.6533,-2.6533,-2.6533,-2.6533,-2.6533,-2.6533,-3.595,-3.5924,-3.6002,-3.6156,-3.6156,-3.6097,-3.5803,-3.5803,-3.561,-3.5094,-3.4783,-3.456,-3.4545,-3.4202,-3.4018,-3.4018,-3.3797,-3.3642,-3.3607,-3.3346,-3.3309,-3.345,-3.3382,-3.3403,-3.3563,-3.3355,-3.3002,-3.2398,-3.2398,-3.2398,-3.2398,-3.2641,-3.2788,-3.2788,-3.3055,-3.3161,-3.3161,-3.3161,-3.2964,-3.2695,-3.2964,-3.2656,-3.2094,-3.2287,-3.2191,-3.1898,-3.1769,-3.1712,-3.1597,-3.1539,-3.1482,-3.1482,-3.1482,-3.1482,-3.1482,-3.1482,-3.1482,-3.1482,-3.1482,-3.1482,-3.1482,-3.1482,-3.1482,-3.1482,-3.1482,-3.1482,-3.1482,-3.1482,-3.1409,-3.1278,-3.097,-3.0851,-3.0807,-3.0807,-3.0807,-3.0673,-3.0147,-2.9518,-2.8839,-2.8078,-2.739,-2.6943,-2.6875,-2.6658,-2.6589,-2.6589,-2.6521,-2.6533,-2.6533,-2.6533,-2.6533,-2.6533,-2.6533,-2.6533,-2.6533,-2.6533,-2.6533,-2.6533,-2.6533,-2.6533,-2.6533,-2.6533,-2.6533,-2.6533,-2.6533,-2.6533,-2.6533,-2.6533,-2.6533,-2.6533,-2.6533,-2.6533,-2.6533,-2.6533,-2.6521,-2.6589,-3.6165,-3.6284,-3.6544,-3.6585,-3.6788,-3.6771,-3.6326,-3.6224,-3.6037,-3.5487,-3.5278,-3.5157,-3.5111,-3.4958,-3.4769,-3.4769,-3.4464,-3.4234,-3.4234,-3.3781,-3.3729,-3.4184,-3.4052,-3.4169,-3.4576,-3.4382,-3.3735,-3.2695,-3.2695,-3.2641,-3.2695,-3.3145,-3.3355,-3.3355,-3.3818,-3.3986,-3.3986,-3.3986,-3.3767,-3.3407,-3.3818,-3.3423,-3.2547,-3.3002,-3.2788,-3.2287,-3.2302,-3.2191,-3.2094,-3.191,-3.1739,-3.1682,-3.164,-3.1582,-3.1482,-3.1482,-3.1482,-3.1482,-3.1482,-3.1482,-3.1482,-3.1482,-3.1482,-3.1482,-3.1482,-3.1482,-3.1482,-3.1482,-3.1482,-3.1351,-3.0777,-3.0644,-3.0644,-3.0644,-3.0644,-3.0777,-3.1087,-3.0222,-2.9407,-2.9129,-2.7947,-2.7214,-2.7079,-2.6863,-2.6726,-2.6726,-2.6589,-2.6533,-2.6602,-2.6533,-2.6533,-2.6521,-2.6533,-2.6533,-2.6533,-2.6533,-2.6533,-2.6533,-2.6533,-2.6533,-2.6533,-2.6533,-2.6533,-2.6533,-2.6533,-2.6533,-2.6533,-2.6533,-2.6533,-2.6533,-2.6533,-2.6533,-2.6533,-2.6533,-2.6589,-2.6658,-3.6913,-3.665,-3.6585,-3.6869,-3.6748,-3.6626,-3.6851,-3.6891,-3.6794,-3.6591,-3.6224,-3.5864,-3.561,-3.5128,-3.4769,-3.4769,-3.4738,-3.469,-3.469,-3.4642,-3.4642,-3.469,-3.4673,-3.4657,-3.4576,-3.4576,-3.4333,-3.3937,-3.3869,-3.3767,-3.3783,-3.3885,-3.3869,-3.3869,-3.3986,-3.3986,-3.3986,-3.3986,-3.3986,-3.3869,-3.3986,-3.3869,-3.3767,-3.37,-3.3649,-3.3531,-3.3443,-3.3391,-3.3339,-3.3182,-3.2826,-3.2437,-3.2342,-3.191,-3.1482,-3.1482,-3.1482,-3.1482,-3.1482,-3.1482,-3.1482,-3.1482,-3.1482,-3.1482,-3.1482,-3.1482,-3.1482,-3.1482,-3.1482,-3.1467,-3.1409,-3.1351,-3.1351,-3.1351,-3.1351,-3.1219,-3.0703,-3.0464,-3.0086,-2.9504,-2.8648,-2.7908,-2.7335,-2.7079,-2.6943,-2.6943,-2.6794,-2.6726,-2.6943,-2.6671,-2.6521,-2.6658,-2.6589,-2.6533,-2.6533,-2.6533,-2.6533,-2.6533,-2.6533,-2.6533,-2.6533,-2.6533,-2.6533,-2.6533,-2.6533,-2.6533,-2.6533,-2.6533,-2.6533,-2.6533,-2.6533,-2.6533,-2.6533,-2.6533,-2.6533,-2.6521,-3.7395,-3.7188,-3.7052,-3.7009,-3.6869,-3.6829,-3.6987,-3.6987,-3.6987,-3.6908,-3.669,-3.6468,-3.6308,-3.5968,-3.5705,-3.5644,-3.5374,-3.5253,-3.5253,-3.4975,-3.4911,-3.5253,-3.5253,-3.5328,-3.5537,-3.5509,-3.5436,-3.5328,-3.4496,-3.4053,-3.4036,-3.4333,-3.4431,-3.448,-3.4769,-3.488,-3.488,-3.488,-3.4721,-3.448,-3.4769,-3.4529,-3.4036,-3.4268,-3.4153,-3.3903,-3.3735,-3.3684,-3.3582,-3.3443,-3.3287,-3.3145,-3.2986,-3.2788,-3.2555,-3.2555,-3.2516,-3.2461,-3.2461,-3.2216,-3.2023,-3.2023,-3.1754,-3.1482,-3.1482,-3.1482,-3.1482,-3.1482,-3.1482,-3.1482,-3.1482,-3.1482,-3.1482,-3.1482,-3.1482,-3.1409,-3.1087,-3.0718,-3.0086,-2.9093,-2.8274,-2.7723,-2.7469,-2.7268,-2.7146,-2.7146,-2.6863,-2.6726,-2.6794,-2.6589,-2.6521,-2.6589,-2.6521,-2.6533,-2.6533,-2.6533,-2.6533,-2.6533,-2.6533,-2.6533,-2.6533,-2.6533,-2.6533,-2.6533,-2.6533,-2.6533,-2.6533,-2.6533,-2.6533,-2.6533,-2.6533,-2.6533,-2.6533,-2.6589,-2.6658,-2.6807]},{"header":{"parameterUnit":"m.s-1","parameterCategory":1,"la1":30.6,"la2":28.766,"lo1":-90.7593,"lo2":-88.6598,"dy":0.0162,"dx":0.0183,"nx":116,"ny":114,"refTime":"2023-04-24T06:00:00:Z","depth":0,"parameterNumber":3,"parameterNumberName":"V-component_of_WINDS"},"data":[0.0,0.0,0.0,0.0,0.0,0.0,0.0,0.0,0.0,0.0,0.0,0.0,0.0,0.0,0.0,0.0,0.0,0.0,0.0,0.0,0.0,0.0,0.0,0.0,0.0,0.0,0.0,0.0,0.0,0.0,0.0,0.0,0.0,0.0,0.0,0.0,0.0,0.0,0.0,0.0,0.0,0.0,0.0,0.0,0.0,0.0,0.0,0.0,0.0,0.0,0.0,0.0,0.0,0.0,0.0,0.0,0.0,0.0,0.0,0.0,0.0,0.0,0.0,0.0,0.0,0.0,0.0,0.0,0.0,0.0,0.0,0.0,0.0,0.0,0.0,0.0,0.0,0.0,0.0,0.0,0.0,0.0,0.0,0.0,0.0,0.0,0.0,0.0,0.0,0.0,0.0,0.0,0.0,0.0,0.0,0.0,0.0,0.0,0.0,0.0,0.0,0.0,0.0,0.0,0.0,0.0,0.0,0.0,0.0,0.0,0.0,0.0,0.0,0.0,0.0,0.0,0.0,0.0,0.0,0.0,0.0,0.0,0.0,0.0,0.0,0.0,0.0,0.0,0.0,0.0,0.0,0.0,0.0,0.0,0.0,0.0,0.0,0.0,0.0,0.0,0.0,0.0,0.0,0.0,0.0,0.0,0.0,0.0,0.0,0.0,0.0,0.0,0.0,0.0,0.0,0.0,0.0,0.0,0.0,0.0,0.0,0.0,0.0,0.0,0.0,0.0,0.0,0.0,0.0,0.0,0.0,0.0,0.0,0.0,0.0,0.0,0.0,0.0,0.0,0.0,0.0,0.0,0.0,0.0,0.0,0.0,0.0,0.0,0.0,0.0,0.0,0.0,0.0,0.0,0.0,0.0,0.0,0.0,0.0,0.0,0.0,0.0,0.0,0.0,0.0,0.0,0.0,0.0,0.0,0.0,0.0,0.0,0.0,0.0,0.0,0.0,0.0,0.0,0.0,0.0,0.0,0.0,0.0,0.0,0.0,0.0,0.0,0.0,0.0,0.0,0.0,0.0,0.0,0.0,0.0,0.0,0.0,0.0,0.0,0.0,0.0,0.0,0.0,0.0,0.0,0.0,0.0,0.0,0.0,0.0,0.0,0.0,0.0,0.0,0.0,0.0,0.0,0.0,0.0,0.0,0.0,0.0,0.0,0.0,0.0,0.0,0.0,0.0,0.0,0.0,0.0,0.0,0.0,0.0,0.0,0.0,0.0,0.0,0.0,0.0,0.0,0.0,0.0,0.0,0.0,0.0,0.0,0.0,0.0,0.0,0.0,0.0,0.0,0.0,0.0,0.0,0.0,0.0,0.0,0.0,0.0,0.0,0.0,0.0,0.0,0.0,0.0,0.0,0.0,0.0,0.0,0.0,0.0,0.0,0.0,0.0,0.0,0.0,0.0,0.0,0.0,0.0,0.0,0.0,0.0,0.0,0.0,0.0,0.0,0.0,0.0,0.0,0.0,0.0,0.0,0.0,0.0,0.0,0.0,0.0,0.0,0.0,0.0,0.0,0.0,0.0,0.0,0.0,0.0,0.0,0.0,0.0,0.0,0.0,0.0,0.0,0.0,0.0,0.0,0.0,0.0,0.0,0.0,0.0,0.0,0.0,0.0,0.0,0.0,0.0,0.0,0.0,0.0,0.0,0.0,0.0,0.0,0.0,0.0,0.0,0.0,0.0,0.0,0.0,0.0,0.0,0.0,0.0,0.0,0.0,0.0,0.0,0.0,0.0,0.0,0.0,0.0,0.0,0.0,0.0,0.0,0.0,0.0,0.0,0.0,0.0,0.0,0.0,0.0,0.0,0.0,0.0,0.0,0.0,0.0,0.0,0.0,0.0,0.0,0.0,0.0,0.0,0.0,0.0,0.0,0.0,0.0,0.0,0.0,0.0,0.0,0.0,0.0,0.0,0.0,0.0,0.0,0.0,0.0,0.0,0.0,0.0,0.0,0.0,0.0,0.0,0.0,0.0,0.0,0.0,0.0,0.0,0.0,0.0,0.0,0.0,0.0,0.0,0.0,0.0,0.0,0.0,0.0,0.0,0.0,0.0,0.0,0.0,0.0,0.0,0.0,0.0,0.0,0.0,0.0,0.0,0.0,0.0,0.0,0.0,0.0,0.0,0.0,0.0,0.0,0.0,0.0,0.0,0.0,0.0,0.0,0.0,0.0,0.0,0.0,0.0,0.0,0.0,0.0,0.0,0.0,0.0,0.0,0.0,0.0,0.0,0.0,0.0,0.0,0.0,0.0,0.0,0.0,0.0,0.0,0.0,0.0,0.0,0.0,0.0,0.0,0.0,0.0,0.0,0.0,0.0,0.0,0.0,0.0,0.0,0.0,0.0,0.0,0.0,0.0,0.0,0.0,0.0,0.0,0.0,0.0,0.0,0.0,0.0,0.0,0.0,0.0,0.0,0.0,0.0,0.0,0.0,0.0,0.0,0.0,0.0,0.0,0.0,0.0,0.0,0.0,0.0,0.0,0.0,0.0,0.0,0.0,0.0,0.0,0.0,0.0,0.0,0.0,0.0,0.0,0.0,0.0,0.0,0.0,0.0,0.0,0.0,0.0,0.0,0.0,0.0,0.0,0.0,0.0,0.0,0.0,0.0,0.0,0.0,0.0,0.0,0.0,0.0,0.0,0.0,0.0,0.0,0.0,0.0,0.0,0.0,0.0,0.0,0.0,0.0,0.0,0.0,0.0,0.0,0.0,0.0,0.0,0.0,0.0,0.0,0.0,0.0,0.0,0.0,0.0,0.0,0.0,0.0,0.0,0.0,0.0,0.0,0.0,0.0,0.0,0.0,0.0,0.0,0.0,0.0,0.0,0.0,0.0,0.0,0.0,0.0,0.0,0.0,0.0,0.0,0.0,0.0,0.0,0.0,0.0,0.0,0.0,0.0,0.0,0.0,0.0,0.0,0.0,0.0,0.0,0.0,0.0,0.0,0.0,0.0,0.0,0.0,0.0,0.0,0.0,0.0,0.0,0.0,0.0,0.0,0.0,0.0,0.0,0.0,0.0,0.0,0.0,0.0,0.0,0.0,0.0,0.0,0.0,0.0,0.0,0.0,0.0,0.0,0.0,0.0,0.0,0.0,0.0,0.0,0.0,0.0,0.0,0.0,0.0,0.0,0.0,0.0,0.0,0.0,0.0,0.0,0.0,0.0,0.0,0.0,0.0,0.0,0.0,0.0,0.0,0.0,0.0,0.0,0.0,0.0,0.0,0.0,0.0,0.0,0.0,0.0,0.0,0.0,0.0,0.0,0.0,0.0,0.0,0.0,0.0,0.0,0.0,0.0,0.0,0.0,0.0,0.0,0.0,0.0,0.0,0.0,0.0,0.0,0.0,0.0,0.0,0.0,0.0,0.0,0.0,0.0,0.0,0.0,0.0,0.0,0.0,0.0,0.0,0.0,0.0,0.0,0.0,0.0,0.0,0.0,0.0,0.0,0.0,0.0,0.0,0.0,0.0,0.0,0.0,0.0,0.0,0.0,0.0,0.0,0.0,0.0,0.0,0.0,0.0,0.0,0.0,0.0,0.0,0.0,0.0,0.0,0.0,0.0,0.0,0.0,0.0,0.0,0.0,0.0,0.0,0.0,0.0,0.0,0.0,0.0,0.0,0.0,0.0,0.0,0.0,0.0,0.0,0.0,0.0,0.0,0.0,0.0,0.0,0.0,0.0,0.0,0.0,0.0,0.0,0.0,0.0,0.0,0.0,0.0,0.0,0.0,0.0,0.0,0.0,0.0,0.0,0.0,0.0,0.0,0.0,0.0,0.0,0.0,0.0,0.0,0.0,0.0,0.0,0.0,0.0,0.0,0.0,0.0,0.0,0.0,0.0,0.0,0.0,0.0,0.0,0.0,0.0,0.0,0.0,0.0,0.0,0.0,0.0,0.0,0.0,0.0,0.0,0.0,0.0,0.0,0.0,0.0,0.0,0.0,0.0,0.0,0.0,0.0,0.0,0.0,0.0,0.0,0.0,0.0,0.0,0.0,0.0,0.0,0.0,0.0,0.0,0.0,0.0,0.0,0.0,0.0,0.0,0.0,0.0,0.0,0.0,0.0,0.0,0.0,0.0,0.0,0.0,0.0,0.0,0.0,0.0,0.0,0.0,0.0,0.0,0.0,0.0,0.0,0.0,0.0,0.0,0.0,0.0,0.0,0.0,0.0,0.0,0.0,0.0,0.0,0.0,0.0,0.0,0.0,0.0,0.0,0.0,0.0,0.0,0.0,0.0,0.0,0.0,0.0,0.0,0.0,0.0,0.0,0.0,0.0,0.0,0.0,0.0,0.0,0.0,0.0,0.0,0.0,0.0,0.0,0.0,0.0,0.0,0.0,0.0,0.0,0.0,0.0,0.0,0.0,0.0,0.0,0.0,0.0,0.0,0.0,0.0,0.0,0.0,0.0,0.0,0.0,0.0,0.0,0.0,0.0,0.0,0.0,0.0,0.0,0.0,0.0,0.0,0.0,0.0,0.0,0.0,0.0,0.0,0.0,0.0,0.0,0.0,0.0,0.0,0.0,0.0,0.0,0.0,0.0,0.0,0.0,0.0,0.0,0.0,0.0,0.0,0.0,0.0,0.0,0.0,0.0,0.0,0.0,0.0,0.0,0.0,0.0,0.0,0.0,0.0,0.0,0.0,0.0,0.0,0.0,0.0,0.0,0.0,0.0,0.0,0.0,0.0,0.0,0.0,0.0,0.0,0.0,0.0,0.0,0.0,0.0,0.0,0.0,0.0,0.0,0.0,0.0,0.0,0.0,0.0,0.0,0.0,0.0,0.0,0.0,0.0,0.0,0.0,0.0,0.0,0.0,0.0,0.0,0.0,0.0,0.0,0.0,0.0,0.0,0.0,0.0,0.0,0.0,0.0,0.0,0.0,0.0,0.0,0.0,0.0,0.0,0.0,0.0,0.0,0.0,0.0,0.0,0.0,0.0,0.0,0.0,0.0,0.0,0.0,0.0,0.0,0.0,0.0,0.0,0.0,0.0,0.0,0.0,0.0,0.0,0.0,0.0,0.0,0.0,0.0,0.0,0.0,0.0,0.0,0.0,0.0,0.0,0.0,0.0,0.0,0.0,0.0,0.0,0.0,0.0,0.0,0.0,0.0,0.0,0.0,0.0,0.0,0.0,0.0,0.0,0.0,0.0,0.0,0.0,0.0,0.0,0.0,0.0,0.0,0.0,0.0,0.0,0.0,0.0,0.0,0.0,0.0,0.0,0.0,0.0,0.0,0.0,0.0,0.0,0.0,0.0,0.0,0.0,0.0,0.0,0.0,0.0,0.0,0.0,0.0,0.0,0.0,0.0,0.0,0.0,0.0,0.0,0.0,0.0,0.0,0.0,0.0,0.0,0.0,0.0,0.0,0.0,0.0,0.0,0.0,0.0,0.0,0.0,0.0,0.0,0.0,0.0,0.0,0.0,0.0,0.0,0.0,0.0,0.0,0.0,0.0,0.0,0.0,0.0,0.0,0.0,0.0,0.0,0.0,0.0,0.0,0.0,0.0,0.0,0.0,0.0,0.0,0.0,0.0,0.0,0.0,0.0,0.0,0.0,0.0,0.0,0.0,0.0,0.0,0.0,0.0,0.0,0.0,0.0,0.0,0.0,0.0,0.0,0.0,0.0,0.0,0.0,0.0,0.0,0.0,0.0,0.0,0.0,0.0,0.0,0.0,0.0,0.0,0.0,0.0,0.0,0.0,0.0,0.0,0.0,0.0,0.0,0.0,0.0,0.0,0.0,0.0,0.0,0.0,0.0,0.0,0.0,0.0,0.0,0.0,0.0,0.0,0.0,0.0,0.0,0.0,0.0,0.0,0.0,0.0,0.0,0.0,0.0,0.0,0.0,0.0,0.0,0.0,0.0,0.0,0.0,0.0,0.0,0.0,0.0,0.0,0.0,0.0,0.0,0.0,0.0,0.0,0.0,0.0,0.0,0.0,0.0,0.0,0.0,0.0,0.0,0.0,0.0,0.0,0.0,0.0,0.0,0.0,0.0,0.0,0.0,0.0,0.0,0.0,0.0,0.0,0.0,0.0,0.0,0.0,0.0,0.0,0.0,0.0,0.0,0.0,0.0,0.0,0.0,-2.9867,0.0,0.0,0.0,0.0,0.0,0.0,0.0,0.0,0.0,0.0,0.0,0.0,0.0,0.0,0.0,0.0,0.0,0.0,0.0,0.0,0.0,0.0,0.0,0.0,0.0,0.0,0.0,0.0,0.0,0.0,0.0,0.0,0.0,0.0,0.0,0.0,0.0,0.0,0.0,-2.9661,-2.9068,-2.8059,-2.85,-2.892,-2.9289,0.0,0.0,0.0,0.0,0.0,0.0,0.0,0.0,0.0,0.0,0.0,0.0,0.0,0.0,0.0,0.0,0.0,0.0,0.0,0.0,0.0,0.0,0.0,0.0,0.0,0.0,0.0,0.0,0.0,0.0,0.0,0.0,0.0,0.0,0.0,0.0,0.0,0.0,0.0,0.0,0.0,0.0,0.0,0.0,0.0,0.0,0.0,0.0,0.0,0.0,0.0,0.0,0.0,0.0,0.0,0.0,0.0,0.0,0.0,0.0,0.0,0.0,0.0,0.0,0.0,0.0,0.0,0.0,0.0,0.0,0.0,-3.0451,0.0,0.0,0.0,0.0,0.0,0.0,0.0,0.0,0.0,0.0,0.0,0.0,0.0,0.0,0.0,0.0,0.0,0.0,0.0,0.0,0.0,0.0,0.0,0.0,0.0,0.0,0.0,0.0,0.0,0.0,0.0,0.0,0.0,0.0,0.0,-2.9915,-3.0163,-2.995,-2.9045,-2.8019,-2.6916,-2.696,-2.7432,-2.829,-2.886,0.0,0.0,0.0,0.0,0.0,0.0,0.0,0.0,0.0,0.0,0.0,0.0,0.0,0.0,0.0,0.0,0.0,0.0,0.0,0.0,0.0,0.0,0.0,0.0,0.0,0.0,0.0,0.0,0.0,0.0,0.0,0.0,0.0,0.0,0.0,0.0,0.0,0.0,0.0,0.0,0.0,0.0,0.0,0.0,0.0,0.0,0.0,0.0,0.0,0.0,0.0,0.0,0.0,0.0,0.0,0.0,0.0,0.0,0.0,0.0,0.0,0.0,0.0,-3.1615,-3.1645,-3.2125,-3.1725,-3.1647,-3.182,-3.1602,-3.1438,-3.1326,-3.1747,0.0,0.0,0.0,0.0,0.0,0.0,0.0,0.0,0.0,0.0,0.0,0.0,0.0,0.0,0.0,0.0,0.0,0.0,0.0,0.0,0.0,0.0,-2.5752,-2.6417,-2.6294,-2.6555,0.0,0.0,0.0,0.0,0.0,0.0,-2.9865,-2.949,-2.9175,-2.8985,-2.7933,-2.7114,-2.6574,-2.6808,-2.713,-2.7498,-2.8036,-2.8504,-2.8947,0.0,0.0,0.0,0.0,0.0,0.0,0.0,0.0,0.0,0.0,0.0,0.0,0.0,0.0,0.0,0.0,0.0,0.0,0.0,0.0,0.0,0.0,0.0,0.0,0.0,0.0,0.0,0.0,0.0,0.0,0.0,0.0,0.0,0.0,0.0,0.0,0.0,0.0,0.0,0.0,0.0,-2.6675,-2.6777,0.0,0.0,0.0,0.0,0.0,0.0,0.0,0.0,0.0,0.0,0.0,0.0,0.0,-3.1759,-3.1846,-3.1537,-3.1743,-3.2496,-3.2114,-3.2261,-3.2925,-3.2763,-3.272,-3.2754,-3.2677,0.0,-3.2154,-3.2258,0.0,0.0,0.0,0.0,0.0,0.0,0.0,0.0,0.0,0.0,0.0,0.0,0.0,0.0,0.0,0.0,0.0,0.0,0.0,0.0,0.0,-2.5919,-2.6114,-2.6657,-2.6365,-2.6639,-2.7799,0.0,0.0,0.0,0.0,-2.9349,-2.9439,-2.8979,-2.8427,-2.7713,-2.7117,-2.6486,-2.5805,-2.55,-2.5846,-2.6612,-2.6533,-2.7179,-2.8347,-2.8122,0.0,0.0,0.0,0.0,0.0,0.0,0.0,0.0,0.0,0.0,0.0,0.0,0.0,0.0,0.0,0.0,0.0,0.0,0.0,0.0,0.0,0.0,0.0,0.0,0.0,0.0,0.0,0.0,0.0,0.0,0.0,0.0,0.0,0.0,0.0,0.0,0.0,0.0,0.0,-2.6928,-2.7316,-2.7269,-2.7818,-2.8235,0.0,0.0,0.0,0.0,0.0,0.0,0.0,0.0,0.0,-3.1603,-3.2067,-3.2252,-3.2179,-3.2429,-3.2717,-3.2991,-3.2824,-3.2882,-3.3201,-3.3081,-3.3021,-3.3064,-3.2934,-3.3044,-3.3242,-3.2959,-3.3001,-3.3246,0.0,0.0,0.0,0.0,-3.3372,-3.333,0.0,0.0,0.0,0.0,0.0,0.0,0.0,0.0,0.0,0.0,0.0,0.0,-2.6147,-2.6259,-2.6469,-2.6838,-2.6479,-2.6765,-2.8014,-2.7809,0.0,0.0,-2.9457,-2.9397,-2.9012,-2.8438,-2.7762,-2.6928,-2.6609,-2.6184,-2.5652,-2.5084,-2.5264,-2.6199,-2.5606,-2.6202,-2.7672,-2.727,-2.737,-2.7865,0.0,0.0,0.0,0.0,0.0,0.0,0.0,0.0,0.0,0.0,0.0,0.0,0.0,0.0,0.0,0.0,0.0,0.0,0.0,0.0,0.0,0.0,0.0,0.0,0.0,0.0,0.0,0.0,0.0,0.0,0.0,0.0,0.0,0.0,0.0,0.0,0.0,-2.7435,-2.7795,-2.8014,-2.8207,-2.8437,0.0,0.0,0.0,0.0,0.0,0.0,-3.1341,-3.1613,-3.1759,-3.1834,-3.2428,-3.2676,-3.256,-3.3136,-3.3465,-3.3556,-3.3556,-3.3614,-3.3755,-3.3667,-3.3606,-3.3617,-3.3501,-3.3744,-3.4193,-3.3606,-3.3433,-3.3556,-3.3688,-3.3792,-3.3792,-3.3775,-3.3748,-3.3661,0.0,0.0,0.0,0.0,0.0,0.0,0.0,0.0,0.0,0.0,0.0,-2.611,-2.5702,-2.6199,-2.6709,-2.7071,-2.6932,-2.7207,-2.8038,-2.8446,-2.8631,-2.8633,-2.9089,-2.9214,-2.899,-2.7835,-2.7178,-2.6999,-2.661,-2.6467,-2.6609,-2.6484,-2.6424,-2.6467,-2.5957,-2.6304,-2.7107,-2.6533,-2.6615,-2.725,-2.8264,0.0,0.0,0.0,0.0,0.0,0.0,0.0,0.0,0.0,0.0,0.0,0.0,0.0,0.0,0.0,0.0,0.0,0.0,0.0,0.0,0.0,0.0,0.0,0.0,0.0,0.0,0.0,0.0,0.0,0.0,0.0,0.0,0.0,0.0,0.0,0.0,0.0,0.0,-2.9185,-2.8917,0.0,0.0,0.0,0.0,-3.0243,-3.0608,-3.1261,-3.236,-3.2451,-3.2717,-3.3271,-3.3322,-3.3355,-3.3339,-3.3389,-3.3702,-3.4246,-3.4246,-3.4499,-3.5035,-3.4988,-3.4941,-3.483,-3.4941,-3.4958,-3.4783,-3.4084,-3.4247,-3.4988,-3.5035,-3.5081,-3.5174,-3.5081,-3.5035,-3.4988,0.0,0.0,0.0,0.0,0.0,0.0,0.0,0.0,0.0,-2.576,-2.5815,-2.6038,-2.6685,-2.6731,-2.6767,-2.6824,-2.6626,-2.6685,-2.7034,-2.7157,-2.7654,-2.8681,-2.8973,-2.8905,-2.8511,-2.7778,-2.7129,-2.6547,-2.6112,-2.5806,-2.57,-2.5204,-2.5147,-2.5481,-2.4935,-2.509,-2.5742,-2.5522,-2.5631,-2.5952,-2.6231,-2.7091,0.0,0.0,0.0,0.0,0.0,0.0,0.0,0.0,0.0,0.0,0.0,0.0,0.0,0.0,0.0,0.0,0.0,0.0,0.0,0.0,0.0,0.0,0.0,0.0,0.0,0.0,0.0,0.0,0.0,0.0,0.0,0.0,0.0,0.0,0.0,0.0,0.0,-2.9042,-2.8764,0.0,-2.9361,-2.9594,-3.0126,-3.1139,-3.1396,-3.194,-3.2917,-3.2603,-3.2486,-3.2602,-3.2774,-3.2816,-3.2816,-3.362,-3.4124,-3.4388,-3.4764,-3.4851,-3.4658,-3.4545,-3.4301,-3.3919,-3.3869,-3.3869,-3.3818,-3.3494,-3.4023,-3.4994,-3.4994,-3.4994,-3.5041,-3.4994,-3.4994,-3.4947,0.0,0.0,0.0,0.0,0.0,0.0,0.0,0.0,0.0,-2.5823,-2.6038,-2.6399,-2.6976,-2.6934,-2.677,-2.6505,-2.6283,-2.6214,-2.6336,-2.6657,-2.7317,-2.8372,-2.8509,-2.8446,-2.8109,-2.7486,-2.6988,-2.6559,-2.5909,-2.5536,-2.5522,-2.4637,-2.4434,-2.4821,-2.4332,-2.4345,-2.4677,-2.4677,-2.4738,-2.4896,-2.5038,-2.5774,-2.6828,0.0,0.0,0.0,0.0,0.0,0.0,0.0,0.0,0.0,0.0,0.0,0.0,0.0,0.0,0.0,0.0,0.0,0.0,0.0,0.0,0.0,0.0,0.0,0.0,0.0,0.0,0.0,0.0,0.0,0.0,0.0,0.0,0.0,0.0,0.0,-2.8826,-2.925,-2.8964,-2.9042,-2.9816,-2.9889,-3.0302,-3.1307,-3.142,-3.1901,-3.2904,-3.2692,-3.2557,-3.2659,-3.2643,-3.2558,-3.2558,-3.3129,-3.3453,-3.3405,-3.3775,-3.3775,-3.3307,-3.3451,-3.3347,-3.3006,-3.314,-3.3182,-3.3182,-3.3182,-3.3665,-3.4317,-3.4317,-3.4578,-3.4835,-3.4464,-3.4578,-3.4899,0.0,0.0,0.0,0.0,0.0,0.0,0.0,0.0,-2.5946,-2.5523,-2.6631,-2.717,-2.6409,-2.6692,-2.6707,-2.6123,-2.5888,-2.5868,-2.6085,-2.7073,-2.7653,-2.7597,-2.772,-2.7826,-2.7898,-2.6981,-2.6707,-2.7071,-2.6002,-2.5688,-2.6014,-2.4951,-2.4465,-2.4465,-2.4216,-2.4112,-2.4054,-2.4054,-2.4054,-2.4112,-2.4865,-2.5453,-2.5926,0.0,0.0,0.0,0.0,0.0,0.0,0.0,0.0,0.0,0.0,0.0,0.0,0.0,0.0,0.0,0.0,0.0,0.0,0.0,0.0,0.0,0.0,0.0,0.0,0.0,0.0,0.0,0.0,0.0,0.0,0.0,0.0,0.0,-2.8889,-2.87,-2.8934,-3.0038,-2.963,-2.9643,-3.0651,-3.033,-3.0234,-3.0705,-3.0705,-3.124,-3.2426,-3.2592,-3.288,-3.3502,-3.2978,-3.269,-3.2542,-3.1935,-3.1566,-3.1421,-3.1469,-3.1372,-3.1257,-3.1937,-3.2187,-3.2218,-3.2846,-3.3145,-3.3145,-3.3145,-3.3145,-3.3198,-3.3182,-3.3885,-3.4723,-3.3614,-3.3885,-3.4851,0.0,0.0,0.0,0.0,0.0,0.0,0.0,-2.5974,-2.6274,-2.6793,-2.6808,-2.6703,-2.6524,-2.6166,-2.5746,-2.5275,-2.5329,-2.5647,-2.628,-2.6529,-2.7064,-2.7856,-2.7933,-2.7888,-2.7856,-2.6975,-2.6443,-2.6375,-2.555,-2.5048,-2.4951,-2.4421,-2.4216,-2.4216,-2.4112,-2.3936,-2.3582,-2.3582,-2.3258,-2.2725,-2.3531,-2.4208,-2.4714,0.0,0.0,0.0,0.0,0.0,0.0,0.0,0.0,0.0,0.0,0.0,0.0,0.0,0.0,0.0,0.0,0.0,0.0,0.0,0.0,0.0,0.0,0.0,0.0,0.0,0.0,0.0,0.0,0.0,0.0,0.0,-3.0099,-2.9627,-2.9366,-2.9039,-2.9114,-2.9837,-2.9735,-2.9758,-3.0068,-3.0487,-3.0922,-3.1441,-3.1509,-3.1777,-3.2392,-3.1615,-3.124,-3.1275,-3.1166,-3.1106,-3.1067,-3.1805,-3.2189,-3.2135,-3.2525,-3.2473,-3.2098,-3.2284,-3.2105,-3.1678,-3.1875,-3.1951,-3.1951,-3.1951,-3.2216,-3.2641,-3.3039,-3.3407,-3.3614,-3.3303,-3.3407,-3.3665,0.0,0.0,0.0,0.0,0.0,0.0,0.0,-2.633,-2.671,-2.7144,-2.7056,-2.6836,-2.6421,-2.5783,-2.5253,-2.4942,-2.5203,-2.5631,-2.6149,-2.6498,-2.6973,-2.7501,-2.7425,-2.7369,-2.7268,-2.6587,-2.619,-2.6028,-2.5453,-2.5061,-2.4694,-2.4434,-2.4099,-2.3819,-2.3819,-2.3509,-2.3065,-2.3065,-2.2738,-2.2347,-2.2871,-2.316,-2.3348,-2.3572,-2.4013,-2.456,-2.4617,-2.4503,-2.4363,-2.5163,0.0,0.0,0.0,0.0,0.0,0.0,0.0,0.0,0.0,0.0,0.0,0.0,0.0,0.0,0.0,0.0,0.0,0.0,0.0,0.0,0.0,0.0,0.0,0.0,-3.0366,-3.0075,-3.0005,-2.9635,-2.9516,-3.0003,-3.0147,-3.0268,-3.0498,-3.0699,-3.091,-3.1244,-3.1244,-3.1336,-3.1585,-3.1297,-3.1052,-3.0891,-3.0724,-3.0563,-3.0507,-3.0961,-3.1241,-3.1241,-3.1536,-3.1536,-3.1256,-3.1515,-3.1414,-3.112,-3.1347,-3.1482,-3.1482,-3.1482,-3.1697,0.0,0.0,0.0,0.0,0.0,-3.3039,-3.2895,0.0,0.0,0.0,0.0,0.0,0.0,0.0,-2.6683,-2.7119,-2.7022,-2.7307,-2.7135,-2.6125,-2.5481,-2.5036,-2.4823,-2.5352,-2.5737,-2.5958,-2.676,-2.7086,-2.6877,-2.6594,-2.6404,-2.6404,-2.6096,-2.5893,-2.5784,-2.5536,-2.5188,-2.4821,-2.4452,-2.3943,-2.333,-2.333,-2.3005,-2.2543,-2.2543,-2.247,-2.2347,-2.2421,-2.2347,-2.2163,-2.247,-2.287,-2.331,-2.331,-2.331,-2.3369,-2.4089,0.0,0.0,0.0,0.0,0.0,0.0,0.0,0.0,0.0,0.0,0.0,0.0,0.0,0.0,0.0,0.0,0.0,0.0,0.0,0.0,0.0,0.0,0.0,0.0,-3.0243,-3.031,-3.0719,-3.0268,-3.0003,-3.0447,-3.0618,-3.0844,-3.127,-3.0821,-3.0507,-3.0507,-3.0507,-3.0507,-3.0507,0.0,0.0,0.0,0.0,-3.0915,-3.0731,-3.0268,-3.0028,-3.0028,-3.0028,-3.0028,-3.0043,-3.0582,-3.0836,-3.0866,-3.1405,-3.1586,-3.1586,-3.1497,-3.1482,-3.1467,-3.1482,-3.2104,-3.2986,-3.2986,-3.268,-3.2327,0.0,0.0,0.0,0.0,0.0,0.0,0.0,-2.6823,-2.7119,-2.7709,-2.7239,-2.6534,-2.5693,-2.4942,-2.4467,-2.4426,-2.5018,-2.5736,-2.6518,-2.6492,-2.6525,-2.6593,-2.624,-2.6002,-2.6002,-2.5948,-2.5674,-2.5174,-2.4765,-2.4221,-2.361,-2.3195,-2.2907,-2.2725,-2.2725,-2.2494,-2.2063,-2.2063,-2.1628,-2.1008,-2.1325,-2.1877,-2.2531,-2.2592,-2.2408,-2.2224,-2.2224,-2.199,-2.1753,-2.2579,-2.2761,-2.2761,-2.3513,-2.4142,0.0,0.0,0.0,0.0,0.0,0.0,0.0,0.0,0.0,0.0,0.0,0.0,0.0,0.0,0.0,0.0,0.0,0.0,0.0,-3.1012,-3.1106,-3.1252,-3.1315,-3.0761,-3.0428,-3.0492,-3.0507,-3.0372,-2.9998,-3.0283,-3.0507,-3.0507,-3.0507,-3.0507,-3.0507,-3.0627,-3.0702,-3.0702,-3.1629,-3.2123,-3.2123,-3.2527,-3.2736,-3.2736,0.0,0.0,-3.2751,-3.2871,-3.2916,-3.2901,-3.2497,-3.2332,-3.2273,-3.1691,-3.1409,-3.1351,-3.1467,-3.1567,-3.1652,-3.1652,-3.1495,-3.1351,0.0,0.0,0.0,0.0,0.0,0.0,0.0,-2.6859,-2.7151,-2.8124,-2.7667,-2.6951,-2.6073,-2.547,-2.5044,-2.4879,-2.5139,-2.5615,-2.6195,-2.6075,-2.5879,-2.5773,-2.5833,-2.5893,-2.5893,-2.5619,-2.5286,-2.5005,-2.435,-2.38,-2.3314,-2.3015,-2.2665,-2.2237,-2.2237,-2.2002,-2.1526,-2.1526,-2.121,-2.0646,-2.1031,-2.1336,-2.1616,-2.1815,-2.1765,-2.1526,-2.1526,-2.14,-2.1285,-2.1639,-2.1827,-2.1889,-2.2237,-2.2761,-2.3564,0.0,0.0,0.0,0.0,0.0,0.0,0.0,0.0,0.0,0.0,0.0,0.0,0.0,0.0,-3.0618,-3.0949,0.0,-3.0543,-3.0793,-3.094,-3.0793,-3.0177,-3.06,-3.0896,-3.0552,-3.0507,-3.0372,-3.0073,-3.0313,-3.0507,-3.0507,-3.0821,-3.1016,-3.1016,-3.1644,-3.2003,-3.2003,-3.2647,-3.3006,-3.3006,-3.3335,-3.3499,-3.3499,-3.3499,-3.3499,-3.3499,-3.3499,-3.3499,-3.3484,-3.3019,-3.293,-3.2976,-3.2527,-3.2258,-3.2152,-3.2212,-3.1812,-3.119,-3.1292,-3.1249,-3.1087,0.0,0.0,0.0,0.0,0.0,0.0,0.0,0.0,-2.7074,-2.8112,-2.7924,-2.7385,-2.6573,-2.6125,-2.5758,-2.5484,-2.5227,-2.5234,-2.5681,-2.5467,-2.5203,-2.5033,-2.557,-2.5839,-2.5729,-2.523,-2.4892,-2.4593,-2.3917,-2.3374,-2.2955,-2.2786,-2.2359,-2.1765,-2.1765,-2.1526,-2.1221,-2.1221,-2.1031,-2.0764,-2.1094,-2.1031,-2.0764,-2.1094,-2.1221,-2.1221,-2.1221,-2.1221,-2.1221,-2.1221,-2.1221,-2.1221,-2.1221,-2.1651,-2.253,-2.4421,-2.5079,0.0,0.0,0.0,0.0,0.0,0.0,0.0,0.0,-2.9332,-3.0015,-2.9813,-3.0,-3.0317,-3.063,-3.0165,-2.9827,-3.0086,-3.0208,-3.0036,-2.9188,-3.0118,-3.0761,-3.0327,-3.0451,-3.0447,-3.0342,-3.0552,-3.0702,-3.0702,-3.1465,-3.1913,-3.1913,-3.3036,-3.3679,-3.3679,-3.3814,-3.3888,-3.3888,-3.3888,-3.3888,-3.3888,-3.3888,-3.3888,-3.3888,-3.3888,-3.3888,-3.3811,-3.3476,-3.3357,-3.3376,-3.3176,-3.3051,-3.2941,-3.2941,-3.2308,-3.1396,-3.1486,-3.1501,-3.1396,0.0,0.0,0.0,0.0,0.0,0.0,0.0,0.0,0.0,-2.7265,-2.73,-2.706,-2.6454,-2.6035,-2.5783,-2.5746,-2.4614,-2.4297,-2.5198,-2.4646,-2.4507,-2.5005,-2.557,-2.5674,-2.5118,-2.5005,-2.4408,-2.316,-2.2847,-2.2359,-2.1628,-2.1463,-2.1336,-2.1285,-2.1285,-2.1221,-2.1221,-2.1221,-2.1158,-2.1158,-2.1158,-2.1158,-2.1158,-2.1158,-2.1221,-2.1221,-2.1221,-2.1221,-2.1221,-2.1221,-2.1221,-2.1221,-2.1221,-2.1285,-2.1745,-2.3925,-2.4602,-2.5269,-2.8251,-2.8803,-2.8239,-2.7298,-2.744,-2.7728,0.0,-2.8581,-2.9275,-2.9468,-2.9572,-2.9442,-2.8903,-2.9205,-2.9393,-2.8789,-2.9205,-2.9799,-3.0228,-2.9423,-2.9035,-2.9581,-3.0155,-3.0283,-2.9744,-3.0731,-3.1362,-3.1362,-3.2572,-3.3275,-3.3275,-3.3963,-3.4367,-3.4367,-3.4966,-3.528,-3.528,-3.528,-3.528,-3.528,-3.528,-3.528,-3.528,-3.528,-3.5215,-3.4961,-3.4238,-3.3598,-3.3066,-3.2864,-3.2737,-3.2737,-3.2737,-3.2601,-3.2358,-3.247,-3.247,-3.2358,0.0,0.0,0.0,0.0,0.0,0.0,0.0,0.0,0.0,0.0,-2.762,-2.7619,-2.7002,-2.6454,-2.602,-2.5763,-2.4539,-2.4096,-2.4836,-2.4247,-2.4231,-2.4952,-2.557,-2.5619,-2.5005,-2.4637,-2.3975,-2.3027,-2.2396,-2.1913,-2.1549,-2.1296,-2.1221,-2.1221,-2.1221,-2.1221,-2.1221,-2.1221,-2.1031,-2.0903,-2.1094,-2.1031,-2.0903,-2.1094,-2.1221,-2.1267,-2.1876,-2.211,0.0,-2.211,-2.2579,-2.2963,-2.2332,-2.2579,-2.3494,-2.568,-2.6094,-2.6277,-2.8175,-2.8641,-2.8435,-2.7751,-2.7763,-2.7887,-2.7951,-2.8217,-2.8444,-2.8338,-2.8338,-2.8403,-2.8481,-2.8403,-2.8403,-2.8468,-2.8725,-2.8779,-2.8373,-2.8761,-2.8937,-2.8479,-3.004,-3.0852,-3.0162,-3.1307,-3.2258,-3.2647,-3.3544,-3.4068,-3.4068,-3.4711,-3.507,-3.507,-3.5355,-3.5504,-3.5504,-3.5504,-3.5504,-3.5504,-3.5504,-3.5439,-3.5359,-3.5359,-3.5162,-3.4868,-3.4655,-3.4244,-3.3813,-3.3878,-3.3813,-3.3667,-3.3667,-3.3682,-3.3529,-3.2888,-3.2625,-3.2513,0.0,0.0,0.0,0.0,0.0,0.0,0.0,0.0,0.0,0.0,0.0,-2.7769,-2.7317,-2.6674,-2.6118,-2.5738,-2.4713,-2.4124,-2.4207,-2.3721,-2.3812,-2.4595,-2.5089,-2.5218,-2.5005,-2.4279,-2.361,-2.3027,-2.2161,-2.1698,-2.1624,-2.136,-2.1221,-2.1221,-2.1221,-2.1221,-2.1221,-2.1221,-2.1031,-2.0764,-2.1094,-2.1031,-2.0775,-2.1094,-2.1377,-2.1742,-2.2491,-2.2931,-2.3123,-2.324,-2.3931,-2.4566,-2.3551,-2.3944,-2.5103,-2.7144,-2.7809,-2.8075,-2.8516,-2.874,-2.8638,-2.8066,-2.7947,-2.7947,-2.7947,-2.7947,-2.7868,-2.7536,-2.7523,-2.7656,-2.8091,-2.7842,-2.7656,-2.8157,-2.8222,-2.7944,-2.7273,-2.8184,-2.8675,-2.8012,-2.9673,-3.0777,-3.0506,-3.1827,-3.2939,-3.3476,-3.4099,-3.4535,-3.4756,-3.5235,-3.5504,-3.5504,-3.5504,-3.5504,-3.5504,-3.5504,-3.5504,-3.5504,-3.5504,-3.5439,-3.5294,-3.5148,-3.4949,-3.4698,-3.4735,-3.4601,-3.4414,-3.4563,-3.4549,-3.4414,-3.4414,-3.4414,-3.4298,-3.3485,-3.3085,-3.3035,0.0,0.0,0.0,0.0,0.0,0.0,0.0,0.0,0.0,0.0,0.0,0.0,0.0,-2.6589,-2.6079,-2.5738,-2.502,-2.4225,-2.3375,-2.2956,-2.3009,-2.3695,-2.3744,-2.416,-2.4991,-2.4105,-2.3399,-2.2919,-2.2111,-2.1612,-2.1388,-2.1285,-2.1221,-2.1221,-2.1221,-2.1221,-2.1221,-2.1221,-2.1158,-2.1158,-2.1221,-2.1158,-2.1158,-2.1221,-2.1853,-2.2738,-2.2827,-2.3327,-2.4028,-2.4236,-2.4899,-2.5405,-2.4616,-2.4899,-2.5808,-2.7304,-2.9213,-3.0659,-2.958,-2.9296,-2.8994,-2.7776,-2.7523,-2.7523,-2.7523,-2.7523,-2.7523,-2.7523,-2.7523,-2.7523,-2.7523,-2.7523,-2.7523,-2.7523,-2.7523,-2.7709,-2.839,-2.796,-2.7776,-2.839,-2.9048,-2.9712,0.0,-3.2227,-3.3369,-3.3383,-3.3935,-3.4647,-3.5409,-3.5489,-3.5504,-3.5504,-3.5504,-3.5504,-3.5504,-3.5504,-3.5504,-3.5504,-3.5504,-3.5504,-3.5504,-3.5082,-3.4802,-3.4698,-3.4481,-3.4414,-3.4414,-3.4414,-3.4414,-3.4414,-3.4414,-3.4414,-3.4414,-3.437,-3.4356,-3.4356,0.0,0.0,0.0,0.0,0.0,0.0,0.0,0.0,0.0,0.0,0.0,0.0,0.0,0.0,0.0,0.0,-2.5051,-2.444,-2.3749,-2.3305,-2.3259,-2.3537,-2.4051,-2.4312,-2.4323,-2.4034,-2.3564,-2.3027,-2.2223,-2.1749,-2.1624,-2.1411,-2.1273,-2.1221,-2.1221,-2.1221,-2.1221,-2.1221,-2.1221,-2.1221,-2.1221,-2.1221,-2.1221,-2.1526,-2.1996,-2.2736,0.0,-2.5517,-2.6169,-2.6756,-2.7639,-2.8332,-2.7269,-2.7653,-2.8641,-2.9355,-3.0096,-3.0464,-2.9546,-2.8944,-2.8314,-2.7656,-2.7523,-2.7523,-2.7523,-2.7736,-2.7802,-2.7536,-2.7868,-2.8197,-2.7947,-2.7881,-2.7881,-2.7881,-2.7669,-2.759,-2.7776,-2.7656,-2.7734,-2.8371,-2.9389,-3.0119,0.0,0.0,0.0,-3.3235,-3.3926,-3.4394,-3.4677,-3.4677,-3.4986,-3.5504,-3.4971,-3.4971,-3.5504,-3.5504,-3.5504,-3.5504,-3.5359,-3.5213,-3.5082,-3.4883,-3.4683,-3.4481,-3.4414,-3.4414,-3.4414,-3.4414,-3.4414,-3.4414,-3.4414,-3.4414,-3.4414,-3.4414,-3.4414,-3.4414,0.0,0.0,0.0,0.0,0.0,0.0,0.0,0.0,0.0,0.0,0.0,0.0,0.0,0.0,0.0,0.0,0.0,-2.4705,-2.3791,-2.3436,-2.3312,-2.3495,-2.3969,-2.4405,-2.4709,-2.4477,-2.4182,-2.382,-2.2677,-2.2037,-2.1812,-2.1474,-2.1273,-2.1221,-2.1221,-2.1221,-2.1221,-2.1221,-2.1221,-2.1221,-2.14,-2.1463,-2.1514,-2.2274,-2.2934,0.0,-2.5991,-2.7252,-2.7982,-2.861,-2.9472,-3.0182,-2.9012,-2.9351,-3.0133,-3.0269,-3.0283,-3.0101,-2.9296,-2.8638,-2.8013,-2.7603,-2.7523,-2.7523,-2.7523,-2.7669,-2.7802,-2.7536,-2.8,-2.8406,-2.8392,-2.8197,-2.8145,-2.8327,-2.7855,-2.7523,-2.7523,-2.7523,-2.7732,-2.8307,-2.9369,-3.0024,-3.0072,-3.1137,0.0,-3.2763,-3.3269,-3.3616,-3.3891,-3.3905,-3.4124,-3.4654,-3.4394,-3.4394,-3.4654,-3.5213,-3.5504,-3.5504,-3.5294,-3.5082,-3.4868,-3.475,-3.4563,-3.4414,-3.4414,-3.4414,-3.4414,-3.4414,-3.4414,-3.4414,-3.4414,-3.4414,-3.4414,-3.4414,-3.4414,-3.4414,0.0,0.0,0.0,0.0,0.0,0.0,0.0,0.0,0.0,0.0,0.0,0.0,0.0,0.0,0.0,0.0,0.0,0.0,-2.3704,-2.3302,-2.3214,-2.3502,-2.3568,-2.4323,-2.5871,-2.5228,-2.4968,-2.5079,-2.35,-2.2543,-2.2211,-2.1588,-2.1285,-2.1285,-2.1285,-2.1285,-2.1285,-2.1285,-2.1285,-2.1285,-2.1815,-2.2002,-2.2113,-2.331,-2.4413,-2.5517,-2.7069,-2.8243,-2.9201,-2.966,-3.0346,-3.0793,-2.9813,-2.9889,-3.0269,-3.0011,-2.9856,-2.9623,-2.8917,-2.843,-2.8013,-2.7603,-2.7523,-2.7523,-2.7523,-2.7536,-2.7523,-2.7523,-2.7868,-2.8327,-2.8739,-2.8444,-2.8327,-2.8739,-2.8039,-2.7523,-2.7523,-2.7523,-2.7758,-2.836,-2.8935,-2.9523,-3.0124,-3.066,0.0,-3.2015,0.0,-3.2434,-3.3073,-3.3143,-3.3143,-3.3213,-3.3837,-3.3905,-3.3213,-3.4639,-3.5359,-3.5359,-3.5213,-3.5001,-3.4854,-3.475,-3.4631,-3.4414,-3.4414,-3.4414,-3.4414,-3.4414,-3.4414,-3.4414,-3.4414,-3.4414,-3.4414,-3.4414,-3.4414,-3.4414,0.0,0.0,0.0,0.0,0.0,0.0,0.0,0.0,0.0,0.0,0.0,0.0,0.0,0.0,0.0,0.0,0.0,0.0,-2.4996,-2.3983,-2.3511,-2.381,-2.3631,-2.3801,-2.4346,-2.4745,-2.5001,-2.5001,-2.4652,-2.4129,-2.3513,-2.3242,-2.2847,-2.2237,-2.2237,-2.2237,-2.2237,-2.2237,-2.2237,-2.2298,-2.2977,-2.3037,-2.2955,-2.446,-2.5175,-2.5549,-2.7457,-2.8062,-2.8155,-2.9478,-3.0029,-3.0072,-2.995,-2.995,-3.0011,-2.9594,-2.9296,-2.8931,-2.8444,-2.8,-2.7603,-2.7536,-2.7523,-2.7523,-2.7523,-2.7736,-2.7947,-2.7947,-2.8688,-2.9324,-2.9085,-2.9008,-2.8944,-2.8702,-2.7987,-2.7523,-2.7523,-2.7523,-2.7902,-2.8935,-2.9196,-2.9666,-3.0673,-3.0895,0.0,0.0,-3.1809,-3.2146,-3.2362,-3.2362,-3.2648,-3.3143,-3.2847,-3.2847,-3.3213,-3.3408,-3.3616,-3.3796,-3.4124,-3.4259,-3.407,-3.4587,-3.4668,-3.4414,-3.4414,-3.4414,-3.4414,-3.4414,-3.4414,-3.4414,-3.4414,-3.4414,-3.4414,-3.4414,-3.4414,-3.4414,0.0,0.0,0.0,0.0,0.0,0.0,0.0,0.0,0.0,0.0,0.0,0.0,0.0,0.0,0.0,0.0,0.0,0.0,0.0,-2.4374,-2.3915,-2.4059,-2.4011,-2.4069,-2.4245,-2.4797,-2.5063,-2.4948,-2.4919,-2.46,-2.4043,-2.4081,-2.3794,-2.3369,-2.3369,-2.3369,-2.3369,-2.3097,-2.299,0.0,0.0,-2.3598,-2.3807,-2.526,-2.5969,-2.64,-2.7816,-2.7883,-2.7478,-2.8351,-2.8913,-2.9308,-2.9111,-2.9307,-2.9484,-2.8739,-2.8495,-2.8379,-2.7934,-2.7669,-2.7523,-2.7523,-2.7523,-2.7536,-2.7736,-2.8118,-2.8444,-2.8573,-2.9435,-3.0054,-2.9747,-2.9498,-2.9184,-2.8944,-2.8118,-2.7523,-2.7523,-2.7523,-2.7968,-2.9144,-2.9274,-2.9732,-3.0882,-3.0986,-3.0986,0.0,-3.1394,-3.1603,-3.1603,-3.1603,-3.1823,-3.2245,-3.216,-3.2434,-3.3213,-3.2777,-3.2777,-3.3213,-3.3367,-3.3367,-3.3311,-3.3575,-3.3589,-3.3395,0.0,-3.3604,-3.3894,-3.3894,-3.4113,-3.4414,-3.4414,-3.4414,-3.4414,-3.4414,-3.4414,-3.4414,0.0,0.0,0.0,0.0,0.0,0.0,0.0,0.0,0.0,0.0,0.0,0.0,0.0,0.0,0.0,0.0,0.0,0.0,0.0,0.0,-2.4385,-2.4385,-2.4485,-2.4611,-2.4744,-2.4997,-2.5088,-2.4996,-2.4818,-2.4584,-2.424,-2.449,-2.4538,-2.4496,-2.4563,-2.4603,-2.4603,-2.4045,-2.3826,-2.3839,-2.3754,-2.4137,-2.4813,0.0,-2.6768,-2.7464,-2.8024,-2.7735,-2.693,-2.6736,-2.7423,-2.8219,-2.7845,-2.8193,-2.8607,-2.7762,-2.7736,-2.7947,-2.759,-2.7523,-2.7523,-2.7523,-2.7523,-2.7603,-2.8013,-2.8444,-2.8917,-2.931,-3.0025,-3.0569,-3.0584,-2.9979,-2.9421,-2.931,-2.8352,-2.7536,-2.7523,-2.7523,-2.7968,-2.9144,-2.9274,-2.9732,-3.0882,-3.0986,-3.0986,-3.0986,-3.0986,-3.0986,-3.0986,-3.0986,-3.0986,-3.0986,-3.1603,-3.2232,-3.2875,-3.2232,-3.2232,-3.2875,-3.269,-3.2547,-3.2475,-3.2232,-3.2146,-3.2074,-3.2074,-3.2434,-3.3073,-3.3073,-3.3451,-3.4113,-3.4113,-3.4113,-3.4128,-3.4196,-3.4264,-3.4264,0.0,0.0,0.0,0.0,0.0,0.0,0.0,0.0,0.0,0.0,-2.3697,-2.4353,0.0,0.0,0.0,0.0,0.0,0.0,0.0,0.0,0.0,-2.4799,-2.4519,-2.4361,-2.4403,-2.4699,-2.5047,-2.5415,-2.5528,-2.5339,-2.4907,-2.5307,-2.5336,-2.5089,-2.5488,-2.5767,-2.5889,-2.5672,-2.5563,-2.5563,-2.5577,-2.5755,-2.6215,-2.6872,0.0,0.0,-2.753,-2.6997,-2.629,-2.5716,-2.5869,-2.6347,-2.676,-2.6984,-2.7169,-2.7392,-2.7536,-2.7603,-2.7523,-2.7523,-2.7523,-2.7523,-2.7523,-2.7603,-2.8013,-2.8444,-2.898,-2.9623,-3.0435,-3.1013,-3.0955,-3.0584,-3.0086,-2.9421,-2.8573,-2.7868,-2.7536,-2.7523,-2.7968,-2.9144,-2.9274,-2.9732,-3.0882,-3.0986,0.0,0.0,-3.0986,-3.0986,-3.0986,-3.0986,-3.0986,-3.0986,-3.1123,-3.1259,-3.1408,-3.1123,-3.0986,-3.1123,-3.1529,-3.1589,-3.1442,-3.206,-3.2191,-3.2074,-3.2074,0.0,-3.229,-3.229,-3.2362,-3.2519,-3.2519,-3.2519,-3.2577,-3.3157,-3.3437,-3.352,0.0,0.0,0.0,0.0,0.0,0.0,0.0,-2.2756,-2.259,-2.2275,-2.3013,-2.3649,-2.3935,-2.4943,-2.5789,0.0,0.0,0.0,0.0,0.0,0.0,0.0,0.0,0.0,-2.4302,-2.4228,-2.4307,-2.4524,0.0,-2.5045,-2.483,-2.5464,-2.5663,-2.5531,-2.6226,-2.6571,-2.6585,-2.6533,-2.6453,-2.6453,-2.604,-2.6254,-2.6864,0.0,0.0,0.0,-2.786,-2.7363,-2.6649,-2.5863,-2.5558,-2.5541,-2.5726,-2.619,-2.6726,-2.7,-2.7301,-2.7523,-2.7523,-2.7523,-2.7523,-2.7523,-2.7523,-2.7669,-2.821,-2.8931,-2.9594,-3.0297,-3.0999,-3.1465,-3.1379,-3.0703,-2.9979,-2.9608,-2.8766,-2.8013,-2.7815,-2.7919,-2.8294,-2.917,-2.9549,-3.0059,-3.0908,-3.0986,-3.0836,-3.052,-3.0823,-3.0986,-3.0986,-3.0986,-3.0986,-3.0986,-3.0986,-3.0986,-3.0986,-3.0911,-3.0836,-3.0836,-3.1048,-3.096,-3.0797,-3.1071,-3.1071,-3.0872,-3.0872,0.0,-3.1489,-3.1489,-3.1709,-3.2074,-3.2074,-3.2074,-3.2146,-3.2506,-3.2648,-3.272,0.0,0.0,0.0,0.0,0.0,0.0,0.0,-2.2466,-2.2286,-2.2039,-2.2325,-2.2831,-2.3572,-2.4513,-2.5408,0.0,0.0,0.0,0.0,0.0,0.0,0.0,0.0,0.0,0.0,0.0,0.0,-2.3894,-2.4236,0.0,0.0,0.0,0.0,0.0,-2.6502,-2.6837,-2.6836,-2.6917,-2.6916,0.0,0.0,-2.6534,0.0,0.0,0.0,0.0,0.0,-2.7845,-2.7181,-2.6491,-2.5918,-2.5425,-2.5302,-2.5765,-2.636,-2.6608,-2.6987,-2.7366,-2.7497,-2.7523,-2.7523,-2.7523,-2.7536,-2.7802,-2.8457,-2.9359,-3.0269,-3.0896,-3.1437,-3.1853,-3.1739,-3.0777,-2.9993,-2.9808,-2.8881,-2.821,-2.8079,-2.8303,-2.8608,-2.9209,-2.9784,-3.0359,-3.0934,-3.0898,0.0,-3.0037,-3.0355,-3.0748,-3.0986,-3.0823,-3.0823,-3.0823,-3.0823,-3.0823,-3.0823,-3.0911,-3.0986,-3.0911,-3.0685,-3.0533,-3.0292,-3.0152,-3.0011,-2.9869,-2.9869,0.0,0.0,-3.0683,-3.1057,-3.1576,-3.1576,-3.1576,-3.1649,-3.1783,-3.1856,-3.1928,0.0,0.0,0.0,0.0,0.0,0.0,0.0,-2.2281,-2.2039,-2.1982,-2.1877,-2.2073,-2.2814,-2.4232,-2.5408,0.0,0.0,0.0,0.0,0.0,0.0,0.0,0.0,0.0,0.0,0.0,0.0,-2.4784,-2.4166,0.0,0.0,0.0,0.0,0.0,0.0,-2.6275,-2.6321,-2.6805,0.0,0.0,0.0,0.0,0.0,0.0,0.0,0.0,0.0,-2.791,-2.7297,-2.7181,-2.6701,-2.6079,-2.6082,-2.5652,-2.5389,-2.6373,-2.6713,-2.687,-2.7392,-2.7523,-2.7523,-2.7523,-2.7802,-2.8145,-2.8522,-2.9546,-3.0584,-3.0896,-3.1709,-3.2231,-3.1796,-3.1263,-3.0658,-2.9931,-2.9085,-2.8471,-2.8145,-2.8303,-2.8608,-2.9209,-2.9784,-3.0359,-3.0934,-3.0432,-3.0037,-3.0037,-2.9561,-2.9793,-3.0911,-3.0432,-3.0114,-3.0114,-3.0114,-3.0114,-3.0114,-3.0672,-3.0823,-3.0432,-3.0444,-3.0292,-3.0152,-3.0075,-3.0075,-3.0075,-3.0075,0.0,0.0,-2.9934,-2.9934,-3.0011,-3.0011,-3.0011,-3.0075,-3.0758,-3.1044,-3.1106,0.0,0.0,0.0,0.0,0.0,0.0,-2.2141,-2.2056,-2.194,-2.1797,-2.1708,-2.1974,-2.2716,-2.377,-2.4746,-2.5475,0.0,0.0,0.0,0.0,0.0,0.0,0.0,0.0,0.0,0.0,-2.4385,-2.4533,-2.4036,0.0,0.0,0.0,0.0,0.0,0.0,-2.5645,-2.5618,-2.6153,0.0,0.0,0.0,0.0,0.0,0.0,0.0,0.0,0.0,0.0,-2.7894,-2.7464,-2.7078,-2.6753,-2.6347,-2.5978,-2.5809,-2.6142,-2.6476,-2.6726,-2.6948,-2.7262,-2.7523,-2.7523,-2.7802,-2.8276,-2.8881,-2.9794,-3.0584,-3.0896,-3.1537,-3.1838,-3.1379,-3.0911,-3.0493,-3.0129,-2.9463,-2.8967,-2.9206,-2.8929,-2.8892,-2.9489,-2.9514,-2.9554,-2.9845,0.0,-2.9484,-2.9484,-2.8858,-2.8949,-2.9793,-2.9639,-2.9484,-2.9484,-2.9484,-2.9484,-2.9484,-2.9716,-2.996,-3.0126,-3.0126,-3.0292,-3.047,-3.0305,-3.0228,-3.0075,-2.9934,0.0,0.0,-2.9792,-2.9792,-2.9792,-2.9792,-2.9792,-2.9869,-3.0139,-3.0203,-3.0343,0.0,0.0,0.0,0.0,0.0,-2.1424,-2.1475,-2.1508,-2.1532,-2.1587,-2.1634,-2.1892,-2.2403,-2.3207,-2.3967,-2.4713,-2.536,0.0,0.0,0.0,0.0,0.0,0.0,0.0,0.0,0.0,-2.4679,-2.4695,-2.4245,-2.412,0.0,0.0,-2.425,-2.4348,0.0,0.0,0.0,0.0,0.0,0.0,0.0,0.0,0.0,0.0,0.0,0.0,0.0,0.0,0.0,0.0,0.0,-2.7515,-2.699,-2.6715,-2.6461,-2.623,-2.6337,-2.6532,-2.6762,-2.7026,-2.7314,-2.7484,-2.7868,-2.8457,-2.9121,-2.9979,-3.0703,-3.097,-3.1379,-3.1495,-3.0911,-3.0493,-3.0251,-3.0144,-2.9526,-2.9173,-2.9392,-2.9154,-2.9008,-2.9215,-2.9213,-2.9172,-2.9081,-2.8937,-2.8779,-2.8542,-2.8167,-2.8087,-2.8542,-2.8542,-2.8621,-2.8858,-2.8858,-2.8858,-2.8858,-2.9003,-2.9238,-2.9651,-2.9651,-2.9819,-3.0139,-2.9883,-2.9639,-2.9496,-2.9534,0.0,0.0,-2.9702,-2.9792,-2.9792,-2.9792,-2.9792,-2.9792,-2.9792,-2.9792,-2.9856,0.0,0.0,0.0,0.0,0.0,0.0,-2.0616,-2.055,-2.0698,-2.1491,-2.1589,-2.162,-2.1694,-2.2446,-2.3205,-2.3951,-2.5359,0.0,0.0,0.0,0.0,0.0,0.0,0.0,0.0,0.0,-2.5556,-2.5701,-2.4934,-2.4815,-2.5192,-2.4523,-2.4333,-2.4589,0.0,0.0,0.0,0.0,0.0,0.0,0.0,0.0,0.0,0.0,0.0,0.0,0.0,0.0,0.0,0.0,0.0,0.0,0.0,-2.7894,-2.7159,-2.6679,-2.6252,-2.619,-2.6903,-2.6931,-2.6817,-2.7392,-2.8066,-2.8716,-2.9184,-3.0162,-3.1029,-3.1029,-3.1379,-3.1437,-3.0493,-3.0312,-3.0144,-2.9665,-2.9289,-2.883,-2.813,-2.8697,-2.8879,-2.7938,-2.8748,-2.9328,-2.9081,-2.8554,-2.7938,-2.7313,-2.7231,0.0,-2.7231,-2.7231,-2.7545,-2.8179,-2.8179,-2.8179,-2.8179,-2.8779,-2.9015,-2.8791,-2.8791,-2.8803,-2.8791,-2.8347,-2.8084,-2.8176,0.0,0.0,0.0,-2.9456,-2.9792,-2.9792,-2.9792,-2.9792,-2.9792,-2.9792,-2.9792,-2.9792,0.0,0.0,0.0,0.0,0.0,0.0,0.0,-1.9727,-1.9836,-2.0134,-2.0037,-1.998,-1.9992,-2.1117,-2.1982,-2.2212,-2.4199,0.0,0.0,0.0,0.0,0.0,0.0,0.0,0.0,0.0,-2.5503,-2.5556,-2.5192,-2.5036,-2.513,-2.4775,-2.4589,-2.4589,-2.4193,-2.3982,0.0,0.0,0.0,0.0,0.0,0.0,0.0,0.0,0.0,0.0,0.0,0.0,0.0,0.0,0.0,0.0,0.0,0.0,0.0,-2.7543,-2.7072,-2.6807,-2.7041,-2.7423,-2.7878,-2.8415,-2.899,-2.956,-3.0025,-3.0822,-3.1321,-3.0673,-3.1146,-3.1321,-3.0083,-3.0083,-3.0144,-2.9665,-2.9477,-2.9351,-2.9075,-2.851,-2.8201,-2.8164,-2.7975,-2.7857,0.0,0.0,-2.7464,-2.7231,-2.7231,-2.7231,-2.7231,-2.7231,-2.7313,-2.7545,-2.7545,-2.7545,-2.7545,-2.7696,-2.8007,-2.8407,-2.8407,-2.8633,-2.9015,-2.87,-2.8438,0.0,0.0,0.0,0.0,-2.8791,-2.9287,-2.9792,-2.9792,-2.9792,-2.9792,-2.9792,-2.9792,-2.9792,0.0,0.0,0.0,0.0,0.0,0.0,0.0,-1.8931,-1.911,-1.9427,-1.9394,-1.9323,-1.9323,-2.0168,-2.095,-2.1491,-2.2961,0.0,0.0,0.0,0.0,0.0,0.0,0.0,0.0,-2.5901,-2.5795,-2.5815,-2.5519,-2.546,-2.5535,-2.513,-2.4934,-2.4918,-2.4558,-2.4395,0.0,0.0,0.0,0.0,0.0,0.0,-2.5952,0.0,0.0,0.0,0.0,0.0,0.0,0.0,0.0,0.0,0.0,0.0,0.0,0.0,-2.7844,-2.753,-2.7331,-2.7527,-2.8015,-2.8791,-2.9337,-2.9875,-3.063,-3.1116,-3.1263,-3.0673,-3.0911,-3.0851,-2.9789,-2.9851,-2.996,-2.9665,-2.9401,-2.9054,-2.8678,-2.7902,-2.7476,-2.7702,-2.738,0.0,0.0,-2.7231,-2.7231,-2.7231,-2.7231,-2.7056,-2.6704,-2.6704,-2.6704,-2.6704,-2.7056,-2.7231,-2.7231,-2.7231,-2.7383,-2.7857,-2.7857,-2.8007,-2.8383,-2.8063,-2.781,0.0,0.0,0.0,0.0,-2.7891,-2.8303,-2.8803,-2.9209,-2.93,-2.9378,-2.9702,-2.9792,-2.9792,0.0,0.0,0.0,0.0,0.0,0.0,0.0,-1.8205,-1.8477,-1.9165,-1.929,-1.9318,-1.9318,-1.9421,-2.0053,-2.147,0.0,0.0,0.0,0.0,0.0,0.0,0.0,0.0,-2.622,-2.622,-2.6222,-2.6295,-2.5921,-2.5921,-2.626,-2.5513,-2.5269,-2.5503,-2.5144,-2.4989,0.0,0.0,0.0,0.0,0.0,0.0,0.0,0.0,0.0,0.0,0.0,0.0,0.0,0.0,0.0,0.0,0.0,0.0,0.0,0.0,0.0,0.0,0.0,-2.7414,-2.751,-2.8698,-2.9319,-2.9886,-3.0923,-3.1072,0.0,-3.097,-3.0613,-3.0144,-2.9665,-2.954,-2.954,-2.9602,-2.8917,-2.8168,-2.7311,-2.6961,-2.6797,-2.6616,-2.6887,0.0,-2.6974,-2.6974,-2.6974,-2.6974,-2.6974,-2.6622,-2.5746,-2.5735,-2.5735,-2.5735,-2.6528,-2.7056,-2.7231,-2.7231,-2.7231,-2.7231,-2.7231,-2.7231,-2.7149,-2.6787,-2.6528,0.0,0.0,0.0,0.0,-2.6905,-2.7069,-2.7151,-2.8051,-2.8462,-2.8621,-2.9378,-2.9714,-2.9792,0.0,0.0,0.0,0.0,0.0,0.0,0.0,0.0,0.0,0.0,-1.768,-1.7546,-1.7458,-1.8048,-1.8811,0.0,0.0,0.0,0.0,0.0,0.0,0.0,0.0,0.0,-2.622,-2.622,-2.6203,-2.6239,-2.617,-2.617,-2.6187,-2.5791,-2.5572,-2.5647,-2.5198,-2.4926,0.0,0.0,0.0,0.0,0.0,0.0,0.0,0.0,0.0,0.0,-2.638,-2.6949,0.0,0.0,0.0,0.0,0.0,0.0,0.0,0.0,-2.8411,-2.8394,-2.8221,0.0,-2.8502,-2.9147,-2.9868,-3.0496,0.0,-3.1192,-3.1321,-3.0613,-3.0372,-3.0144,-2.9665,-2.9121,-2.8917,-2.954,-2.8532,-2.7591,-2.7245,-2.66,-2.5896,-2.5015,-2.5643,-2.5841,-2.5179,-2.5094,-2.5094,-2.5094,-2.5094,-2.5009,-2.4829,-2.4829,-2.4829,-2.4829,-2.5009,-2.5779,-2.7149,-2.7231,-2.7231,-2.7231,-2.7231,-2.7231,-2.7231,-2.7056,-2.688,0.0,0.0,0.0,-2.6445,-2.6246,-2.6483,-2.7151,-2.7313,-2.7891,-2.8542,-2.8712,-2.9209,-2.9792,0.0,0.0,0.0,0.0,0.0,0.0,0.0,0.0,0.0,0.0,0.0,-1.7175,-1.7125,-1.7542,0.0,0.0,0.0,0.0,0.0,0.0,0.0,0.0,0.0,-2.622,-2.622,-2.622,-2.622,-2.622,-2.6222,-2.6258,-2.6258,-2.6046,-2.5994,-2.6063,-2.5832,-2.5481,-2.5075,0.0,0.0,0.0,-2.4124,0.0,0.0,0.0,0.0,0.0,-2.5613,-2.6134,0.0,-2.6795,-2.7365,-2.7934,0.0,0.0,0.0,0.0,-2.8411,-2.8411,-2.8411,-2.8461,-2.8712,-2.9285,-2.9745,-3.0221,-3.0609,-3.096,-3.1078,-3.0435,-3.0312,-3.0144,-2.9665,-2.8931,-2.8583,-2.9044,-2.7789,-2.6582,-2.6195,-2.5601,-2.5038,-2.4467,-2.4913,-2.4988,0.0,-2.4498,-2.4498,-2.4498,-2.4498,-2.4317,-2.3877,-2.3887,-2.3887,-2.3887,-2.3887,-2.4734,-2.6528,-2.6528,-2.6787,-2.7231,-2.7231,-2.7231,-2.7231,-2.7231,-2.6962,0.0,0.0,0.0,-2.5863,-2.5443,-2.5516,-2.5924,-2.6329,-2.6812,-2.7383,-2.8211,-2.8791,-2.9287,0.0,0.0,0.0,0.0,0.0,0.0,0.0,0.0,0.0,0.0,0.0,0.0,0.0,0.0,0.0,0.0,0.0,0.0,0.0,0.0,0.0,0.0,0.0,-2.622,-2.622,-2.622,-2.622,-2.622,-2.622,-2.6222,-2.6295,-2.6295,-2.6382,-2.6485,-2.6589,-2.6154,-2.5368,-2.5368,-2.4879,-2.3982,-2.4024,0.0,0.0,0.0,0.0,0.0,0.0,0.0,0.0,-2.598,-2.6641,-2.7257,-2.7349,0.0,0.0,0.0,0.0,0.0,-2.8411,-2.8299,-2.8373,-2.9005,-2.9184,-2.9398,-3.0132,-3.0428,-3.0446,-3.0232,-3.0194,-3.0021,-2.9477,-2.8753,-2.8208,-2.8298,-2.6883,-2.5569,-2.4849,-2.4506,-2.4379,-2.4377,-2.4354,0.0,-2.4059,-2.4069,-2.4069,-2.4069,-2.4069,-2.3714,-2.2931,-2.2931,-2.2931,-2.2931,-2.2931,-2.3694,-2.54,-2.5568,-2.6091,-2.6974,-2.6974,-2.7056,-2.7231,-2.7231,-2.6962,-2.6445,0.0,0.0,-2.52,-2.47,-2.454,-2.4529,-2.5337,-2.5663,-2.5986,-2.7557,-2.8291,-2.8621,0.0,0.0,0.0,0.0,0.0,0.0,0.0,0.0,0.0,0.0,0.0,0.0,0.0,0.0,0.0,0.0,0.0,0.0,0.0,0.0,0.0,-2.5243,-2.5889,-2.622,-2.622,-2.622,-2.622,-2.622,-2.622,-2.6222,-2.6295,-2.6295,-2.6382,-2.6485,-2.6589,-2.6082,-2.523,-2.5329,-2.4879,-2.4024,-2.4124,0.0,0.0,0.0,0.0,0.0,0.0,0.0,0.0,-2.5441,-2.5933,-2.6595,-2.7211,0.0,0.0,0.0,0.0,0.0,-2.8411,-2.7959,-2.7545,-2.7961,-2.821,-2.8411,-2.8551,-2.9107,-2.958,-2.9564,-2.9665,-2.9463,-2.8624,-2.8012,-2.7537,-2.7445,-2.6488,-2.5487,0.0,0.0,-2.4403,-2.3391,0.0,-2.3368,-2.2217,-2.2167,-2.2167,-2.2167,-2.2167,-2.2078,-2.1909,-2.19,-2.19,-2.19,-2.19,-2.2413,-2.3521,-2.4307,-2.5158,-2.5997,-2.5997,-2.6434,-2.7231,-2.7231,-2.6962,-2.6445,0.0,-2.5633,-2.52,-2.47,-2.454,-2.454,-2.4615,-2.5179,-2.5819,-2.6069,-2.7139,-2.8621,0.0,0.0,0.0,0.0,0.0,0.0,0.0,0.0,0.0,0.0,0.0,0.0,0.0,0.0,0.0,0.0,0.0,0.0,0.0,0.0,0.0,-2.4497,-2.5607,-2.622,-2.622,-2.622,-2.622,-2.622,-2.622,-2.6222,-2.6295,-2.6382,-2.6434,-2.6485,-2.652,-2.5994,-2.5082,-2.5253,-2.4759,-2.3925,0.0,0.0,0.0,0.0,0.0,0.0,0.0,0.0,0.0,0.0,-2.5182,-2.5768,-2.6135,0.0,0.0,0.0,0.0,0.0,-2.8411,-2.7695,-2.699,-2.7174,-2.7135,-2.7122,-2.725,-2.7584,-2.8009,-2.8612,-2.8783,-2.8706,-2.8349,-2.7657,-2.6841,-2.5755,-2.5288,-2.4957,-2.4562,-2.4317,-2.4007,0.0,0.0,-2.2709,-2.2063,-2.1868,-2.1741,-2.1741,-2.1741,-2.1741,-2.1741,-2.1741,-2.1741,-2.1741,-2.1741,-2.1909,-2.2334,-2.2765,-2.3714,-2.5073,-2.5579,-2.5997,-2.6434,-2.6962,-2.6809,-2.6135,0.0,-2.5464,-2.4786,-2.4625,-2.454,-2.454,-2.454,-2.4775,-2.5179,-2.6163,-2.7383,-2.8621,0.0,0.0,0.0,0.0,0.0,0.0,0.0,0.0,0.0,0.0,0.0,0.0,0.0,0.0,0.0,0.0,0.0,0.0,0.0,0.0,-2.4,-2.4,-2.5425,-2.622,-2.622,-2.622,-2.622,-2.622,-2.622,-2.6222,-2.6295,-2.6434,-2.6485,-2.6434,-2.6434,-2.5957,-2.5121,-2.5253,-2.4823,-2.412,0.0,0.0,0.0,0.0,0.0,0.0,0.0,0.0,0.0,0.0,0.0,0.0,0.0,0.0,0.0,-2.7257,-2.7765,-2.8196,-2.8301,-2.753,-2.6678,-2.6678,-2.6361,-2.6073,-2.6105,-2.6214,-2.6503,-2.733,-2.7592,-2.7642,-2.7511,-2.6819,-2.5881,-2.455,-2.4418,-2.449,-2.4418,-2.4066,-2.3732,-2.3831,-2.3151,-2.2581,-2.2366,-2.2004,-2.1808,-2.1731,-2.1741,-2.1741,-2.1741,-2.1741,-2.1741,-2.1741,-2.1741,-2.1741,-2.1741,-2.1741,-2.2511,-2.4145,-2.4808,-2.54,-2.583,-2.6528,-2.655,-2.5895,-2.5895,-2.5391,-2.454,-2.454,-2.454,-2.454,-2.454,-2.454,-2.47,-2.6246,-2.7395,-2.8303,0.0,0.0,0.0,0.0,0.0,0.0,0.0,0.0,0.0,0.0,0.0,0.0,0.0,0.0,0.0,0.0,0.0,0.0,0.0,0.0,-2.4,-2.4,-2.5425,-2.622,-2.622,-2.622,-2.622,-2.622,-2.622,-2.6222,-2.6295,-2.6434,-2.6434,-2.6295,-2.6295,-2.6013,-2.5465,-2.561,-2.54,-2.4974,-2.4815,0.0,0.0,0.0,0.0,0.0,0.0,0.0,0.0,0.0,0.0,0.0,0.0,0.0,-2.5674,-2.6857,-2.7317,-2.7596,-2.8066,-2.7479,-2.6678,-2.6678,-2.6136,-2.5494,-2.5172,-2.5382,-2.5598,-2.5422,-2.5837,-2.5985,-2.5209,-2.4835,-2.4706,-2.4718,-2.4646,-2.4418,-2.4273,0.0,-2.4039,-2.3646,-2.3524,-2.3202,-2.2487,-2.2349,-2.2188,-2.1704,-2.1741,-2.1741,-2.1741,-2.1741,-2.1741,-2.1741,-2.1741,-2.1741,-2.1741,-2.1741,-2.2255,-2.3183,-2.327,-2.42,-2.5819,-2.5913,-2.5935,-2.5895,-2.5895,-2.5391,-2.454,-2.454,-2.454,-2.454,-2.454,-2.454,-2.4615,-2.5589,-2.6483,-2.7313,0.0,0.0,0.0,0.0,0.0,0.0,0.0,0.0,0.0,0.0,0.0,0.0,0.0,0.0,0.0,0.0,0.0,0.0,0.0,-2.3172,-2.4,-2.4,-2.5425,-2.622,-2.622,-2.622,-2.622,-2.622,-2.622,-2.6203,-2.6222,-2.6274,-2.6274,-2.6222,-2.6222,-2.5957,-2.5503,-2.5647,-2.5497,-2.5153,-2.5153,-2.5176,0.0,0.0,0.0,0.0,0.0,0.0,0.0,0.0,-2.4208,-2.4296,-2.4568,-2.4979,-2.5459,-2.6336,-2.6965,-2.744,-2.748,-2.6953,-2.6347,-2.6094,-2.5467,-2.4821,-2.4708,-2.4379,-2.4201,-2.4758,-2.4861,-2.488,-2.5176,-2.4744,-2.4345,-2.4418,-2.4345,-2.4273,-2.42,-2.42,-2.4112,-2.3999,-2.3753,-2.3455,-2.3175,-2.2659,-2.2293,-2.2102,-2.185,-2.1741,-2.1741,-2.1741,-2.1741,-2.1741,-2.1741,-2.1741,-2.1741,-2.1741,-2.1909,-2.2246,-2.2843,-2.3434,-2.4125,-2.4734,-2.5009,-2.502,-2.502,-2.4861,-2.454,-2.454,-2.454,-2.454,-2.454,-2.454,-2.4625,-2.5505,-2.5986,-2.6483,0.0,0.0,0.0,0.0,0.0,0.0,0.0,0.0,0.0,0.0,0.0,0.0,0.0,0.0,0.0,0.0,0.0,0.0,-2.1748,-2.3172,-2.4,-2.4,-2.5425,-2.622,-2.622,-2.622,-2.622,-2.622,-2.622,-2.622,-2.622,-2.622,-2.622,-2.622,-2.622,-2.6026,-2.5742,-2.5832,-2.5775,-2.5626,-2.561,-2.561,0.0,0.0,0.0,0.0,0.0,0.0,0.0,0.0,-2.4317,-2.425,-2.4276,-2.4625,-2.509,-2.5649,-2.6245,-2.6743,-2.6737,-2.6361,-2.5918,-2.5673,-2.5133,-2.4637,-2.4509,-2.38,-2.3321,-2.4137,-2.3903,-2.3881,-2.4749,-2.4413,-2.4005,0.0,-2.4273,-2.42,-2.42,-2.42,-2.42,-2.42,-2.397,-2.3764,-2.3602,-2.3099,-2.2619,-2.2152,-2.1854,-2.1655,-2.153,-2.1539,-2.1603,-2.1731,-2.1741,-2.1741,-2.1741,-2.1989,-2.1989,-2.1731,-2.2668,-2.3096,-2.3096,-2.38,-2.4059,-2.4145,-2.4413,-2.4337,-2.4196,-2.4454,-2.454,-2.454,-2.454,-2.454,-2.4529,-2.5179,-2.5746,-2.64,0.0,0.0,0.0,0.0,0.0,0.0,0.0,0.0,0.0,0.0,0.0,0.0,0.0,0.0,0.0,0.0,0.0,0.0,-2.1748,-2.3172,-2.4,-2.4,-2.5425,-2.622,-2.622,-2.622,-2.622,-2.622,-2.622,-2.622,-2.622,-2.622,-2.622,-2.622,-2.622,-2.6222,-2.6295,-2.6295,-2.6382,-2.6485,-2.6134,-2.5954,-2.5881,0.0,0.0,0.0,0.0,0.0,0.0,0.0,-2.4574,-2.4302,-2.4302,-2.4302,-2.4399,-2.4859,-2.5152,-2.539,-2.581,-2.573,-2.5618,-2.5618,-2.5314,-2.4892,-2.458,-2.38,-2.316,-2.3343,-2.3033,-2.2888,-2.3572,-2.3571,-2.3686,-2.4409,-2.4345,-2.42,-2.42,-2.42,-2.42,-2.42,-2.42,-2.4016,-2.3646,-2.3613,-2.3097,-2.184,-2.1705,-2.1575,-2.1167,-2.1099,-2.1291,-2.1713,-2.1731,-2.1731,-2.1731,-2.2668,-2.2668,-2.1741,-2.2677,-2.3096,-2.3096,-2.3096,-2.3183,-2.3434,-2.4145,-2.4079,-2.359,-2.4196,-2.454,-2.454,-2.454,-2.454,-2.454,-2.454,-2.56,-2.7069,0.0,0.0,0.0,0.0,0.0,0.0,0.0,0.0,0.0,0.0,0.0,0.0,0.0,0.0,0.0,0.0,0.0,0.0,-2.1781,-2.3172,-2.4,-2.4,-2.5425,-2.622,-2.622,-2.622,-2.622,-2.622,-2.622,-2.622,-2.622,-2.622,-2.622,-2.6203,-2.6258,-2.6258,-2.6222,-2.6277,-2.633,-2.6347,-2.626,-2.6241,-2.6258,0.0,0.0,0.0,0.0,0.0,0.0,0.0,0.0,0.0,-2.4719,-2.4533,-2.4399,-2.4859,-2.5439,-2.5922,-2.581,-2.5821,-2.5809,-2.5508,-2.4921,-2.439,-2.4465,-2.4034,-2.356,-2.3443,-2.3278,-2.3397,-2.394,-2.399,-2.4026,-2.4253,-2.4273,-2.42,-2.42,-2.42,-2.42,-2.42,-2.42,-2.4173,-2.4028,-2.3731,-2.3436,-2.3097,-2.2775,-2.2523,-2.2416,-2.2426,-2.2486,-2.2625,-2.2904,-2.3148,-2.3148,-2.3725,-2.3973,-2.3637,-2.3973,-2.3367,-2.2167,-2.2167,-2.2255,-2.252,-2.3222,-2.3484,-2.359,-2.4196,-2.454,-2.454,-2.454,-2.454,-2.454,-2.454,-2.4871,-2.5443,0.0,0.0,0.0,0.0,0.0,0.0,0.0,0.0,0.0,0.0,0.0,0.0,0.0,0.0,0.0,0.0,0.0,0.0,0.0,-2.3077,-2.3902,-2.3984,-2.5339,-2.6168,-2.622,-2.622,-2.622,-2.622,-2.622,-2.622,-2.622,-2.622,-2.622,-2.6203,-2.6258,-2.6241,-2.6258,-2.626,-2.633,-2.6382,-2.6382,-2.6434,-2.6485,0.0,0.0,0.0,0.0,0.0,0.0,0.0,0.0,0.0,-2.4942,-2.4719,-2.455,-2.4902,-2.5304,-2.5672,-2.571,-2.5664,-2.555,-2.53,-2.4664,-2.4171,-2.4305,-2.4131,-2.3739,-2.3232,-2.3257,-2.359,-2.408,-2.4014,0.0,-2.4422,-2.4334,-2.42,-2.42,-2.42,-2.42,-2.42,-2.42,-2.42,-2.42,-2.401,-2.3729,-2.3427,-2.3139,-2.2914,-2.2783,-2.2783,-2.2866,-2.296,-2.3299,-2.3433,-2.3433,-2.4325,-2.4556,-2.4209,-2.4735,-2.4135,-2.2511,-2.2246,-2.2069,-2.1989,-2.2882,-2.3493,-2.3937,-2.4368,-2.454,-2.454,-2.454,-2.454,-2.454,-2.454,-2.47,-2.5189,0.0,0.0,0.0,0.0,0.0,0.0,0.0,0.0,0.0,0.0,-1.7714,0.0,0.0,0.0,0.0,0.0,0.0,0.0,0.0,0.0,-2.3752,-2.3885,-2.5252,-2.6079,-2.622,-2.622,-2.622,-2.622,-2.622,-2.622,-2.622,-2.622,-2.622,-2.622,-2.6203,-2.6222,-2.6295,-2.6295,-2.6382,-2.6485,-2.6485,-2.6485,-2.6485,-2.6485,0.0,0.0,0.0,0.0,0.0,0.0,0.0,0.0,-2.5098,-2.4918,-2.482,-2.4912,-2.497,-2.5116,-2.5587,-2.5438,-2.5174,-2.5118,-2.4549,-2.4112,-2.4171,-2.4112,-2.3865,-2.2919,-2.3125,-2.3599,-2.4147,-2.3899,-2.3859,-2.4838,-2.4599,-2.4261,-2.42,-2.42,-2.42,-2.42,-2.42,-2.42,-2.42,-2.42,-2.3897,-2.315,-2.3075,-2.2961,-2.2611,-2.2553,-2.2741,-2.3078,-2.3119,-2.314,-2.314,-2.4503,-2.4729,-2.3888,-2.5193,-2.5167,-2.3816,-2.3066,-2.2482,-2.1961,-2.3047,-2.3851,-2.454,-2.454,-2.454,-2.454,-2.454,-2.454,-2.454,-2.454,-2.502,-2.5663,0.0,0.0,0.0,0.0,0.0,0.0,0.0,0.0,0.0,0.0,0.0,0.0,0.0,0.0,0.0,0.0,0.0,0.0,0.0,0.0,-2.3885,-2.3885,-2.5355,-2.6168,-2.622,-2.622,-2.622,-2.622,-2.622,-2.622,-2.622,-2.622,-2.622,-2.6203,-2.6258,-2.6258,-2.6239,-2.6277,-2.6277,-2.6274,-2.6312,-2.6329,-2.6274,-2.6312,-2.633,0.0,0.0,0.0,0.0,0.0,0.0,0.0,-2.5872,-2.5389,-2.4855,-2.4729,-2.519,-2.5738,-2.5637,-2.5952,-2.6244,-2.5742,-2.4878,-2.4229,-2.4677,-2.4447,-2.4054,-2.3793,-2.3865,-2.4107,-2.4709,-2.4718,-2.474,-2.4979,-2.4874,-2.4671,-2.4261,-2.42,-2.42,-2.42,-2.42,-2.42,-2.42,-2.42,-2.4127,-2.397,-2.397,-2.3869,-2.3824,-2.3824,-2.3868,-2.3981,-2.4265,-2.4455,-2.4455,-2.5204,-2.5464,0.0,-2.5961,-2.5529,-2.4044,-2.3715,-2.3454,-2.3309,-2.3493,-2.3851,-2.454,-2.454,-2.454,-2.454,-2.454,-2.454,-2.454,-2.454,-2.4615,-2.4861,0.0,0.0,0.0,0.0,0.0,0.0,0.0,0.0,0.0,0.0,0.0,0.0,0.0,0.0,0.0,0.0,0.0,0.0,0.0,0.0,-2.4114,-2.4873,-2.5719,-2.622,-2.622,-2.622,-2.622,-2.622,-2.622,-2.622,-2.622,-2.622,-2.622,-2.622,-2.6222,-2.6222,-2.6203,-2.6222,-2.6222,-2.6203,-2.6222,-2.6258,-2.6258,-2.6364,-2.6399,-2.6399,-2.6417,0.0,0.0,0.0,0.0,0.0,0.0,0.0,-2.5342,-2.5774,-2.5994,-2.6245,-2.6839,-2.6872,-2.6563,-2.596,-2.5356,-2.4935,-2.5005,-2.4778,-2.4447,-2.4171,-2.4112,-2.4346,-2.5228,-2.5192,-2.5159,-2.5758,-2.5581,-2.5229,-2.4671,-2.4599,-2.4467,-2.4261,-2.42,-2.42,-2.42,-2.42,-2.42,-2.42,-2.42,-2.42,-2.42,-2.42,-2.42,-2.42,-2.4441,-2.4568,-2.4568,-2.5073,-2.5325,-2.5337,-2.5853,-2.5576,-2.457,-2.3951,-2.3657,-2.3667,-2.3851,-2.4196,-2.454,-2.454,-2.454,-2.454,-2.454,-2.454,-2.454,-2.454,-2.454,-2.454,0.0,0.0,0.0,0.0,0.0,0.0,0.0,0.0,0.0,0.0,0.0,0.0,0.0,0.0,0.0,0.0,0.0,0.0,0.0,0.0,0.0,-2.5961,-2.6132,-2.622,-2.622,-2.622,-2.622,-2.622,-2.622,-2.622,-2.622,-2.622,-2.622,-2.622,-2.622,-2.6286,-2.6402,-2.6402,-2.6468,-2.6584,-2.6584,-2.664,-2.6678,-2.6818,-2.687,-2.6905,-2.6924,-2.6905,-2.6905,-2.6924,0.0,0.0,0.0,0.0,-2.6249,-2.7163,-2.695,-2.6733,-2.7984,-2.7525,-2.6616,-2.6229,-2.5946,-2.5687,-2.5216,-2.5061,-2.4835,-2.4229,-2.4112,-2.4465,-2.5615,-2.5447,-2.5485,-2.6536,-2.6358,-2.5861,-2.5217,-2.5158,-2.5016,-2.4539,-2.4478,-2.4478,-2.4478,-2.4478,-2.4478,-2.4478,-2.4478,-2.4478,-2.4478,-2.4478,-2.4478,-2.4478,-2.4478,-2.4478,-2.4478,-2.4873,-2.4997,-2.4934,-2.5249,-2.5284,-2.4952,-2.4029,-2.3684,-2.3677,-2.4282,-2.454,-2.454,-2.454,-2.454,-2.454,-2.454,-2.454,-2.454,-2.454,-2.454,-2.454,0.0,0.0,0.0,0.0,0.0,0.0,0.0,0.0,0.0,0.0,0.0,0.0,0.0,0.0,0.0,0.0,0.0,0.0,0.0,0.0,0.0,-2.6134,-2.6168,-2.622,-2.622,-2.622,-2.622,-2.622,-2.622,-2.622,-2.622,-2.622,-2.622,-2.622,-2.622,-2.6551,-2.7168,-2.7168,-2.7533,-2.813,-2.8151,-2.8189,-2.8227,-2.8227,-2.8302,-2.8394,-2.8302,-2.8302,-2.8431,-2.8431,-2.8377,0.0,0.0,0.0,-2.7709,-2.7872,-2.77,-2.7502,-2.7596,-2.7165,-2.6841,-2.7255,-2.6587,-2.5783,-2.5742,-2.5314,-2.4835,-2.4229,-2.4112,-2.4465,-2.5615,-2.5762,-2.5935,-2.6604,-2.6645,-2.6427,-2.5861,-2.5791,-2.5721,-2.5652,-2.5652,-2.5652,-2.5652,-2.5652,-2.5652,-2.5652,-2.5652,-2.5652,-2.5652,-2.5652,-2.5652,-2.5652,-2.5652,-2.5652,-2.5652,-2.5725,-2.5467,-2.498,-2.4637,-2.4459,-2.453,-2.437,-2.4325,-2.4368,-2.4454,-2.454,-2.454,-2.454,-2.454,-2.454,-2.454,-2.454,-2.454,-2.454,-2.454,-2.454,0.0,0.0,0.0,0.0,0.0,0.0,0.0,0.0,0.0,0.0,0.0,0.0,0.0,0.0,0.0,0.0,0.0,0.0,0.0,0.0,0.0,-2.6046,-2.6079,-2.6115,-2.622,-2.622,-2.622,-2.622,-2.622,-2.622,-2.622,-2.6617,-2.6816,-2.6816,-2.6816,-2.7214,-2.7931,-2.7931,-2.8113,-2.8412,-2.8412,-2.8262,-2.8033,-2.8379,-2.8395,-2.8223,-2.8472,-2.8586,-2.8624,-2.8624,-2.8586,-2.8548,-2.8548,0.0,0.0,0.0,-2.8706,-2.8331,-2.8124,-2.7652,-2.7255,-2.7509,-2.7188,-2.6707,-2.639,-2.6136,-2.5701,-2.4778,-2.486,-2.5223,-2.573,-2.5824,-2.6063,-2.7007,-2.7121,-2.6985,-2.6427,-2.6358,-2.622,-2.5931,-2.5931,-2.5931,-2.5931,-2.5931,-2.5931,-2.5931,-2.5931,-2.5931,-2.5931,-2.5931,-2.5931,-2.5931,-2.5931,-2.5931,-2.5931,-2.5931,-2.5791,-2.5511,-2.5326,-2.4962,-2.4459,-2.4448,-2.4347,-2.4188,-2.4436,-2.454,-2.454,-2.454,-2.454,-2.454,-2.454,-2.454,-2.454,-2.454,-2.454,-2.454,0.0,0.0,0.0,0.0,0.0,0.0,0.0,0.0,0.0,0.0,0.0,0.0,0.0,0.0,0.0,0.0,0.0,0.0,0.0,0.0,0.0,-2.5957,-2.6026,-2.6115,-2.622,-2.622,-2.622,-2.622,-2.622,-2.6303,-2.6501,-2.7031,-2.7499,-2.781,-2.7665,-2.7997,-2.8638,-2.8638,-2.8754,-2.892,-2.892,-2.8728,-2.8396,-2.8728,-2.8631,-2.8429,-2.8847,-2.8965,-2.8965,-2.9098,-2.906,-2.8998,-2.8998,-2.8959,0.0,0.0,0.0,-2.914,-2.8685,-2.8189,-2.781,-2.7625,-2.7625,-2.7458,-2.6841,-2.6683,-2.6394,0.0,-2.549,-2.5854,-2.6028,-2.6046,-2.6373,-2.7366,-2.7523,-2.739,-2.6985,-2.6918,-2.6769,-2.6346,-2.6277,-2.6277,-2.6277,-2.6277,-2.6277,-2.6277,-2.6277,-2.6277,-2.6277,-2.6277,-2.6277,-2.6277,-2.6277,-2.6277,-2.6277,-2.6139,-2.607,-2.607,-2.6,-2.548,-2.462,-2.451,-2.4227,-2.3874,-2.42,-2.4374,-2.4385,-2.4498,-2.454,-2.454,-2.454,-2.454,-2.454,-2.454,-2.454,-2.454,0.0,0.0,0.0,0.0,0.0,0.0,0.0,0.0,0.0,0.0,0.0,0.0,-2.1629,-2.1761,-2.22,-2.3349,-2.3448,-2.3807,-2.4626,-2.5475,-2.5941,-2.601,-2.6115,0.0,-2.622,-2.622,-2.622,-2.622,-2.622,-2.6568,-2.7251,-2.7284,-2.7992,-2.9268,-2.8622,-2.8704,-2.9367,-2.9367,-2.9764,-3.041,-3.041,-3.0452,-3.0493,-2.9956,-2.9854,-2.9982,-2.994,-2.9913,-2.9999,-3.0452,-3.0493,-3.041,-3.041,-3.041,-3.0452,0.0,0.0,0.0,-2.8996,-2.8559,-2.8334,-2.776,-2.7625,-2.7458,-2.6841,-2.6683,-2.6508,-2.5914,-2.5761,-2.5961,-2.654,-2.6621,-2.6831,-2.7432,-2.7523,-2.7456,-2.7456,-2.7469,-2.7456,-2.739,-2.739,-2.739,-2.739,-2.739,-2.739,-2.739,-2.739,-2.739,-2.739,-2.739,-2.739,-2.739,-2.739,-2.739,-2.739,-2.6918,-2.6645,-2.6645,-2.6139,-2.5581,-2.4992,-2.4659,-2.4234,-2.3732,-2.3832,-2.3919,-2.395,-2.4364,-2.454,-2.454,-2.454,-2.454,-2.454,-2.454,-2.454,-2.454,0.0,0.0,0.0,0.0,0.0,0.0,0.0,0.0,0.0,0.0,0.0,0.0,0.0,-2.2887,-2.3245,-2.4061,-2.4563,-2.4952,-2.5248,-2.5566,-2.5824,-2.5917,-2.597,-2.6043,-2.6063,-2.6168,-2.6168,-2.6063,-2.6614,-2.7031,-2.7334,-2.8207,-2.892,-2.94,-2.9152,-2.945,-3.0129,-3.0129,-3.0278,-3.0468,-3.0156,-2.9897,-2.9661,-2.9438,-2.9196,-2.898,-2.9287,-2.9617,-2.9897,-3.007,-3.03,-3.0526,-3.0609,-3.0609,-3.0692,-3.0895,-3.0435,-2.9761,-2.9271,-2.8654,-2.8073,-2.7675,-2.7675,-2.7625,-2.7357,-2.7255,-2.7225,-2.7028,-2.7301,-2.7549,-2.7377,-2.6982,-2.687,-2.7432,-2.7523,-2.7523,-2.7523,-2.7523,-2.7523,-2.7523,-2.7523,-2.7523,-2.7523,-2.7523,-2.7523,-2.7523,-2.7523,-2.7523,-2.7523,-2.7523,-2.7523,-2.7523,-2.7908,-2.8157,-2.8157,-2.751,-2.7188,-2.7188,-2.6918,-2.6346,-2.5487,-2.5314,-2.4469,-2.3274,-2.363,-2.3794,-2.3888,-2.4053,-2.4281,-2.454,-2.454,-2.454,-2.454,-2.454,-2.454,-2.454,0.0,0.0,0.0,0.0,0.0,0.0,0.0,0.0,0.0,-2.2716,0.0,0.0,0.0,0.0,-2.4094,-2.4806,-2.5324,-2.5616,-2.5616,-2.5637,-2.5696,-2.5844,-2.5881,-2.5917,-2.5954,-2.6079,-2.6195,-2.6389,-2.6995,-2.7549,-2.8009,-2.8969,-2.9549,-2.9781,-2.9781,-3.0063,-3.0526,-3.0526,-3.0526,-3.0468,-2.9984,-2.9705,-2.9528,-2.9212,-2.8982,-2.881,-2.9028,-2.9303,-2.9572,-2.9572,-2.975,-3.007,-3.0342,-3.0568,-3.0773,-3.0733,-3.0309,-2.9761,-2.9316,-2.8748,-2.8171,-2.784,-2.779,-2.779,-2.7675,-2.7805,-2.7943,-2.7977,-2.8492,-2.8727,-2.8091,-2.7581,-2.734,-2.7471,-2.7523,-2.7523,-2.7523,-2.7523,-2.7523,-2.7523,-2.7523,-2.7523,-2.7523,-2.7523,-2.7523,-2.7523,0.0,0.0,-2.7842,-2.7842,-2.7973,-2.8143,-2.8583,-2.8839,-2.8839,-2.8157,-2.7776,-2.7789,-2.7403,-2.6837,-2.6114,-2.5767,-2.4921,-2.374,-2.3821,-2.3675,-2.3432,-2.3753,-2.4053,-2.4333,-2.4478,-2.454,-2.454,-2.454,-2.454,-2.454,0.0,0.0,0.0,0.0,0.0,0.0,0.0,0.0,-2.3285,-2.3495,0.0,0.0,0.0,0.0,0.0,-2.5551,-2.5616,-2.5616,-2.5616,-2.5642,-2.5701,-2.5701,-2.5828,-2.5897,-2.5914,-2.5987,-2.6405,-2.7147,-2.7292,-2.8042,-2.9417,-2.9433,-2.9831,-3.0526,-3.0526,-3.0526,-3.0526,-3.0526,-3.0526,-3.0468,-2.9984,-3.007,-3.0342,-2.9438,-2.9348,-2.9661,-2.9212,-2.9074,0.0,-2.9074,0.0,-2.9166,-2.9617,-3.0284,-3.079,-3.0316,-3.0199,-3.0038,0.0,0.0,0.0,-2.8088,-2.7905,-2.779,-2.7821,0.0,-2.8613,-2.8633,-2.9145,-2.9342,-2.868,-2.8546,-2.8287,-2.7656,-2.7523,-2.7523,-2.7523,-2.7523,-2.7523,-2.7523,-2.7523,-2.7523,-2.7523,-2.7523,-2.7523,-2.7523,-2.7523,-2.7842,-2.8468,-2.8546,-2.8839,-2.9504,-2.9504,-2.9504,-2.9504,-2.8712,-2.8287,-2.8287,-2.7403,-2.6875,-2.6645,-2.5988,-2.5499,-2.5241,-2.448,-2.3519,-2.2621,-2.3535,-2.393,-2.3919,-2.4353,-2.4529,-2.454,-2.454,-2.454,-2.454,0.0,0.0,0.0,0.0,0.0,0.0,-2.2623,-2.3136,-2.3623,0.0,0.0,0.0,-2.5255,-2.5308,-2.5389,-2.56,-2.5616,-2.5616,-2.5616,-2.56,-2.5659,-2.5701,-2.5738,-2.6036,-2.6667,-2.678,-2.7163,-2.7927,-2.8533,-2.9019,-2.9417,-2.9963,-3.0286,-3.0526,-3.0526,-3.0526,-3.0526,-3.0526,-3.0526,-3.0468,-2.9984,-2.9661,-2.9438,-2.8779,-2.84,-2.8174,0.0,-2.8222,-2.8543,0.0,-2.8779,-2.912,-2.93,-2.9585,-2.9777,-2.9645,-2.9361,-2.9088,-2.8842,0.0,0.0,0.0,0.0,0.0,-2.8444,0.0,-2.8997,-2.9778,-3.0093,-3.0045,-2.9344,-2.9205,-2.9016,-2.8352,-2.7842,-2.7523,-2.7523,-2.7523,-2.7523,-2.7523,-2.7523,-2.7523,-2.7523,-2.7523,-2.7723,0.0,-2.8222,-2.8532,-2.9205,-2.9205,-2.9518,-3.0208,-2.9766,-2.9752,-3.0208,-2.903,-2.8417,-2.8417,-2.7469,-2.6943,-2.6875,-2.644,-2.5873,-2.5312,-2.5087,-2.4502,-2.3646,-2.3754,-2.3811,-2.3888,-2.4012,-2.426,-2.454,-2.454,-2.454,-2.454,0.0,0.0,0.0,0.0,0.0,-2.2964,-2.3375,-2.3865,-2.4311,0.0,0.0,0.0,-2.5448,-2.5448,-2.5448,-2.5448,-2.554,-2.5616,-2.5616,-2.5616,-2.5729,-2.6081,-2.6097,-2.6477,-2.7287,-2.7382,-2.782,-2.8526,-2.9074,-2.9518,-2.9815,-3.0286,-3.0526,-3.0526,-3.0526,-3.0526,-3.0526,-3.0526,-3.0526,-3.0426,-2.9793,-2.9483,-2.9303,-2.8591,-2.8255,0.0,0.0,0.0,-2.824,-2.8061,-2.8367,0.0,-2.9088,-2.921,-2.9345,-2.9422,-2.9104,-2.8701,-2.8574,-2.8414,-2.8262,-2.8503,0.0,0.0,-2.9197,-2.9456,-2.981,0.0,-3.0731,-3.0687,-3.0061,-2.969,-2.938,-2.8967,-2.8338,-2.8026,-2.8274,-2.8091,-2.7908,-2.7908,-2.7656,-2.759,-2.7908,-2.7908,-2.8222,-2.8839,-2.8903,-2.9205,-2.9889,-3.0208,-3.0524,-3.0896,-3.0524,-3.0524,-3.0896,-2.978,-2.9219,-2.9219,-2.8012,-2.7377,-2.7255,-2.6794,-2.6314,-2.5804,-2.5804,-2.537,-2.4587,-2.4453,-2.4292,-2.4266,-2.4349,-2.4502,-2.4672,-2.4542,-2.454,-2.454,0.0,0.0,-2.2609,-2.3286,-2.3568,-2.3888,-2.4496,-2.4766,-2.5005,0.0,-2.5256,-2.5256,-2.5256,-2.5294,-2.5294,-2.5294,-2.5567,-2.5729,-2.5729,-2.581,-2.6134,-2.6782,-2.6814,-2.7138,-2.7818,-2.7948,-2.8388,-2.9105,-2.9313,-2.9749,-3.0417,-3.0485,-3.0526,-3.0526,-3.0526,-3.0526,-3.0526,-3.0609,-3.06,-3.0458,-2.956,-2.9393,0.0,0.0,-2.8667,-2.8967,-2.8601,-2.8437,-2.8388,-2.7986,-2.8122,0.0,0.0,-2.9186,-2.9294,-2.9496,-2.9171,-2.8792,-2.866,-2.8514,-2.8602,-2.9316,-2.9419,0.0,-3.0015,-3.05,-3.083,0.0,-3.1162,-3.1336,-3.0703,-3.0072,-2.969,-2.969,-2.9142,-2.8903,-2.9442,-2.8967,-2.8597,-2.8597,-2.8091,-2.7973,-2.8532,-2.8597,-2.8903,-2.9566,-2.969,-2.995,-3.0584,-3.1161,-3.1482,-3.1482,-3.1482,-3.1482,-3.1482,-3.0718,-3.0329,-3.0329,-2.8812,-2.8051,-2.7802,-2.7095,-2.6714,-2.6589,-2.6521,-2.6094,-2.5453,-2.5453,-2.5169,-2.4819,-2.4924,-2.5011,-2.5082,-2.4798,-2.4744,-2.4786,0.0,-2.3102,-2.3317,-2.3994,-2.4158,-2.4189,-2.4328,-2.4385,-2.4508,-2.471,-2.4926,-2.5045,-2.5045,-2.5217,-2.5294,-2.5294,-2.6034,-2.649,-2.649,-2.6992,-2.7365,-2.751,-2.751,-2.7891,-2.8721,-2.8795,-2.9163,-2.995,-3.0119,-3.0269,-3.0417,-3.0485,-3.0526,-3.0526,-3.0526,-3.0526,-3.0559,-3.1113,-3.1128,-3.0693,-2.9932,-2.9483,-2.9229,-2.9131,-2.8915,-2.8767,-2.9192,-2.9335,-2.9335,-2.9244,-2.9282,-2.9388,0.0,0.0,0.0,-2.9672,-2.9672,-2.962,-2.9791,-2.9858,-2.9889,-3.0145,-3.0176,0.0,-3.0846,-3.1051,-3.1241,0.0,-3.1792,-3.1682,-3.1043,-3.0793,-3.0733,-3.0733,-3.051,-3.0147,-2.9566,-2.938,-2.9317,-2.9317,-2.9205,-2.9142,-2.9268,-2.9317,-2.958,-3.0269,-3.0777,-3.1161,-3.1278,-3.1409,-3.1482,-3.1482,-3.1482,-3.1482,-3.1482,-3.0837,-3.045,-3.045,-2.947,-2.8967,-2.8748,-2.7855,-2.7417,-2.7297,-2.6714,-2.6383,-2.6245,-2.6245,-2.5684,-2.4826,-2.4869,-2.536,-2.6006,-2.5947,-2.624,-2.6577,-2.3667,-2.3769,-2.3902,-2.4241,-2.4302,-2.4302,-2.4302,-2.4302,-2.4385,-2.4589,-2.4846,-2.5148,-2.544,-2.5672,-2.5934,-2.6343,-2.6872,-2.7203,-2.7203,-2.751,-2.7867,-2.8223,-2.8255,-2.8637,-2.9426,-2.9442,-2.9648,-3.0033,-3.0205,-3.0274,-3.0316,-3.0443,-3.0384,-3.0172,-3.0764,-3.0929,-3.0746,-3.1748,-3.1823,-3.1318,-3.0699,0.0,-2.9663,-2.948,-2.9282,-2.9131,-2.946,-2.9579,-2.9579,-2.9579,-2.9579,0.0,-2.9872,-2.978,-2.9687,0.0,-3.0083,-2.994,0.0,0.0,0.0,-3.0828,0.0,0.0,0.0,-3.1686,-3.1738,-3.1977,-3.1996,-3.1925,-3.1552,-3.1233,-3.1102,-3.1422,-3.1131,-3.0777,-3.0644,-3.0269,-3.0011,-3.0011,-2.969,-2.9628,-2.995,-3.0011,-3.0269,-3.097,-3.1278,-3.1482,-3.1482,-3.1482,-3.1482,-3.1482,-3.1482,-3.1482,-3.1482,-3.1161,-3.1029,-3.097,-3.0222,-2.9842,-2.9628,-2.8748,-2.8051,-2.7604,-2.7162,-2.6782,-2.6533,-2.6533,-2.6173,-2.5637,-2.5462,-2.5737,-2.6177,-2.6288,-2.6474,-2.6726,-2.4181,-2.4234,-2.4302,-2.4302,-2.4302,-2.4302,-2.4302,-2.4302,-2.439,-2.4694,-2.4954,-2.5399,-2.6036,-2.6347,-2.6734,-2.7352,-2.7695,-2.7915,-2.7915,-2.8045,-2.8385,-2.8968,-2.9,-2.9275,-2.9902,-2.9918,-2.9918,-2.9918,-3.0076,-3.0146,-3.0146,-3.0401,-3.0323,-3.0185,-3.1035,-3.1319,-3.1183,-3.2158,0.0,-3.1758,0.0,-3.0912,-3.0278,-2.9915,-2.9759,-2.9774,-2.9909,-2.9968,-2.9968,-2.9968,-2.9968,-3.0063,-3.0396,-3.025,0.0,0.0,0.0,0.0,0.0,0.0,0.0,0.0,0.0,-3.172,0.0,0.0,0.0,-3.2094,0.0,0.0,-3.2094,0.0,0.0,0.0,0.0,0.0,0.0,-3.113,0.0,-3.0703,-3.0208,-3.0072,-3.0644,-3.0703,-3.0896,-3.1467,-3.1482,-3.1482,-3.1482,-3.1482,-3.1482,-3.1482,-3.1482,-3.1482,-3.1482,-3.1482,-3.1482,-3.1482,-3.097,-3.0584,-3.0404,-2.958,-2.8748,-2.8051,-2.767,-2.7162,-2.6658,-2.6521,-2.6533,-2.6502,-2.6223,-2.6166,-2.6287,-2.6541,-2.6706,-2.6869,-2.4166,-2.4234,-2.4302,-2.4302,-2.4302,-2.4302,-2.4302,-2.4302,-2.4518,-2.5118,-2.5466,-2.5858,-2.6545,-2.6994,-2.732,-2.74,-2.8162,-2.8676,-2.8676,-2.9275,-2.9708,-2.9789,-2.9789,-2.9821,-2.9918,-2.9918,-2.9918,-2.9918,-2.9973,-3.0017,-3.0017,-3.0274,-3.0721,-3.1287,-3.1026,-3.1218,-3.1819,-3.2044,-3.1892,0.0,-3.2014,-3.1482,0.0,-3.0383,-3.0402,-3.0477,-3.1091,-3.1258,-3.1258,0.0,-3.1258,-3.13,0.0,-3.1315,-3.1315,-3.1615,0.0,0.0,0.0,0.0,0.0,0.0,-3.2275,0.0,0.0,0.0,-3.2398,-3.2342,0.0,-3.2342,-3.2342,0.0,0.0,0.0,0.0,0.0,-3.1341,-3.1505,-3.1597,-3.1409,-3.1351,-3.1278,-3.1409,-3.1409,-3.1409,-3.1482,-3.1482,-3.1482,-3.1482,-3.1482,-3.1482,-3.1482,-3.1482,-3.1482,-3.1482,-3.1482,-3.1482,-3.1482,-3.1409,-3.1234,-3.0999,-3.0222,-2.9704,-2.9296,-2.8065,-2.7484,-2.7351,-2.6782,-2.6533,-2.6465,-2.6458,-2.6702,-2.7201,-2.774,-2.8201,-2.8698,-2.4082,-2.4193,-2.4302,-2.4302,-2.4302,-2.4302,-2.4302,-2.4641,-2.5149,-2.5841,-2.6252,-2.6675,-2.7203,-2.7853,-2.8244,-2.8383,-2.8906,-2.9215,0.0,-2.9504,-2.9726,-2.9902,-2.9918,-2.9918,-2.9918,-2.9918,-2.9918,-2.9918,-2.9989,-3.0017,-3.0033,-3.0718,-3.1019,-3.1091,-3.1783,-3.208,-3.2075,0.0,-3.2457,0.0,0.0,0.0,0.0,-3.1057,-3.1106,-3.115,-3.1377,-3.1482,-3.1482,0.0,-3.1482,0.0,0.0,0.0,0.0,-3.1826,0.0,0.0,0.0,0.0,0.0,0.0,0.0,0.0,-3.2398,0.0,-3.2398,0.0,0.0,0.0,0.0,0.0,0.0,0.0,-3.2103,0.0,0.0,0.0,-3.1883,0.0,0.0,0.0,-3.1482,0.0,0.0,-3.1482,-3.1482,-3.1482,-3.1482,-3.1482,-3.1482,-3.1482,-3.1482,-3.1482,-3.1482,-3.1482,-3.1482,-3.1482,-3.1482,-3.1409,-3.1176,-3.0807,-3.0297,-2.9685,-2.903,-2.8454,-2.8051,-2.7351,-2.7095,-2.704,-2.6658,-2.6672,-2.6866,-2.7419,-2.7971,-2.8536,-2.3982,-2.4135,-2.4302,-2.4302,-2.4302,-2.4364,-2.4564,-2.5164,-2.5857,-2.6565,-2.6969,-2.7381,-2.7921,-2.8542,-2.8926,-2.909,-2.9305,-2.938,0.0,0.0,-2.9576,-2.977,-2.9858,-2.9918,-2.9918,-2.9918,-2.9918,-2.9918,-3.0141,-3.0238,-3.0254,-3.1298,-3.1573,-3.1244,-3.2289,-3.2551,-3.228,0.0,-3.2532,-3.2176,-3.2176,-3.191,-3.1482,-3.1482,-3.1482,-3.1482,-3.1482,-3.1482,-3.1482,-3.1482,-3.1482,0.0,-3.1482,0.0,-3.1539,0.0,0.0,0.0,-3.2247,0.0,0.0,0.0,0.0,0.0,0.0,0.0,0.0,0.0,0.0,0.0,0.0,0.0,-3.2336,-3.2151,0.0,-3.2185,0.0,-3.2028,0.0,0.0,0.0,0.0,0.0,-3.1482,-3.1482,-3.1482,-3.1482,-3.1482,-3.1482,-3.1482,-3.1482,-3.1482,-3.1482,-3.1482,-3.1482,-3.1482,-3.1482,-3.1482,-3.1482,-3.1409,-3.1234,-3.1132,-3.0702,-3.0007,-2.9747,-2.9296,-2.8762,-2.8051,-2.7802,-2.7736,-2.704,-2.6782,-2.6858,-2.715,-2.7544,-2.7984,-2.3982,-2.4135,-2.4302,-2.4302,-2.4302,-2.4533,-2.5179,-2.5887,-2.6595,-2.7272,0.0,0.0,0.0,0.0,0.0,0.0,0.0,-2.9121,-2.9121,0.0,-2.9515,-2.9515,-2.977,-2.9918,-2.9918,-2.9918,-2.9918,-2.9918,-3.0554,-3.0895,-3.0911,-3.1916,-3.2414,-3.2524,-3.2222,-3.2254,-3.2367,-3.1796,-3.1524,-3.1524,-3.1524,-3.1539,-3.1482,0.0,-3.1482,-3.1482,-3.1482,0.0,0.0,-3.1482,-3.1482,0.0,0.0,0.0,0.0,0.0,0.0,0.0,0.0,0.0,0.0,-3.2342,0.0,0.0,0.0,0.0,-3.2398,0.0,0.0,0.0,0.0,-3.2398,-3.2182,-3.152,-3.1967,0.0,0.0,0.0,0.0,0.0,0.0,0.0,0.0,-3.1482,-3.1482,-3.1482,-3.1482,-3.1482,-3.1482,-3.1482,-3.1482,-3.1482,-3.1482,-3.1482,-3.1482,-3.1482,-3.1482,-3.1482,-3.1482,-3.1366,-3.1087,-3.1087,-3.0895,-3.0507,-2.987,-2.9623,-2.9484,-2.8762,-2.8492,-2.8427,-2.7736,-2.7484,-2.7416,-2.7335,-2.7293,-2.7469,-2.4689,-2.4894,-2.4979,-2.4979,-2.4979,-2.5364,0.0,-2.6903,0.0,0.0,-2.8232,0.0,0.0,-2.8858,-2.8982,0.0,0.0,-2.8842,-2.8842,-2.9075,0.0,-2.947,-2.977,-3.0085,0.0,-3.0571,-3.0797,-3.1283,-3.1526,-3.142,-3.107,-3.2047,-3.2332,-3.1997,-3.2204,-3.2331,0.0,0.0,0.0,0.0,0.0,-3.1482,-3.1482,0.0,-3.1482,-3.1482,-3.1482,-3.1482,0.0,-3.1482,-3.1482,-3.1482,-3.1482,-3.1482,-3.1539,-3.167,-3.1727,0.0,0.0,0.0,-3.1996,-3.2191,0.0,0.0,0.0,0.0,0.0,0.0,0.0,0.0,0.0,-3.2398,-3.2321,-3.209,-3.2244,-3.2321,0.0,-3.2149,0.0,0.0,0.0,0.0,0.0,0.0,0.0,-3.1482,-3.1482,-3.1482,-3.1482,-3.1482,-3.1482,-3.1482,-3.1482,-3.1482,-3.1482,-3.1482,-3.1482,-3.1482,-3.1482,-3.1424,-3.1234,-3.1132,-3.0955,-3.0702,-3.0387,-3.0251,-3.019,-2.9484,-2.9219,-2.9156,-2.8441,-2.7855,-2.7443,-2.6929,-2.6967,-2.7444,-2.5271,-2.5438,-2.5511,0.0,0.0,0.0,0.0,0.0,0.0,0.0,-2.8525,0.0,-2.8396,0.0,-2.8716,0.0,-2.8525,-2.8605,-2.8685,-2.8889,0.0,-2.947,-2.947,-2.9806,0.0,0.0,-3.0956,-3.1678,-3.1935,-3.1852,-3.1489,-3.2234,-3.2238,-3.172,-3.2127,-3.216,-3.2007,-3.164,-3.1482,0.0,0.0,-3.1482,0.0,0.0,-3.1482,-3.1482,0.0,-3.1482,-3.1482,-3.1482,-3.1482,-3.1482,-3.1482,-3.1482,-3.1539,-3.167,-3.167,-3.1727,-3.1898,-3.1841,0.0,-3.2094,-3.2038,0.0,-3.2302,0.0,-3.2342,0.0,0.0,0.0,0.0,-3.2342,-3.2398,-3.2342,-3.2342,-3.2398,0.0,-3.2247,0.0,0.0,0.0,-3.1898,0.0,-3.1597,-3.1482,-3.1482,-3.1482,-3.1482,0.0,0.0,-3.1482,-3.1482,-3.1482,-3.1482,-3.1482,-3.1482,-3.1482,-3.1482,-3.1482,-3.1409,-3.1278,-3.1234,-3.1073,-3.0895,-3.0821,-3.0762,-3.0642,-3.019,-3.0007,-2.987,-2.9156,-2.8634,-2.813,-2.7229,-2.7069,-2.7419,-2.5679,-2.5892,0.0,0.0,-2.6949,0.0,0.0,0.0,-2.8411,0.0,-2.8411,-2.8411,-2.8411,-2.8411,-2.8411,-2.8411,-2.8411,-2.8477,-2.87,-2.8685,0.0,0.0,-2.9029,-2.9171,-3.0084,0.0,0.0,0.0,0.0,-3.2199,-3.2215,-3.2407,-3.2155,-3.1679,-3.1921,0.0,-3.1278,-3.1409,-3.1482,-3.1482,-3.1482,-3.1482,-3.1482,-3.1482,-3.1482,-3.1482,-3.1482,-3.1482,-3.1482,-3.1482,-3.1482,-3.1482,-3.1482,-3.1482,-3.1482,-3.1482,-3.1482,-3.1539,-3.1727,-3.1799,-3.1841,-3.194,0.0,0.0,0.0,0.0,-3.2191,0.0,0.0,0.0,0.0,0.0,-3.2342,-3.2247,-3.2342,-3.2342,-3.2247,-3.2191,-3.215,0.0,0.0,-3.1727,-3.1539,-3.1539,-3.1482,-3.1482,-3.1482,-3.1482,0.0,0.0,-3.1482,-3.1482,-3.1482,-3.1482,-3.1482,-3.1482,-3.1482,-3.1482,-3.1482,-3.1409,-3.1278,-3.1278,-3.1234,-3.1087,-3.1087,-3.1014,-3.0821,-3.0821,-3.0702,-3.0568,-2.9931,-2.9623,-2.9421,-2.8065,-2.7456,-2.7427,-2.6419,-2.701,-2.744,0.0,-2.7819,-2.8038,0.0,0.0,0.0,0.0,-2.8411,-2.8411,-2.8411,-2.8411,-2.8411,-2.8411,-2.8411,0.0,0.0,0.0,0.0,-2.9705,-2.9545,-3.0027,-3.1263,-3.1089,-3.1519,-3.2661,0.0,-3.2338,-3.2354,-3.2053,-3.158,-3.1043,0.0,-3.1452,-3.1278,-3.1409,-3.1482,-3.1482,-3.1482,-3.1482,-3.1482,0.0,-3.1482,-3.1482,-3.1482,-3.1482,-3.1482,-3.1482,-3.1482,-3.1482,-3.1482,-3.1482,-3.1482,-3.1482,-3.1482,-3.1539,-3.1539,-3.1597,-3.1597,-3.1784,-3.1841,-3.1898,0.0,0.0,0.0,0.0,0.0,0.0,0.0,0.0,0.0,-3.2342,-3.2398,-3.2342,-3.2247,-3.2094,0.0,-3.1841,-3.167,-3.1597,-3.1727,-3.1597,-3.1482,-3.1482,-3.1482,-3.1482,-3.1482,0.0,0.0,-3.1482,-3.1482,-3.1482,-3.1482,-3.1482,-3.1482,-3.1482,-3.1482,-3.1467,-3.1467,-3.1351,-3.1292,-3.1234,-3.1132,-3.1087,-3.1014,-3.1014,-3.0895,-3.0702,-3.0568,-3.0129,-2.9484,-2.857,-2.8172,-2.8148,-2.6999,-2.7534,0.0,-2.7955,0.0,0.0,-2.8299,-2.8348,0.0,-2.8411,-2.8411,0.0,-2.8411,-2.8411,-2.8411,-2.8411,-2.8411,0.0,-2.8989,0.0,0.0,-3.0164,-2.9812,-3.0066,-3.1106,-3.1028,0.0,-3.2446,0.0,-3.1992,-3.1992,-3.148,-3.1029,-3.0702,0.0,-3.1117,-3.1249,-3.1409,-3.1482,-3.1482,-3.1482,-3.1482,0.0,-3.1482,-3.1482,-3.1482,-3.1482,-3.1482,-3.1482,-3.1482,-3.1482,-3.1482,-3.1482,-3.1482,-3.1482,-3.1482,-3.1482,-3.1482,-3.1482,-3.1482,-3.1539,-3.167,-3.167,-3.1727,-3.1898,-3.1883,-3.1883,0.0,0.0,0.0,0.0,0.0,0.0,-3.2287,-3.2231,-3.2191,-3.215,0.0,0.0,0.0,-3.1597,-3.1539,-3.167,-3.1597,-3.1482,-3.1482,-3.1482,-3.1482,0.0,0.0,0.0,-3.1482,-3.1482,-3.1482,-3.1482,-3.1482,-3.1482,-3.1482,-3.1482,-3.1482,-3.1482,-3.1409,-3.1409,-3.1409,-3.1307,-3.1249,-3.119,-3.119,-3.1073,-3.0895,-3.0821,-3.0507,-3.0068,-2.9594,-2.8787,-2.814,-2.7505,0.0,0.0,0.0,0.0,0.0,0.0,-2.8299,0.0,-2.8411,0.0,-2.8411,-2.8411,-2.8411,-2.8442,-2.8535,0.0,-2.8925,-2.9803,-2.9651,-2.9878,-3.068,-3.0016,-2.9899,-3.0443,-3.0485,-3.0824,0.0,0.0,-3.1422,-3.1495,-3.0851,-3.0568,-3.0628,0.0,0.0,0.0,-3.1366,-3.1482,-3.1467,-3.1482,-3.1482,-3.1482,-3.1482,-3.1482,-3.1482,-3.1482,-3.1482,-3.1482,-3.1482,-3.1482,-3.1482,-3.1482,-3.1482,-3.1482,-3.1482,-3.1482,-3.1482,-3.1482,-3.1482,-3.1482,-3.1482,-3.1482,-3.1539,-3.1727,-3.1727,-3.1727,-3.1727,-3.1826,-3.1883,0.0,0.0,0.0,-3.2135,-3.2094,0.0,0.0,0.0,0.0,0.0,0.0,0.0,-3.1482,-3.1482,-3.1482,-3.1482,-3.1482,0.0,0.0,0.0,0.0,-3.1482,-3.1482,-3.1482,-3.1482,0.0,-3.1482,-3.1482,-3.1482,-3.1482,-3.1482,-3.1482,-3.1482,-3.1482,-3.1482,-3.1409,-3.1351,-3.1351,-3.1234,-3.1073,-3.0895,-3.0762,-3.0762,-3.0642,-2.9407,-2.8027,-2.7595,0.0,0.0,0.0,0.0,-2.8054,-2.8186,-2.8299,-2.8411,-2.8411,-2.8411,-2.8411,-2.8411,-2.8411,-2.8627,-2.9196,-2.9243,0.0,0.0,0.0,0.0,-3.0697,-3.0453,-3.0416,-3.0749,-3.0631,-3.0911,0.0,0.0,-3.1029,-3.1495,-3.0851,-3.0568,-3.0628,0.0,0.0,-3.1146,-3.1366,0.0,-3.1351,-3.1467,-3.1482,-3.1482,-3.1482,-3.1482,-3.1482,-3.1482,-3.1482,-3.1482,-3.1482,-3.1482,-3.1482,-3.1482,-3.1482,-3.1482,-3.1482,-3.1482,-3.1482,-3.1482,-3.1482,-3.1482,-3.1482,-3.1482,-3.1539,-3.1539,-3.1539,-3.1539,-3.1539,-3.1597,-3.1597,-3.1727,0.0,0.0,0.0,0.0,0.0,0.0,0.0,0.0,0.0,0.0,-3.1482,-3.1482,-3.1482,-3.1482,-3.1482,0.0,0.0,0.0,0.0,0.0,0.0,-3.1482,0.0,0.0,0.0,-3.1482,-3.1482,-3.1482,-3.1482,-3.1482,-3.1482,-3.1482,-3.1482,-3.1482,-3.1482,-3.1467,-3.1467,-3.1409,-3.1234,-3.0821,-3.0702,-3.0762,-3.0642,-2.9993,-2.9331,-2.7625,0.0,0.0,0.0,0.0,0.0,0.0,-2.8299,-2.8299,-2.8411,-2.8411,-2.8411,-2.8411,-2.8719,-2.9058,-2.9381,-2.9735,-3.0212,-3.0874,-3.092,-3.0945,-3.1016,-3.1031,-3.0878,-3.0568,-3.0568,-3.0747,-3.1029,0.0,-3.0747,-3.1029,-3.0747,-3.0568,-3.0628,0.0,-3.0821,0.0,0.0,0.0,-3.119,-3.1351,-3.1409,-3.1409,-3.1409,-3.1409,-3.1482,-3.1482,-3.1482,-3.1482,-3.1482,-3.1482,-3.1482,-3.1482,-3.1482,-3.1482,-3.1482,-3.1482,-3.1482,-3.1482,-3.1482,-3.1482,-3.1482,-3.1482,-3.1482,-3.1482,-3.1482,-3.1482,-3.1482,-3.1482,-3.1539,-3.1597,-3.1712,0.0,0.0,0.0,0.0,0.0,0.0,-3.1597,0.0,0.0,0.0,0.0,0.0,0.0,0.0,0.0,0.0,0.0,0.0,0.0,0.0,0.0,0.0,0.0,0.0,0.0,-3.1482,-3.1482,-3.1482,-3.1482,-3.1482,-3.1482,-3.1482,-3.1482,-3.1482,-3.1482,-3.1482,-3.1409,-3.1292,-3.1043,-3.0881,-3.0762,-3.0702,-3.0447,-3.0215,0.0,-2.7625,0.0,0.0,-2.7855,0.0,-2.825,-2.825,-2.8235,-2.8396,-2.8411,-2.8458,-2.8611,-2.9089,-2.952,-2.9812,-3.032,-3.0905,-3.1551,-3.1597,-3.1515,-3.1321,-3.1437,-3.1131,-3.0312,-3.0507,-3.0568,0.0,0.0,0.0,0.0,-3.0568,0.0,0.0,0.0,0.0,0.0,0.0,-3.1176,-3.1073,-3.1176,-3.1234,-3.1234,-3.1292,-3.1351,-3.1467,-3.1482,-3.1482,-3.1482,-3.1482,-3.1482,-3.1467,-3.1351,-3.1278,-3.1278,-3.1278,-3.1278,-3.1351,-3.1467,-3.1482,-3.1482,-3.1482,-3.1482,-3.1482,-3.1482,-3.1482,-3.1482,-3.1482,-3.1482,-3.1482,-3.1482,-3.1482,0.0,0.0,0.0,0.0,0.0,0.0,0.0,0.0,0.0,0.0,-3.1482,0.0,0.0,0.0,0.0,0.0,-3.1482,0.0,0.0,0.0,0.0,-3.1482,-3.1482,0.0,-3.1482,-3.1482,-3.1482,-3.1482,-3.1482,-3.1482,-3.1482,-3.1482,-3.1482,-3.1482,-3.1482,-3.1467,-3.1409,-3.1351,-3.1292,-3.1117,-3.0881,-3.0881,-3.0821,-3.0775,0.0,0.0,0.0,0.0,0.0,0.0,-2.8005,-2.8152,-2.8235,-2.8396,-2.8411,-2.8642,-2.9258,-2.9381,-2.9904,-3.1105,-3.1259,-3.1582,-3.2259,-3.2305,-3.2003,-3.1336,-3.1437,-3.1131,-3.0312,-3.0507,-3.0568,0.0,0.0,-3.0568,0.0,0.0,0.0,0.0,0.0,0.0,0.0,-3.0955,-3.1014,-3.0821,-3.1014,-3.1132,-3.1132,-3.1234,-3.1278,-3.1351,-3.1467,-3.1482,-3.1482,-3.1482,-3.1482,-3.1409,-3.0777,-3.0584,-3.0584,-3.0584,-3.0584,-3.0718,-3.1351,-3.1482,-3.1482,-3.1482,-3.1482,-3.1482,-3.1482,-3.1482,-3.1482,-3.1482,-3.1482,-3.1482,-3.1482,-3.1482,-3.1539,0.0,0.0,0.0,0.0,0.0,-3.1482,-3.1482,0.0,0.0,-3.1482,-3.1482,0.0,0.0,-3.1482,0.0,0.0,0.0,0.0,-3.1482,0.0,-3.1482,-3.1482,-3.1482,-3.1482,-3.1482,-3.1482,-3.1482,-3.1482,-3.1482,-3.1482,-3.1482,-3.1482,-3.1482,-3.1482,-3.1351,-3.1409,-3.1482,-3.119,-3.1176,-3.1234,-3.1132,-3.1073,-3.1087,0.0,0.0,0.0,0.0,0.0,0.0,0.0,-2.8438,-2.8647,-2.8596,-2.8847,-2.9273,-2.995,-3.0366,-3.0707,-3.0958,-3.1384,-3.155,-3.158,-3.1537,-3.1306,-3.0732,-3.0866,-3.0747,-3.0158,-3.0326,-3.0507,0.0,0.0,0.0,0.0,0.0,0.0,0.0,0.0,-3.0642,-3.0628,-3.0821,-3.0821,-3.0702,-3.0895,-3.0895,-3.0955,-3.0999,-3.1102,-3.1278,-3.1351,-3.1409,-3.1409,-3.1029,-3.1161,-3.1467,-3.1161,-3.1087,-3.1029,-3.0644,-3.0524,-3.0584,-3.0837,-3.0896,-3.1029,-3.1409,-3.1482,-3.1482,-3.1482,-3.1482,-3.1482,-3.1482,-3.1482,-3.1482,-3.1482,-3.1482,-3.1482,0.0,0.0,0.0,0.0,0.0,0.0,-3.1482,0.0,-3.1482,-3.1482,-3.1482,0.0,0.0,0.0,0.0,0.0,0.0,0.0,-3.1482,0.0,-3.1482,-3.1482,-3.1482,-3.1482,-3.1482,-3.1482,-3.1482,-3.1482,-3.1482,-3.1482,-3.1482,-3.1482,-3.1482,-3.1482,-3.1409,-3.1409,-3.1351,-3.1366,-3.1249,-3.119,-3.1234,-3.119,-3.1132,-2.7625,0.0,-2.7625,0.0,-2.7675,-2.7735,-2.8247,-2.8586,-2.8869,-2.9154,-2.9411,-2.9803,-3.0448,-3.0907,-3.115,-3.1016,-3.1297,-3.1321,-3.1029,-3.1029,-3.0792,-3.0387,-3.0507,0.0,-3.0158,-3.0266,-3.0387,-3.0568,-3.0568,0.0,0.0,0.0,0.0,0.0,-3.0568,-3.0568,-3.0628,-3.0702,-3.0702,-3.0628,-3.0702,-3.0762,-3.0762,-3.0762,-3.094,-3.1176,-3.1278,-3.1351,-3.1351,-3.0703,-3.0837,-3.1161,-3.097,-3.0896,-3.0837,-3.0329,-3.0086,-2.9964,-3.0133,-3.0208,-3.0389,-3.1029,-3.1219,-3.1278,-3.1467,-3.1482,-3.1482,-3.1482,-3.1482,-3.1482,-3.1482,-3.1482,-3.1482,-3.1482,0.0,0.0,0.0,-3.1482,0.0,-3.1482,-3.1482,-3.1482,-3.1482,-3.1482,0.0,0.0,0.0,0.0,0.0,0.0,0.0,0.0,0.0,0.0,0.0,-3.1482,-3.1482,-3.1482,-3.1482,-3.1482,-3.1482,-3.1482,-3.1482,-3.1482,-3.1482,-3.1482,-3.1482,-3.1482,-3.1409,-3.1351,-3.1467,-3.1366,-3.1249,-3.1351,-3.1292,-3.1249,-2.7625,-2.7625,-2.7625,-2.7625,-2.7625,-2.7799,-2.8487,-2.8419,-2.8773,-3.0119,-3.0098,-3.0155,-3.0618,-3.0689,-3.096,-3.1607,-3.1263,-3.1029,-3.1029,-3.1029,-3.0851,0.0,0.0,-3.0507,-3.0312,-3.0312,-3.0387,-3.0568,0.0,0.0,-3.0568,0.0,-3.0568,-3.0568,-3.0568,-3.0568,-3.0568,-3.0568,-3.0568,-3.0568,-3.0568,-3.0568,-3.0642,-3.0762,-3.0821,-3.0821,-3.1161,-3.1278,-3.1219,-3.0703,-3.0524,-3.0389,-2.9752,-2.9504,-2.9504,-2.9504,-2.9016,-2.8661,-2.9331,-2.9504,-2.969,-3.0329,-3.0524,-3.0703,-3.1351,-3.1482,-3.1482,-3.1482,-3.1482,-3.1482,-3.1482,-3.1482,-3.1482,-3.1482,0.0,0.0,0.0,0.0,0.0,-3.1482,-3.1482,-3.1482,-3.1482,-3.1482,0.0,0.0,0.0,0.0,0.0,0.0,0.0,-3.1482,-3.1482,0.0,-3.1482,-3.1482,-3.1482,-3.1482,-3.1482,-3.1482,-3.1482,-3.1482,-3.1482,-3.1482,-3.1482,-3.1482,-3.1482,-3.1482,-3.1482,-3.1482,-3.1482,-3.1482,-3.1482,-3.1482,-3.1482,-3.1482,-2.6997,-2.6997,-2.6997,-2.6997,-2.7691,-2.8234,-2.811,-2.8767,-2.9245,-2.8995,-2.9781,-3.0293,-3.0115,-3.0878,-3.1213,0.0,-3.0911,-3.0732,0.0,-3.0021,-3.0021,-2.9913,-2.9913,-2.9898,-2.9931,-3.0083,-3.0219,-3.0387,0.0,0.0,0.0,-3.0568,-3.0568,-3.0568,-3.0568,-3.0568,-3.0568,-3.0568,-3.0568,-3.0568,-3.0568,-3.0568,-3.0568,-3.0642,-3.0702,-3.0821,-3.094,-3.1058,-3.0999,-3.0054,-2.9979,-3.0176,-2.9156,-2.947,-3.0208,-3.0208,-3.0011,-2.9903,-3.0133,-2.9827,-2.9628,-3.0329,-3.0147,-2.9889,-3.0072,-3.0524,-3.097,-3.1409,-3.1482,-3.1482,-3.1482,-3.1482,-3.1482,-3.1482,-3.1482,0.0,0.0,0.0,-3.1482,-3.1482,-3.1482,-3.1482,-3.1482,-3.1482,0.0,0.0,0.0,0.0,0.0,0.0,0.0,0.0,-3.1482,0.0,-3.1482,-3.1482,-3.1482,-3.1482,-3.1482,-3.1482,-3.1482,-3.1482,-3.1482,-3.1482,-3.1482,-3.1482,-3.1482,-3.1482,-3.1482,-3.1482,-3.1482,-3.1482,-3.1482,-3.1482,-3.1482,-3.1482,-2.6336,-2.6336,-2.6422,-2.6651,-2.7579,-2.8248,-2.808,-2.8886,-2.9315,-2.8663,-2.9383,-2.987,-2.9574,-3.0539,0.0,-3.0372,-3.0433,-3.0205,-2.9665,-2.9602,-2.9602,-2.9602,-2.9602,-2.9651,-2.9808,-2.9974,0.0,-3.0312,-3.0507,-3.0568,-3.0568,-3.0568,-3.0568,-3.0568,-3.0568,-3.0568,-3.0568,-3.0568,-3.0568,-3.0568,-3.0568,-3.0568,-3.0568,-3.0568,-3.0642,-3.0702,-3.0762,-3.0895,-3.0821,-2.9608,-2.9546,-2.9747,-2.8739,-2.903,-2.978,-3.0086,-2.9964,-2.978,-3.0086,-2.9827,-2.9566,-3.0011,-2.9827,-2.9504,-2.9504,-2.9827,-3.0329,-3.097,-3.1087,-3.1219,-3.1467,-3.1482,-3.1482,-3.1482,-3.1482,-3.1482,-3.1482,0.0,-3.1482,0.0,0.0,0.0,0.0,-3.1482,-3.1482,0.0,0.0,0.0,0.0,0.0,0.0,-3.1482,-3.1482,0.0,-3.1482,-3.1482,-3.1482,-3.1482,-3.1482,-3.1482,-3.1482,-3.1482,-3.1482,-3.1482,-3.1482,-3.1482,-3.1482,-3.1482,-3.1482,-3.1482,-3.1482,-3.1482,-3.1482,-3.1482,-3.1482,-3.1482,-2.5728,-2.577,-2.598,0.0,-2.7227,0.0,-2.8362,-2.8782,-2.905,-2.9016,-2.9035,-2.9035,-2.9035,-2.9761,-3.0266,-3.0266,0.0,0.0,0.0,-2.9602,-2.9602,-2.9602,-2.9602,-2.9651,-2.9808,-2.9974,-3.0158,-3.0312,-3.0507,-3.0568,-3.0568,-3.0568,-3.0568,-3.0568,-3.0568,-3.0568,-3.0568,-3.0568,-3.0568,-3.0568,-3.0568,-3.0568,-3.0568,-3.0568,-3.0568,-3.0568,-3.0702,-3.0687,-3.0493,-2.9331,-2.9093,-2.9107,-2.8481,-2.8352,-2.8532,-2.9268,-2.9093,-2.8725,-2.9331,-2.9504,-2.9504,-2.9504,-2.9504,-2.9504,-2.9566,-2.9566,-2.9766,-3.045,-3.0584,-3.0777,-3.1409,-3.1482,-3.1482,-3.1482,-3.1482,-3.1482,-3.1482,0.0,0.0,0.0,0.0,0.0,0.0,-3.1482,-3.1482,0.0,0.0,0.0,0.0,0.0,-3.1482,-3.1482,-3.1482,-3.1482,-3.1482,-3.1482,-3.1482,-3.1482,-3.1482,-3.1482,-3.1482,-3.1482,-3.1482,-3.1482,-3.1482,-3.1482,-3.1482,-3.1482,-3.1482,-3.1482,-3.1482,-3.1482,-3.1482,-3.1482,-3.1482,-3.1482,0.0,0.0,-2.5843,-2.5993,-2.7304,-2.8208,-2.7845,-2.8283,-2.8447,-2.7973,-2.8131,-2.8406,-2.8716,-2.9099,-2.9477,-2.9727,-3.0021,-2.996,-2.9602,-2.9602,-2.9602,-2.9602,-2.9602,-2.9602,-2.9665,-2.9775,-3.0007,-3.0312,-3.0507,-3.0568,-3.0568,-3.0568,-3.0568,-3.0568,-3.0568,-3.0568,-3.0568,-3.0568,-3.0568,-3.0568,-3.0568,-3.0568,-3.0568,-3.0568,-3.0251,-2.9808,-2.987,-2.9532,-2.9016,-2.8903,-2.8532,-2.8157,-2.8287,-2.7973,-2.7842,-2.9142,-2.938,-2.9331,-2.9442,-2.9504,-2.9504,-2.9504,-2.9504,-2.9628,-3.0133,-3.0269,-3.045,-3.1146,-3.1278,-3.1278,-3.1467,-3.1482,-3.1482,-3.1482,-3.1482,-3.1482,-3.1482,-3.1482,0.0,0.0,-3.1482,-3.1482,-3.1482,-3.1482,-3.1482,0.0,0.0,0.0,0.0,-3.1482,-3.1482,-3.1482,-3.1482,-3.1482,-3.1482,-3.1482,-3.1482,-3.1482,-3.1482,-3.1482,-3.1482,-3.1482,-3.1482,-3.1482,-3.1482,-3.1482,-3.1482,-3.1482,-3.1482,-3.1482,-3.1482,-3.1482,-3.1482,-3.1482,-3.1482,-3.1482,-2.4824,-2.5189,-2.5575,-2.6108,-2.7264,-2.7968,-2.7584,-2.8085,-2.8287,-2.759,-2.7868,-2.8145,-2.8341,-2.878,-2.9162,-2.9352,-2.9713,-2.9837,-2.9602,-2.9602,-2.9602,-2.9602,-2.9602,-2.9602,-2.9602,-2.9699,-2.9931,-3.0312,-3.0387,-3.0507,-3.0568,-3.0568,-3.0568,-3.0568,-3.0568,-3.0568,-3.0568,-3.0568,-3.0568,-3.0568,-3.0568,-3.0568,-3.0568,-3.0251,-2.9931,-2.956,-2.9219,-2.8826,-2.8505,-2.826,-2.8091,-2.7842,-2.7643,-2.7523,-2.7523,-2.8143,-2.8698,-2.9079,-2.9442,-2.9504,-2.9442,-2.9142,-2.8826,-2.8762,-2.9393,-2.9594,-2.9842,-3.0837,-3.1029,-3.1161,-3.1409,-3.1482,-3.1482,-3.1482,-3.1482,-3.1482,-3.1482,-3.1482,0.0,-3.1482,-3.1482,-3.1482,-3.1482,-3.1482,-3.1482,-3.1482,-3.1482,0.0,-3.1482,-3.1482,-3.1482,-3.1482,-3.1482,-3.1482,-3.1482,-3.1482,-3.1482,-3.1482,-3.1482,-3.1482,-3.1482,-3.1482,-3.1482,-3.1482,-3.1482,-3.1482,-3.1482,-3.1482,-3.1482,-3.1482,-3.1482,-3.1482,-3.1482,-3.1482,-3.1482,-3.1482,-2.4602,-2.4971,-2.5537,-2.6504,-2.724,-2.7659,-2.7524,-2.7973,-2.8157,-2.759,-2.7802,-2.8013,-2.8079,-2.8587,-2.8972,-2.9035,-2.9352,-2.954,-2.9602,-2.9602,-2.9602,-2.9602,-2.9602,-2.9602,-2.9602,-2.9699,-2.9931,-3.019,-3.0251,-3.0387,-3.0568,-3.0568,-3.0568,-3.0568,-3.0568,-3.0568,-3.0568,-3.0507,-3.0447,-3.0447,-3.0312,-3.0312,-3.0237,-2.9747,-2.9498,-2.9219,-2.8698,-2.8363,-2.8117,-2.767,-2.763,-2.7643,-2.7053,-2.7121,-2.7335,-2.7079,-2.7656,-2.8468,-2.9016,-2.9268,-2.9268,-2.8789,-2.8222,-2.796,-2.8532,-2.8661,-2.8967,-3.0086,-3.045,-3.0644,-3.1219,-3.1409,-3.1482,-3.1482,-3.1482,-3.1482,-3.1482,0.0,-3.1482,-3.1482,-3.1482,-3.1482,-3.1482,-3.1482,-3.1482,-3.1482,-3.1482,-3.1482,-3.1482,-3.1482,-3.1482,-3.1482,-3.1482,-3.1482,-3.1482,-3.1482,-3.1482,-3.1482,-3.1482,-3.1482,-3.1482,-3.1482,-3.1482,-3.1482,-3.1482,-3.1482,-3.1482,-3.1482,-3.1482,-3.1482,-3.1482,-3.1482,-3.1482,-3.1482,-3.1482,-3.1482,-2.468,-2.5482,-2.6285,-2.6648,-2.7131,-2.7551,-2.751,-2.759,-2.759,-2.7523,-2.7523,-2.7736,-2.8079,-2.821,-2.8406,-2.8651,-2.8972,-2.9289,-2.9602,-2.9602,-2.9602,-2.9602,-2.9602,-2.9602,-2.9602,-2.9699,-2.9808,-2.987,-3.019,-3.0312,-3.0326,-3.0507,-3.0568,-3.0568,-3.0568,-3.0568,-3.0568,-3.0007,-2.9747,-2.9685,-2.9079,-2.8826,-2.8889,-2.9421,-2.8839,-2.7868,-2.8312,-2.7802,-2.6905,-2.7351,-2.7162,-2.6863,-2.7577,-2.7377,-2.6863,-2.7201,-2.7335,-2.7523,-2.7577,-2.8157,-2.8789,-2.9205,-2.9268,-2.9205,-2.9317,-2.9317,-2.938,-2.9628,-3.0133,-3.0524,-3.0644,-3.1087,-3.1482,-3.1482,-3.1482,-3.1482,-3.1482,0.0,-3.1482,-3.1482,-3.1482,-3.1482,-3.1482,-3.1482,-3.1482,-3.1482,-3.1482,-3.1482,-3.1482,-3.1482,-3.1482,-3.1482,-3.1482,-3.1482,-3.1482,-3.1482,-3.1482,-3.1482,-3.1482,-3.1482,-3.1482,-3.1482,-3.1482,-3.1482,-3.1482,-3.1482,-3.1482,-3.1482,-3.1482,-3.1482,-3.1482,-3.1482,-3.1482,-3.1482,-3.1482,-3.1482,-2.5179,-2.5923,-2.6518,-2.696,-2.7287,-2.7523,-2.7523,-2.7523,-2.7523,-2.7523,-2.7523,-2.7603,-2.7736,-2.7947,-2.8145,-2.8341,-2.8651,-2.8972,-2.9289,-2.9477,-2.9602,-2.9602,-2.9602,-2.9602,-2.9602,-2.9651,-2.9699,-2.9808,-2.9931,-3.0068,-3.0219,-3.0326,-3.0447,-3.0447,-3.0568,-3.0387,-3.0068,-2.9747,-2.9359,-2.8967,-2.8634,-2.8492,-2.8505,-2.8454,-2.8065,-2.7484,-2.7417,-2.704,-2.6521,-2.685,-2.6782,-2.6658,-2.7053,-2.7066,-2.6875,-2.693,-2.7066,-2.7146,-2.7268,-2.7456,-2.7776,-2.8208,-2.8338,-2.8454,-2.8839,-2.8967,-2.9079,-2.9442,-2.9766,-2.995,-2.995,-3.0524,-3.097,-3.097,-3.1278,0.0,0.0,-3.1482,-3.1482,-3.1482,-3.1482,-3.1482,-3.1482,-3.1482,-3.1482,-3.1482,-3.1482,-3.1482,-3.1482,-3.1482,-3.1482,-3.1482,-3.1482,-3.1482,-3.1482,-3.1482,-3.1482,-3.1482,-3.1482,-3.1482,-3.1482,-3.1482,-3.1482,-3.1482,-3.1482,-3.1482,-3.1482,-3.1482,-3.1482,-3.1482,-3.1482,-3.1482,-3.1482,-3.1482,-3.1482,-3.1482,-2.5724,-2.6057,-2.6419,-2.7136,-2.7188,-2.7255,-2.739,-2.7469,-2.7523,-2.7523,-2.7523,-2.7523,-2.7523,-2.7802,-2.7947,-2.7947,-2.8276,-2.8651,-2.8972,-2.9289,-2.954,-2.9602,-2.9602,-2.9602,-2.9602,-2.9401,-2.9449,-2.9761,-2.9623,-2.9699,-3.0036,-3.0205,-3.019,-3.0068,-3.0251,-3.0068,-2.956,-2.9233,-2.8903,-2.8492,-2.8182,-2.8051,-2.7986,-2.767,-2.7417,-2.7229,-2.685,-2.6658,-2.6533,-2.6533,-2.6589,-2.6658,-2.6589,-2.6739,-2.6875,-2.6726,-2.6794,-2.7011,-2.7268,-2.7214,-2.7079,-2.7268,-2.7335,-2.7469,-2.8105,-2.8287,-2.8403,-2.8953,-2.9142,-2.9268,-2.9268,-2.9827,-3.0329,-3.0464,0.0,0.0,0.0,-3.1482,-3.1482,-3.1482,-3.1482,-3.1482,-3.1482,-3.1482,-3.1482,-3.1482,-3.1482,-3.1482,-3.1482,-3.1482,-3.1482,-3.1482,-3.1482,-3.1482,-3.1482,-3.1482,-3.1482,-3.1482,-3.1482,-3.1482,-3.1482,-3.1482,-3.1482,-3.1482,-3.1482,-3.1482,-3.1482,-3.1482,-3.1482,-3.1482,-3.1482,-3.1482,-3.1482,-3.1482,-3.1482,-3.1482,-2.5876,-2.5797,-2.5951,-2.6863,-2.6564,-2.6471,-2.7201,-2.7403,-2.7523,-2.7523,-2.7523,-2.7523,-2.7523,-2.7536,-2.7523,-2.7523,-2.7881,-2.8276,-2.8587,-2.8972,-2.9289,-2.9602,-2.9602,-2.9602,-2.9602,-2.8917,-2.8903,-2.9602,-2.9135,-2.917,-2.9822,-3.0129,-2.9993,-2.9373,-2.956,-2.9623,-2.9484,-2.8195,-2.7986,-2.8363,-2.7162,-2.6658,-2.6714,-2.7297,-2.7095,-2.6658,-2.7229,-2.704,-2.6533,-2.6533,-2.6533,-2.6521,-2.6658,-2.6589,-2.6533,-2.6658,-2.6714,-2.685,-2.7335,-2.7268,-2.7079,-2.7403,-2.7403,-2.7335,-2.7523,-2.759,-2.759,-2.7656,-2.8157,-2.8597,-2.8597,-2.9142,-2.9766,-3.0389,0.0,0.0,-3.1409,-3.1482,-3.1482,-3.1482,-3.1482,-3.1482,-3.1482,-3.1482,-3.1482,-3.1482,-3.1482,-3.1482,-3.1482,-3.1482,-3.1482,-3.1482,-3.1482,-3.1482,-3.1482,-3.1482,-3.1482,-3.1482,-3.1482,-3.1482,-3.1482,-3.1482,-3.1482,-3.1482,-3.1482,-3.1482,-3.1482,-3.1482,-3.1482,-3.1482,-3.1482,-3.1482,-3.1482,-3.1482,-3.1482,-3.1482,-2.5436,-2.5933,-2.6289,-2.6139,-2.6208,-2.6346,-2.6552,-2.6837,-2.7121,-2.7469,-2.7523,-2.739,-2.7053,-2.6985,-2.6837,-2.6552,-2.6973,-2.739,-2.7709,-2.796,-2.8546,-2.954,-2.9602,-2.9602,-2.9602,-2.9324,-2.9121,-2.8917,-2.8712,-2.8519,-2.839,-2.862,-2.8542,-2.8298,-2.862,-2.8519,-2.8065,-2.767,-2.7417,-2.7229,-2.6714,-2.6533,-2.6521,-2.6782,-2.6714,-2.6521,-2.6782,-2.6714,-2.6533,-2.6533,-2.6533,-2.6533,-2.6589,-2.6521,-2.6521,-2.6658,-2.6714,-2.6782,-2.7066,-2.6998,-2.693,-2.7268,-2.7214,-2.7214,-2.7469,-2.7523,-2.7523,-2.7523,-2.7723,-2.8039,-2.8417,-2.903,-2.969,-3.0389,0.0,-3.1219,-3.1467,-3.1482,-3.1482,-3.1482,-3.1482,-3.1482,-3.1482,-3.1482,-3.1482,-3.1482,-3.1482,-3.1482,-3.1482,-3.1482,-3.1482,-3.1482,-3.1482,-3.1482,-3.1482,-3.1482,-3.1482,-3.1482,-3.1482,-3.1482,-3.1482,-3.1482,-3.1482,-3.1482,-3.1482,-3.1482,-3.1482,-3.1482,-3.1482,-3.1482,-3.1482,-3.1482,-3.1482,-3.1482,-3.1482,-3.1482,-2.4862,-2.5429,-2.5697,-2.5193,-2.5557,-2.5918,-2.5779,-2.6139,-2.6564,-2.6973,-2.6973,-2.6837,-2.6496,-2.644,-2.6289,-2.5931,-2.622,-2.6633,-2.7027,-2.7351,-2.7947,-2.8881,-2.8944,-2.8944,-2.8944,-2.8739,-2.8468,-2.8182,-2.7973,-2.7723,-2.7484,-2.763,-2.7564,-2.7365,-2.7644,-2.7604,-2.7229,-2.7095,-2.6973,-2.6782,-2.6589,-2.6533,-2.6533,-2.6533,-2.6533,-2.6533,-2.6533,-2.6533,-2.6533,-2.6533,-2.6533,-2.6533,-2.6533,-2.6533,-2.6521,-2.6589,-2.6658,-2.6726,-2.6875,-2.6794,-2.6782,-2.7134,-2.7079,-2.7011,-2.7335,-2.7469,-2.7469,-2.7456,-2.7523,-2.7656,-2.8105,-2.8583,-2.9142,-3.0011,-3.0584,-3.1029,-3.1409,-3.1482,-3.1482,-3.1482,-3.1482,-3.1482,-3.1482,-3.1482,-3.1482,-3.1482,-3.1482,-3.1482,-3.1482,-3.1482,-3.1482,-3.1482,-3.1482,-3.1482,-3.1482,-3.1482,-3.1482,-3.1482,-3.1482,-3.1482,-3.1482,-3.1482,-3.1482,-3.1482,-3.1482,-3.1482,-3.1482,-3.1482,-3.1482,-3.1482,-3.1482,-3.1482,-3.1482,-3.1482,-3.1482,-3.1482,-2.412,-2.4108,-2.4108,-2.412,-2.4564,-2.5016,-2.5016,-2.5499,-2.5861,-2.5931,-2.5931,-2.5931,-2.5861,-2.5861,-2.5861,-2.5861,-2.5861,-2.6126,-2.6676,-2.7204,-2.7471,-2.7471,-2.7484,-2.7484,-2.7484,-2.6744,-2.6744,-2.7484,-2.6744,-2.6744,-2.7484,-2.7644,-2.7298,-2.6663,-2.6799,-2.7002,-2.7162,-2.6465,-2.6714,-2.7417,-2.6782,-2.6533,-2.6533,-2.6533,-2.6533,-2.6533,-2.6533,-2.6533,-2.6533,-2.6533,-2.6533,-2.6533,-2.6533,-2.6533,-2.6533,-2.6533,-2.6589,-2.6714,-2.6714,-2.6714,-2.6726,-2.6943,-2.6875,-2.6782,-2.7201,-2.7268,-2.7335,-2.7469,-2.7523,-2.7523,-2.7523,-2.7523,-2.796,-2.9254,-2.9504,-2.995,-3.1278,-3.1482,-3.1482,-3.1482,-3.1482,-3.1482,-3.1482,-3.1482,-3.1482,-3.1482,-3.1482,-3.1482,-3.1482,-3.1482,-3.1482,-3.1482,-3.1482,-3.1482,-3.1482,-3.1482,-3.1482,-3.1482,-3.1482,-3.1482,-3.1482,-3.1482,-3.1482,-3.1482,-3.1482,-3.1482,-3.1482,-3.1482,-3.1482,-3.1482,-3.1482,-3.1482,-3.1482,-3.1482,-3.1482,-3.1482,-2.335,-2.3768,-2.3975,-2.3423,-2.3728,-2.4082,-2.412,-2.4552,-2.5134,-2.5791,-2.5931,-2.5721,-2.5288,-2.5288,-2.5087,-2.4754,-2.5016,-2.5441,-2.5873,-2.6082,-2.6139,-2.5988,-2.6934,-2.7484,-2.7484,-2.7284,-2.7015,-2.6756,-2.6483,-2.6277,-2.5988,-2.5975,-2.5906,-2.5721,-2.5931,-2.6013,-2.6082,-2.6037,-2.6188,-2.6589,-2.6396,-2.6396,-2.6533,-2.6533,-2.6533,-2.6533,-2.6533,-2.6533,-2.6533,-2.6533,-2.6533,-2.6533,-2.6533,-2.6533,-2.6533,-2.6533,-2.6521,-2.6589,-2.6589,-2.6589,-2.6602,-2.6956,-2.6875,-2.6794,-2.7011,-2.7079,-2.7079,-2.7146,-2.7268,-2.7523,-2.7973,-2.8157,-2.8468,-2.938,-2.9504,-2.9827,-3.0703,-3.0777,-3.097,-3.1409,-3.1482,-3.1482,-3.1482,-3.1482,-3.1482,-3.1482,-3.1482,-3.1482,-3.1482,-3.1482,-3.1482,-3.1482,-3.1482,-3.1482,-3.1482,-3.1482,-3.1482,-3.1482,-3.1482,-3.1482,-3.1482,-3.1482,-3.1482,-3.1482,-3.1482,-3.1482,-3.1482,-3.1482,-3.1482,-3.1482,-3.1482,-3.1482,-3.1482,-3.1482,-3.1482,-3.1482,-2.2478,-2.2957,-2.301,-2.2306,-2.2521,-2.2872,-2.3084,-2.3463,-2.412,-2.5087,-2.5241,-2.5099,-2.4743,-2.4671,-2.4527,-2.42,-2.4539,-2.4897,-2.5123,-2.5265,-2.5265,-2.5111,-2.6057,-2.6607,-2.6595,-2.6595,-2.6402,-2.5931,-2.5931,-2.5721,-2.5312,-2.5312,-2.5312,-2.5312,-2.5465,-2.5535,-2.5606,-2.5758,-2.591,-2.6062,-2.6062,-2.6188,-2.6396,-2.6396,-2.6396,-2.6533,-2.6533,-2.6533,-2.6533,-2.6533,-2.6533,-2.6533,-2.6533,-2.6533,-2.6533,-2.6533,-2.6533,-2.6533,-2.6533,-2.6533,-2.6533,-2.6739,-2.6739,-2.6658,-2.6875,-2.6875,-2.6875,-2.6943,-2.7079,-2.7403,-2.8039,-2.8222,-2.8532,-2.9192,-2.9317,-2.9442,-2.9964,-3.0269,-3.0584,-3.1029,-3.1351,-3.1482,-3.1482,-3.1482,-3.1482,-3.1482,-3.1482,-3.1482,-3.1482,-3.1482,-3.1482,-3.1482,-3.1482,-3.1482,-3.1482,-3.1482,-3.1482,-3.1482,-3.1482,-3.1482,-3.1482,-3.1482,-3.1482,-3.1482,-3.1482,-3.1482,-3.1482,-3.1482,-3.1482,-3.1482,-3.1482,-3.1482,-3.1482,-3.1482,-3.1482,-3.1482,-2.1492,-2.1766,-2.1659,-2.0934,-2.1278,-2.1704,-2.1897,-2.2274,-2.2883,-2.3813,-2.4043,-2.4043,-2.4116,-2.4127,-2.42,-2.42,-2.4345,-2.449,-2.449,-2.4646,-2.479,-2.479,-2.4992,-2.5111,-2.5312,-2.5312,-2.5312,-2.5312,-2.5312,-2.5312,-2.5312,-2.5312,-2.5312,-2.5312,-2.5312,-2.5382,-2.5535,-2.5535,-2.5688,-2.584,-2.584,-2.598,-2.6213,-2.6201,-2.6339,-2.6465,-2.6465,-2.6533,-2.6533,-2.6533,-2.6533,-2.6533,-2.6533,-2.6533,-2.6533,-2.6533,-2.6533,-2.6533,-2.6533,-2.6533,-2.6533,-2.6533,-2.6533,-2.6521,-2.6658,-2.6658,-2.6726,-2.6943,-2.6943,-2.7146,-2.7776,-2.7908,-2.8091,-2.8698,-2.8812,-2.8953,-2.9233,-2.978,-3.0269,-3.0524,-3.1102,-3.1482,-3.1467,-3.1482,-3.1482,-3.1482,-3.1482,-3.1482,-3.1482,-3.1482,-3.1482,-3.1482,-3.1482,-3.1482,-3.1482,-3.1482,-3.1482,-3.1482,-3.1482,-3.1482,-3.1482,-3.1482,-3.1482,-3.1482,-3.1482,-3.1482,-3.1482,-3.1482,-3.1482,-3.1482,-3.1482,-3.1482,-3.1482,-3.1482,-3.1482,-3.1482,-2.0294,-2.0769,-2.0924,-2.0226,-2.0682,-2.0991,-2.0894,-2.0884,-2.1191,-2.1897,-2.2585,-2.3117,-2.3224,-2.3824,-2.42,-2.42,-2.4273,-2.4345,-2.4502,-2.4562,-2.4646,-2.479,-2.4861,-2.4921,-2.5111,-2.5241,-2.5312,-2.5312,-2.5312,-2.5312,-2.5312,-2.5312,-2.5312,-2.5312,-2.5312,-2.5312,-2.5382,-2.5382,-2.5465,-2.5688,-2.5688,-2.5758,-2.598,-2.6131,-2.6201,-2.627,-2.6465,-2.6533,-2.6533,-2.6533,-2.6533,-2.6533,-2.6533,-2.6533,-2.6533,-2.6533,-2.6533,-2.6533,-2.6533,-2.6533,-2.6533,-2.6533,-2.6533,-2.6533,-2.6521,-2.6521,-2.6533,-2.6602,-2.6658,-2.6794,-2.6985,-2.7134,-2.7268,-2.739,-2.7456,-2.7829,-2.8889,-2.9192,-2.9704,-3.0821,-3.1073,-3.1249,-3.1351,-3.1409,-3.1482,-3.1482,-3.1482,-3.1482,-3.1482,-3.1482,-3.1482,-3.1482,-3.1482,-3.1482,-3.1482,-3.1482,-3.1482,-3.1482,-3.1482,-3.1482,-3.1482,-3.1482,-3.1482,-3.1482,-3.1482,-3.1482,-3.1482,-3.1482,-3.1482,-3.1482,-3.1482,-3.1482,-3.1482,-3.1482,-3.1482,-3.1482,-1.9825,-1.9913,-1.9854,-1.9529,-1.9529,-1.9599,-2.0051,-2.0051,-2.0353,-2.1191,-2.1735,-2.2124,-2.222,-2.2745,-2.3054,-2.3054,-2.3446,-2.3666,-2.3751,-2.4116,-2.42,-2.397,-2.4032,-2.3936,-2.361,-2.3902,-2.442,-2.5312,-2.5312,-2.5312,-2.5312,-2.4933,-2.4707,-2.4707,-2.4348,-2.4204,-2.4204,-2.4204,-2.4504,-2.4862,-2.4504,-2.4945,-2.5758,-2.5453,-2.5606,-2.6062,-2.6188,-2.6258,-2.6396,-2.6465,-2.6533,-2.6533,-2.6533,-2.6533,-2.6533,-2.6533,-2.6533,-2.6533,-2.6533,-2.6533,-2.6533,-2.6533,-2.6533,-2.6533,-2.6533,-2.6533,-2.6533,-2.6533,-2.6589,-2.6714,-2.704,-2.7175,-2.7255,-2.7255,-2.7255,-2.7377,-2.7868,-2.8505,-2.9219,-2.9979,-3.0687,-3.1132,-3.119,-3.1351,-3.1409,-3.1409,-3.1467,-3.1482,-3.1482,-3.1482,-3.1482,-3.1482,-3.1482,-3.1482,-3.1482,-3.1482,-3.1482,-3.1482,-3.1482,-3.1482,-3.1482,-3.1482,-3.1482,-3.1482,-3.1482,-3.1482,-3.1482,-3.1482,-3.1482,-3.1482,-3.1482,-3.1482,-3.1482,-3.1482,-3.1467,-3.1409,-1.9432,-1.9292,-1.8922,-1.8843,-1.8442,-1.8434,-1.9213,-1.9362,-1.9668,-2.0488,-2.0884,-2.1125,-2.1201,-2.1527,-2.1832,-2.1832,-2.2381,-2.2767,-2.2767,-2.3434,-2.3508,-2.2841,-2.2968,-2.2723,-2.2027,-2.2328,-2.3294,-2.4862,-2.4862,-2.4933,-2.4862,-2.4192,-2.3902,-2.3902,-2.3243,-2.3032,-2.3032,-2.3032,-2.3316,-2.3829,-2.3243,-2.3841,-2.5087,-2.442,-2.4707,-2.5453,-2.5465,-2.5606,-2.5758,-2.5955,-2.6164,-2.6233,-2.6314,-2.6383,-2.6533,-2.6533,-2.6533,-2.6533,-2.6533,-2.6533,-2.6533,-2.6533,-2.6533,-2.6533,-2.6533,-2.6533,-2.6533,-2.6533,-2.6533,-2.6658,-2.7229,-2.7351,-2.7351,-2.7351,-2.7351,-2.7229,-2.6905,-2.7815,-2.8648,-2.8876,-3.0101,-3.0895,-3.1014,-3.1176,-3.1292,-3.1292,-3.1409,-3.1482,-3.1424,-3.1482,-3.1482,-3.1467,-3.1482,-3.1482,-3.1482,-3.1482,-3.1482,-3.1482,-3.1482,-3.1482,-3.1482,-3.1482,-3.1482,-3.1482,-3.1482,-3.1482,-3.1482,-3.1482,-3.1482,-3.1482,-3.1482,-3.1482,-3.1482,-3.1482,-3.1409,-3.1351,-1.8103,-1.8674,-1.8843,-1.8282,-1.8523,-1.8763,-1.8273,-1.8193,-1.8345,-1.8745,-1.9362,-1.9982,-2.0353,-2.1211,-2.1832,-2.1832,-2.1918,-2.1993,-2.1993,-2.2069,-2.2069,-2.1993,-2.1983,-2.1973,-2.2027,-2.2027,-2.2403,-2.2999,-2.3169,-2.3316,-2.3327,-2.318,-2.3169,-2.3169,-2.3032,-2.3032,-2.3032,-2.3032,-2.3032,-2.3169,-2.3032,-2.3169,-2.3316,-2.3379,-2.3452,-2.3588,-2.3745,-2.3818,-2.3891,-2.4108,-2.4624,-2.5229,-2.5382,-2.5955,-2.6533,-2.6533,-2.6533,-2.6533,-2.6533,-2.6533,-2.6533,-2.6533,-2.6533,-2.6533,-2.6533,-2.6533,-2.6533,-2.6533,-2.6533,-2.6521,-2.6589,-2.6658,-2.6658,-2.6658,-2.6658,-2.6782,-2.7284,-2.755,-2.7934,-2.8492,-2.9407,-3.019,-3.0762,-3.1014,-3.1132,-3.1132,-3.1234,-3.1292,-3.1132,-3.1366,-3.1467,-3.1351,-3.1409,-3.1482,-3.1482,-3.1482,-3.1482,-3.1482,-3.1482,-3.1482,-3.1482,-3.1482,-3.1482,-3.1482,-3.1482,-3.1482,-3.1482,-3.1482,-3.1482,-3.1482,-3.1482,-3.1482,-3.1482,-3.1482,-3.1482,-3.1467,-1.6944,-1.744,-1.7772,-1.7951,-1.8282,-1.8362,-1.804,-1.804,-1.804,-1.8201,-1.8594,-1.8984,-1.9204,-1.9835,-2.0304,-2.0372,-2.0837,-2.1078,-2.1078,-2.1538,-2.1603,-2.1078,-2.1078,-2.0914,-2.0518,-2.0605,-2.0769,-2.0914,-2.2188,-2.2861,-2.2957,-2.251,-2.236,-2.2285,-2.1832,-2.169,-2.169,-2.169,-2.1907,-2.2285,-2.1832,-2.2209,-2.2957,-2.2574,-2.2713,-2.3084,-2.3294,-2.3368,-2.3514,-2.3745,-2.3963,-2.4192,-2.4409,-2.4707,-2.4981,-2.4981,-2.5063,-2.5134,-2.5134,-2.5511,-2.5816,-2.5816,-2.6176,-2.6533,-2.6533,-2.6533,-2.6533,-2.6533,-2.6533,-2.6533,-2.6533,-2.6533,-2.6533,-2.6533,-2.6533,-2.6589,-2.6905,-2.7297,-2.7934,-2.8967,-2.9794,-3.0387,-3.0642,-3.0821,-3.0955,-3.0955,-3.1176,-3.1292,-3.1234,-3.1409,-3.1467,-3.1409,-3.1467,-3.1482,-3.1482,-3.1482,-3.1482,-3.1482,-3.1482,-3.1482,-3.1482,-3.1482,-3.1482,-3.1482,-3.1482,-3.1482,-3.1482,-3.1482,-3.1482,-3.1482,-3.1482,-3.1482,-3.1482,-3.1409,-3.1351,-3.1249]}]]